<?xml version="1.0" encoding="UTF-8" standalone="no" ?>
<gpx xmlns="http://www.topografix.com/GPX/1/1" xmlns:xsi="http://www.w3.org/2001/XMLSchema-instance" xsi:schemaLocation="http://www.topografix.com/GPX/1/1 http://www.topografix.com/GPX/1/1/gpx.xsd" version="1.1" creator="VisuGPX - https://www.visugpx.com">
  <metadata>
    <name>Boucle de St Jean de Beauregard (91)</name>
    <desc><![CDATA[Jolie boucle  de 20 km autour du domaine de St Jean-de-Beauregard

]]></desc>
  </metadata>
  <trk>
    <name><![CDATA[13 juin 2021 à 10:00:28]]></name>
    <cmt><![CDATA[13 juin 2021 à 10:00:28]]></cmt>
    <trkseg>
      <trkpt lat="48.69438" lon="2.15282">
        <ele>83</ele>
        <time>2021-06-13T08:00:28Z</time>
      </trkpt>
      <trkpt lat="48.69442" lon="2.15266">
        <ele>81</ele>
        <time>2021-06-13T08:00:37Z</time>
      </trkpt>
      <trkpt lat="48.69445" lon="2.15253">
        <ele>81</ele>
        <time>2021-06-13T08:00:43Z</time>
      </trkpt>
      <trkpt lat="48.69447" lon="2.15245">
        <ele>81</ele>
        <time>2021-06-13T08:00:49Z</time>
      </trkpt>
      <trkpt lat="48.69447" lon="2.15229">
        <ele>81</ele>
        <time>2021-06-13T08:00:58Z</time>
      </trkpt>
      <trkpt lat="48.69455" lon="2.15218">
        <ele>81</ele>
        <time>2021-06-13T08:01:09Z</time>
      </trkpt>
      <trkpt lat="48.69457" lon="2.15212">
        <ele>81</ele>
        <time>2021-06-13T08:01:13Z</time>
      </trkpt>
      <trkpt lat="48.69457" lon="2.15204">
        <ele>81</ele>
        <time>2021-06-13T08:01:20Z</time>
      </trkpt>
      <trkpt lat="48.6946" lon="2.15197">
        <ele>81</ele>
        <time>2021-06-13T08:01:24Z</time>
      </trkpt>
      <trkpt lat="48.69461" lon="2.1519">
        <ele>81</ele>
        <time>2021-06-13T08:01:29Z</time>
      </trkpt>
      <trkpt lat="48.69473" lon="2.15153">
        <ele>82</ele>
        <time>2021-06-13T08:01:52Z</time>
      </trkpt>
      <trkpt lat="48.69483" lon="2.15113">
        <ele>82</ele>
        <time>2021-06-13T08:02:17Z</time>
      </trkpt>
      <trkpt lat="48.69487" lon="2.15106">
        <ele>82</ele>
        <time>2021-06-13T08:02:21Z</time>
      </trkpt>
      <trkpt lat="48.69493" lon="2.15091">
        <ele>83</ele>
        <time>2021-06-13T08:02:30Z</time>
      </trkpt>
      <trkpt lat="48.69494" lon="2.15082">
        <ele>83</ele>
        <time>2021-06-13T08:02:34Z</time>
      </trkpt>
      <trkpt lat="48.69493" lon="2.15072">
        <ele>83</ele>
        <time>2021-06-13T08:02:48Z</time>
      </trkpt>
      <trkpt lat="48.69495" lon="2.15065">
        <ele>84</ele>
        <time>2021-06-13T08:03:39Z</time>
      </trkpt>
      <trkpt lat="48.6949" lon="2.15065">
        <ele>84</ele>
        <time>2021-06-13T08:03:49Z</time>
      </trkpt>
      <trkpt lat="48.69454" lon="2.15044">
        <ele>87</ele>
        <time>2021-06-13T08:04:23Z</time>
      </trkpt>
      <trkpt lat="48.6942" lon="2.15024">
        <ele>91</ele>
        <time>2021-06-13T08:04:56Z</time>
      </trkpt>
      <trkpt lat="48.69384" lon="2.15">
        <ele>96</ele>
        <time>2021-06-13T08:05:31Z</time>
      </trkpt>
      <trkpt lat="48.69362" lon="2.14987">
        <ele>100</ele>
        <time>2021-06-13T08:05:53Z</time>
      </trkpt>
      <trkpt lat="48.69351" lon="2.14983">
        <ele>102</ele>
        <time>2021-06-13T08:06:05Z</time>
      </trkpt>
      <trkpt lat="48.69332" lon="2.1497">
        <ele>106</ele>
        <time>2021-06-13T08:06:27Z</time>
      </trkpt>
      <trkpt lat="48.69327" lon="2.14969">
        <ele>106</ele>
        <time>2021-06-13T08:06:32Z</time>
      </trkpt>
      <trkpt lat="48.69317" lon="2.1496">
        <ele>109</ele>
        <time>2021-06-13T08:06:47Z</time>
      </trkpt>
      <trkpt lat="48.6931" lon="2.14953">
        <ele>110</ele>
        <time>2021-06-13T08:06:53Z</time>
      </trkpt>
      <trkpt lat="48.69301" lon="2.1494">
        <ele>112</ele>
        <time>2021-06-13T08:07:19Z</time>
      </trkpt>
      <trkpt lat="48.69304" lon="2.14913">
        <ele>113</ele>
        <time>2021-06-13T08:07:34Z</time>
      </trkpt>
      <trkpt lat="48.69301" lon="2.14883">
        <ele>116</ele>
        <time>2021-06-13T08:07:53Z</time>
      </trkpt>
      <trkpt lat="48.69304" lon="2.1487">
        <ele>117</ele>
        <time>2021-06-13T08:08:01Z</time>
      </trkpt>
      <trkpt lat="48.69303" lon="2.14842">
        <ele>120</ele>
        <time>2021-06-13T08:08:18Z</time>
      </trkpt>
      <trkpt lat="48.69304" lon="2.14827">
        <ele>122</ele>
        <time>2021-06-13T08:08:31Z</time>
      </trkpt>
      <trkpt lat="48.69302" lon="2.14797">
        <ele>125</ele>
        <time>2021-06-13T08:08:49Z</time>
      </trkpt>
      <trkpt lat="48.69304" lon="2.14784">
        <ele>126</ele>
        <time>2021-06-13T08:08:57Z</time>
      </trkpt>
      <trkpt lat="48.69302" lon="2.1477">
        <ele>128</ele>
        <time>2021-06-13T08:09:05Z</time>
      </trkpt>
      <trkpt lat="48.69303" lon="2.14754">
        <ele>131</ele>
        <time>2021-06-13T08:09:21Z</time>
      </trkpt>
      <trkpt lat="48.693" lon="2.14731">
        <ele>133</ele>
        <time>2021-06-13T08:09:36Z</time>
      </trkpt>
      <trkpt lat="48.69286" lon="2.14682">
        <ele>138</ele>
        <time>2021-06-13T08:10:09Z</time>
      </trkpt>
      <trkpt lat="48.69278" lon="2.14632">
        <ele>144</ele>
        <time>2021-06-13T08:10:43Z</time>
      </trkpt>
      <trkpt lat="48.69273" lon="2.14624">
        <ele>145</ele>
        <time>2021-06-13T08:10:50Z</time>
      </trkpt>
      <trkpt lat="48.69267" lon="2.14602">
        <ele>148</ele>
        <time>2021-06-13T08:11:07Z</time>
      </trkpt>
      <trkpt lat="48.69265" lon="2.14593">
        <ele>149</ele>
        <time>2021-06-13T08:11:19Z</time>
      </trkpt>
      <trkpt lat="48.69266" lon="2.14587">
        <ele>149</ele>
        <time>2021-06-13T08:12:03Z</time>
      </trkpt>
      <trkpt lat="48.69264" lon="2.14588">
        <ele>149</ele>
        <time>2021-06-13T08:12:39Z</time>
      </trkpt>
      <trkpt lat="48.69259" lon="2.14584">
        <ele>147</ele>
        <time>2021-06-13T08:13:34Z</time>
      </trkpt>
      <trkpt lat="48.69258" lon="2.14599">
        <ele>148</ele>
        <time>2021-06-13T08:13:52Z</time>
      </trkpt>
      <trkpt lat="48.69257" lon="2.14608">
        <ele>149</ele>
        <time>2021-06-13T08:13:57Z</time>
      </trkpt>
      <trkpt lat="48.69249" lon="2.14637">
        <ele>149</ele>
        <time>2021-06-13T08:14:11Z</time>
      </trkpt>
      <trkpt lat="48.69248" lon="2.14645">
        <ele>150</ele>
        <time>2021-06-13T08:14:15Z</time>
      </trkpt>
      <trkpt lat="48.69235" lon="2.14687">
        <ele>151</ele>
        <time>2021-06-13T08:14:41Z</time>
      </trkpt>
      <trkpt lat="48.69234" lon="2.14696">
        <ele>151</ele>
        <time>2021-06-13T08:14:45Z</time>
      </trkpt>
      <trkpt lat="48.69232" lon="2.14703">
        <ele>151</ele>
        <time>2021-06-13T08:14:49Z</time>
      </trkpt>
      <trkpt lat="48.69228" lon="2.14709">
        <ele>151</ele>
        <time>2021-06-13T08:14:54Z</time>
      </trkpt>
      <trkpt lat="48.69225" lon="2.14734">
        <ele>151</ele>
        <time>2021-06-13T08:15:07Z</time>
      </trkpt>
      <trkpt lat="48.69219" lon="2.14749">
        <ele>151</ele>
        <time>2021-06-13T08:15:16Z</time>
      </trkpt>
      <trkpt lat="48.69215" lon="2.14777">
        <ele>149</ele>
        <time>2021-06-13T08:15:31Z</time>
      </trkpt>
      <trkpt lat="48.69208" lon="2.14789">
        <ele>147</ele>
        <time>2021-06-13T08:15:44Z</time>
      </trkpt>
      <trkpt lat="48.69205" lon="2.14795">
        <ele>147</ele>
        <time>2021-06-13T08:16:11Z</time>
      </trkpt>
      <trkpt lat="48.69213" lon="2.14804">
        <ele>146</ele>
        <time>2021-06-13T08:16:45Z</time>
      </trkpt>
      <trkpt lat="48.69229" lon="2.14825">
        <ele>144</ele>
        <time>2021-06-13T08:17:02Z</time>
      </trkpt>
      <trkpt lat="48.69232" lon="2.1483">
        <ele>144</ele>
        <time>2021-06-13T08:17:09Z</time>
      </trkpt>
      <trkpt lat="48.69235" lon="2.14838">
        <ele>142</ele>
        <time>2021-06-13T08:17:25Z</time>
      </trkpt>
      <trkpt lat="48.6924" lon="2.14847">
        <ele>138</ele>
        <time>2021-06-13T08:17:46Z</time>
      </trkpt>
      <trkpt lat="48.69242" lon="2.1486">
        <ele>135</ele>
        <time>2021-06-13T08:17:57Z</time>
      </trkpt>
      <trkpt lat="48.69246" lon="2.1487">
        <ele>132</ele>
        <time>2021-06-13T08:18:10Z</time>
      </trkpt>
      <trkpt lat="48.69251" lon="2.14881">
        <ele>128</ele>
        <time>2021-06-13T08:18:27Z</time>
      </trkpt>
      <trkpt lat="48.69255" lon="2.14887">
        <ele>126</ele>
        <time>2021-06-13T08:18:39Z</time>
      </trkpt>
      <trkpt lat="48.69266" lon="2.14903">
        <ele>119</ele>
        <time>2021-06-13T08:19:13Z</time>
      </trkpt>
      <trkpt lat="48.69265" lon="2.14921">
        <ele>116</ele>
        <time>2021-06-13T08:19:33Z</time>
      </trkpt>
      <trkpt lat="48.69259" lon="2.14936">
        <ele>116</ele>
        <time>2021-06-13T08:19:42Z</time>
      </trkpt>
      <trkpt lat="48.69258" lon="2.14934">
        <ele>116</ele>
        <time>2021-06-13T08:20:59Z</time>
      </trkpt>
      <trkpt lat="48.69255" lon="2.14939">
        <ele>116</ele>
        <time>2021-06-13T08:21:19Z</time>
      </trkpt>
      <trkpt lat="48.69253" lon="2.14949">
        <ele>116</ele>
        <time>2021-06-13T08:21:52Z</time>
      </trkpt>
      <trkpt lat="48.69247" lon="2.14954">
        <ele>114</ele>
        <time>2021-06-13T08:22:12Z</time>
      </trkpt>
      <trkpt lat="48.69238" lon="2.14954">
        <ele>113</ele>
        <time>2021-06-13T08:22:23Z</time>
      </trkpt>
      <trkpt lat="48.69229" lon="2.14951">
        <ele>112</ele>
        <time>2021-06-13T08:22:32Z</time>
      </trkpt>
      <trkpt lat="48.69223" lon="2.14946">
        <ele>112</ele>
        <time>2021-06-13T08:22:38Z</time>
      </trkpt>
      <trkpt lat="48.6921" lon="2.14945">
        <ele>111</ele>
        <time>2021-06-13T08:22:50Z</time>
      </trkpt>
      <trkpt lat="48.69185" lon="2.14925">
        <ele>110</ele>
        <time>2021-06-13T08:23:12Z</time>
      </trkpt>
      <trkpt lat="48.69179" lon="2.14924">
        <ele>110</ele>
        <time>2021-06-13T08:23:18Z</time>
      </trkpt>
      <trkpt lat="48.69173" lon="2.14915">
        <ele>110</ele>
        <time>2021-06-13T08:23:24Z</time>
      </trkpt>
      <trkpt lat="48.69166" lon="2.14915">
        <ele>110</ele>
        <time>2021-06-13T08:23:29Z</time>
      </trkpt>
      <trkpt lat="48.69163" lon="2.14909">
        <ele>110</ele>
        <time>2021-06-13T08:23:33Z</time>
      </trkpt>
      <trkpt lat="48.6916" lon="2.14903">
        <ele>110</ele>
        <time>2021-06-13T08:23:39Z</time>
      </trkpt>
      <trkpt lat="48.69155" lon="2.14898">
        <ele>110</ele>
        <time>2021-06-13T08:23:47Z</time>
      </trkpt>
      <trkpt lat="48.69151" lon="2.14895">
        <ele>110</ele>
        <time>2021-06-13T08:23:51Z</time>
      </trkpt>
      <trkpt lat="48.69144" lon="2.14888">
        <ele>110</ele>
        <time>2021-06-13T08:23:59Z</time>
      </trkpt>
      <trkpt lat="48.69141" lon="2.14874">
        <ele>112</ele>
        <time>2021-06-13T08:24:09Z</time>
      </trkpt>
      <trkpt lat="48.69137" lon="2.14867">
        <ele>112</ele>
        <time>2021-06-13T08:24:14Z</time>
      </trkpt>
      <trkpt lat="48.6913" lon="2.14862">
        <ele>113</ele>
        <time>2021-06-13T08:24:18Z</time>
      </trkpt>
      <trkpt lat="48.69127" lon="2.14853">
        <ele>113</ele>
        <time>2021-06-13T08:24:26Z</time>
      </trkpt>
      <trkpt lat="48.69119" lon="2.14849">
        <ele>114</ele>
        <time>2021-06-13T08:24:41Z</time>
      </trkpt>
      <trkpt lat="48.69089" lon="2.14804">
        <ele>118</ele>
        <time>2021-06-13T08:25:23Z</time>
      </trkpt>
      <trkpt lat="48.69082" lon="2.1479">
        <ele>119</ele>
        <time>2021-06-13T08:25:32Z</time>
      </trkpt>
      <trkpt lat="48.69077" lon="2.14782">
        <ele>119</ele>
        <time>2021-06-13T08:25:38Z</time>
      </trkpt>
      <trkpt lat="48.69071" lon="2.14776">
        <ele>120</ele>
        <time>2021-06-13T08:25:45Z</time>
      </trkpt>
      <trkpt lat="48.69059" lon="2.14753">
        <ele>121</ele>
        <time>2021-06-13T08:26:02Z</time>
      </trkpt>
      <trkpt lat="48.6905" lon="2.14742">
        <ele>122</ele>
        <time>2021-06-13T08:26:11Z</time>
      </trkpt>
      <trkpt lat="48.69045" lon="2.14734">
        <ele>123</ele>
        <time>2021-06-13T08:26:17Z</time>
      </trkpt>
      <trkpt lat="48.69035" lon="2.14722">
        <ele>124</ele>
        <time>2021-06-13T08:26:30Z</time>
      </trkpt>
      <trkpt lat="48.69025" lon="2.14702">
        <ele>125</ele>
        <time>2021-06-13T08:26:47Z</time>
      </trkpt>
      <trkpt lat="48.69019" lon="2.14698">
        <ele>126</ele>
        <time>2021-06-13T08:26:51Z</time>
      </trkpt>
      <trkpt lat="48.69016" lon="2.1469">
        <ele>126</ele>
        <time>2021-06-13T08:26:55Z</time>
      </trkpt>
      <trkpt lat="48.69006" lon="2.14675">
        <ele>127</ele>
        <time>2021-06-13T08:27:05Z</time>
      </trkpt>
      <trkpt lat="48.69001" lon="2.14672">
        <ele>127</ele>
        <time>2021-06-13T08:27:11Z</time>
      </trkpt>
      <trkpt lat="48.68991" lon="2.14651">
        <ele>128</ele>
        <time>2021-06-13T08:27:22Z</time>
      </trkpt>
      <trkpt lat="48.68988" lon="2.14641">
        <ele>128</ele>
        <time>2021-06-13T08:27:27Z</time>
      </trkpt>
      <trkpt lat="48.68982" lon="2.14638">
        <ele>128</ele>
        <time>2021-06-13T08:27:32Z</time>
      </trkpt>
      <trkpt lat="48.6896" lon="2.14609">
        <ele>133</ele>
        <time>2021-06-13T08:28:04Z</time>
      </trkpt>
      <trkpt lat="48.68953" lon="2.14602">
        <ele>135</ele>
        <time>2021-06-13T08:28:14Z</time>
      </trkpt>
      <trkpt lat="48.6895" lon="2.14594">
        <ele>137</ele>
        <time>2021-06-13T08:28:27Z</time>
      </trkpt>
      <trkpt lat="48.68944" lon="2.14587">
        <ele>138</ele>
        <time>2021-06-13T08:28:47Z</time>
      </trkpt>
      <trkpt lat="48.68938" lon="2.14579">
        <ele>145</ele>
        <time>2021-06-13T08:29:32Z</time>
      </trkpt>
      <trkpt lat="48.68931" lon="2.14571">
        <ele>148</ele>
        <time>2021-06-13T08:29:44Z</time>
      </trkpt>
      <trkpt lat="48.68924" lon="2.14562">
        <ele>149</ele>
        <time>2021-06-13T08:29:54Z</time>
      </trkpt>
      <trkpt lat="48.68921" lon="2.14554">
        <ele>150</ele>
        <time>2021-06-13T08:30:00Z</time>
      </trkpt>
      <trkpt lat="48.68912" lon="2.14543">
        <ele>150</ele>
        <time>2021-06-13T08:30:08Z</time>
      </trkpt>
      <trkpt lat="48.68907" lon="2.14526">
        <ele>151</ele>
        <time>2021-06-13T08:30:18Z</time>
      </trkpt>
      <trkpt lat="48.68899" lon="2.14513">
        <ele>152</ele>
        <time>2021-06-13T08:30:28Z</time>
      </trkpt>
      <trkpt lat="48.68887" lon="2.14496">
        <ele>152</ele>
        <time>2021-06-13T08:30:39Z</time>
      </trkpt>
      <trkpt lat="48.68885" lon="2.14489">
        <ele>152</ele>
        <time>2021-06-13T08:30:43Z</time>
      </trkpt>
      <trkpt lat="48.68857" lon="2.14445">
        <ele>153</ele>
        <time>2021-06-13T08:31:13Z</time>
      </trkpt>
      <trkpt lat="48.68848" lon="2.14423">
        <ele>154</ele>
        <time>2021-06-13T08:31:27Z</time>
      </trkpt>
      <trkpt lat="48.6884" lon="2.14411">
        <ele>154</ele>
        <time>2021-06-13T08:31:34Z</time>
      </trkpt>
      <trkpt lat="48.68835" lon="2.14395">
        <ele>154</ele>
        <time>2021-06-13T08:31:41Z</time>
      </trkpt>
      <trkpt lat="48.68828" lon="2.14354">
        <ele>155</ele>
        <time>2021-06-13T08:32:03Z</time>
      </trkpt>
      <trkpt lat="48.6882" lon="2.14326">
        <ele>155</ele>
        <time>2021-06-13T08:32:21Z</time>
      </trkpt>
      <trkpt lat="48.68817" lon="2.1431">
        <ele>155</ele>
        <time>2021-06-13T08:32:29Z</time>
      </trkpt>
      <trkpt lat="48.68815" lon="2.14301">
        <ele>155</ele>
        <time>2021-06-13T08:32:33Z</time>
      </trkpt>
      <trkpt lat="48.68814" lon="2.14292">
        <ele>156</ele>
        <time>2021-06-13T08:32:38Z</time>
      </trkpt>
      <trkpt lat="48.68802" lon="2.14242">
        <ele>156</ele>
        <time>2021-06-13T08:33:05Z</time>
      </trkpt>
      <trkpt lat="48.688" lon="2.14224">
        <ele>156</ele>
        <time>2021-06-13T08:33:14Z</time>
      </trkpt>
      <trkpt lat="48.68796" lon="2.14208">
        <ele>156</ele>
        <time>2021-06-13T08:33:23Z</time>
      </trkpt>
      <trkpt lat="48.68795" lon="2.14199">
        <ele>156</ele>
        <time>2021-06-13T08:33:28Z</time>
      </trkpt>
      <trkpt lat="48.68791" lon="2.1419">
        <ele>156</ele>
        <time>2021-06-13T08:33:32Z</time>
      </trkpt>
      <trkpt lat="48.68791" lon="2.14177">
        <ele>156</ele>
        <time>2021-06-13T08:33:40Z</time>
      </trkpt>
      <trkpt lat="48.68788" lon="2.14165">
        <ele>157</ele>
        <time>2021-06-13T08:33:48Z</time>
      </trkpt>
      <trkpt lat="48.68785" lon="2.14156">
        <ele>156</ele>
        <time>2021-06-13T08:33:53Z</time>
      </trkpt>
      <trkpt lat="48.68779" lon="2.14139">
        <ele>156</ele>
        <time>2021-06-13T08:34:03Z</time>
      </trkpt>
      <trkpt lat="48.68776" lon="2.1413">
        <ele>155</ele>
        <time>2021-06-13T08:34:09Z</time>
      </trkpt>
      <trkpt lat="48.68774" lon="2.1412">
        <ele>157</ele>
        <time>2021-06-13T08:34:13Z</time>
      </trkpt>
      <trkpt lat="48.68772" lon="2.14112">
        <ele>156</ele>
        <time>2021-06-13T08:34:17Z</time>
      </trkpt>
      <trkpt lat="48.68767" lon="2.14085">
        <ele>156</ele>
        <time>2021-06-13T08:34:32Z</time>
      </trkpt>
      <trkpt lat="48.68764" lon="2.14078">
        <ele>156</ele>
        <time>2021-06-13T08:34:35Z</time>
      </trkpt>
      <trkpt lat="48.68753" lon="2.14024">
        <ele>158</ele>
        <time>2021-06-13T08:35:07Z</time>
      </trkpt>
      <trkpt lat="48.6875" lon="2.14016">
        <ele>159</ele>
        <time>2021-06-13T08:35:12Z</time>
      </trkpt>
      <trkpt lat="48.68749" lon="2.13997">
        <ele>159</ele>
        <time>2021-06-13T08:35:21Z</time>
      </trkpt>
      <trkpt lat="48.68744" lon="2.13988">
        <ele>159</ele>
        <time>2021-06-13T08:35:25Z</time>
      </trkpt>
      <trkpt lat="48.68731" lon="2.13945">
        <ele>160</ele>
        <time>2021-06-13T08:35:50Z</time>
      </trkpt>
      <trkpt lat="48.68732" lon="2.13936">
        <ele>160</ele>
        <time>2021-06-13T08:35:57Z</time>
      </trkpt>
      <trkpt lat="48.68732" lon="2.13924">
        <ele>160</ele>
        <time>2021-06-13T08:36:18Z</time>
      </trkpt>
      <trkpt lat="48.68731" lon="2.13914">
        <ele>160</ele>
        <time>2021-06-13T08:36:26Z</time>
      </trkpt>
      <trkpt lat="48.68733" lon="2.13906">
        <ele>160</ele>
        <time>2021-06-13T08:36:32Z</time>
      </trkpt>
      <trkpt lat="48.68735" lon="2.13897">
        <ele>161</ele>
        <time>2021-06-13T08:36:41Z</time>
      </trkpt>
      <trkpt lat="48.68734" lon="2.13881">
        <ele>161</ele>
        <time>2021-06-13T08:36:54Z</time>
      </trkpt>
      <trkpt lat="48.68736" lon="2.13878">
        <ele>161</ele>
        <time>2021-06-13T08:37:18Z</time>
      </trkpt>
      <trkpt lat="48.68735" lon="2.13879">
        <ele>161</ele>
        <time>2021-06-13T08:38:41Z</time>
      </trkpt>
      <trkpt lat="48.68734" lon="2.13869">
        <ele>162</ele>
        <time>2021-06-13T08:39:53Z</time>
      </trkpt>
      <trkpt lat="48.68739" lon="2.13869">
        <ele>162</ele>
        <time>2021-06-13T08:40:11Z</time>
      </trkpt>
      <trkpt lat="48.68739" lon="2.13861">
        <ele>162</ele>
        <time>2021-06-13T08:40:37Z</time>
      </trkpt>
      <trkpt lat="48.68736" lon="2.13855">
        <ele>162</ele>
        <time>2021-06-13T08:40:52Z</time>
      </trkpt>
      <trkpt lat="48.68731" lon="2.13852">
        <ele>162</ele>
        <time>2021-06-13T08:41:01Z</time>
      </trkpt>
      <trkpt lat="48.68731" lon="2.13856">
        <ele>161</ele>
        <time>2021-06-13T08:41:55Z</time>
      </trkpt>
      <trkpt lat="48.68736" lon="2.13864">
        <ele>161</ele>
        <time>2021-06-13T08:42:01Z</time>
      </trkpt>
      <trkpt lat="48.68743" lon="2.13865">
        <ele>161</ele>
        <time>2021-06-13T08:42:05Z</time>
      </trkpt>
      <trkpt lat="48.68748" lon="2.13853">
        <ele>162</ele>
        <time>2021-06-13T08:42:19Z</time>
      </trkpt>
      <trkpt lat="48.68749" lon="2.13835">
        <ele>162</ele>
        <time>2021-06-13T08:42:32Z</time>
      </trkpt>
      <trkpt lat="48.68747" lon="2.13826">
        <ele>162</ele>
        <time>2021-06-13T08:42:37Z</time>
      </trkpt>
      <trkpt lat="48.68746" lon="2.13816">
        <ele>162</ele>
        <time>2021-06-13T08:42:44Z</time>
      </trkpt>
      <trkpt lat="48.68752" lon="2.13796">
        <ele>162</ele>
        <time>2021-06-13T08:42:57Z</time>
      </trkpt>
      <trkpt lat="48.68751" lon="2.13771">
        <ele>162</ele>
        <time>2021-06-13T08:43:14Z</time>
      </trkpt>
      <trkpt lat="48.68747" lon="2.1376">
        <ele>162</ele>
        <time>2021-06-13T08:43:18Z</time>
      </trkpt>
      <trkpt lat="48.68752" lon="2.13737">
        <ele>162</ele>
        <time>2021-06-13T08:43:31Z</time>
      </trkpt>
      <trkpt lat="48.68775" lon="2.13689">
        <ele>163</ele>
        <time>2021-06-13T08:44:04Z</time>
      </trkpt>
      <trkpt lat="48.68777" lon="2.13679">
        <ele>163</ele>
        <time>2021-06-13T08:44:12Z</time>
      </trkpt>
      <trkpt lat="48.68777" lon="2.13666">
        <ele>163</ele>
        <time>2021-06-13T08:44:21Z</time>
      </trkpt>
      <trkpt lat="48.68774" lon="2.13655">
        <ele>163</ele>
        <time>2021-06-13T08:44:27Z</time>
      </trkpt>
      <trkpt lat="48.68775" lon="2.13645">
        <ele>163</ele>
        <time>2021-06-13T08:44:34Z</time>
      </trkpt>
      <trkpt lat="48.68768" lon="2.13582">
        <ele>163</ele>
        <time>2021-06-13T08:45:08Z</time>
      </trkpt>
      <trkpt lat="48.68766" lon="2.13549">
        <ele>163</ele>
        <time>2021-06-13T08:45:27Z</time>
      </trkpt>
      <trkpt lat="48.68757" lon="2.13513">
        <ele>164</ele>
        <time>2021-06-13T08:45:46Z</time>
      </trkpt>
      <trkpt lat="48.68756" lon="2.13494">
        <ele>163</ele>
        <time>2021-06-13T08:45:56Z</time>
      </trkpt>
      <trkpt lat="48.68754" lon="2.13485">
        <ele>164</ele>
        <time>2021-06-13T08:46:00Z</time>
      </trkpt>
      <trkpt lat="48.68752" lon="2.13455">
        <ele>163</ele>
        <time>2021-06-13T08:46:17Z</time>
      </trkpt>
      <trkpt lat="48.68749" lon="2.13447">
        <ele>163</ele>
        <time>2021-06-13T08:46:22Z</time>
      </trkpt>
      <trkpt lat="48.68748" lon="2.13437">
        <ele>163</ele>
        <time>2021-06-13T08:46:28Z</time>
      </trkpt>
      <trkpt lat="48.68749" lon="2.13428">
        <ele>163</ele>
        <time>2021-06-13T08:46:33Z</time>
      </trkpt>
      <trkpt lat="48.68745" lon="2.13406">
        <ele>163</ele>
        <time>2021-06-13T08:46:46Z</time>
      </trkpt>
      <trkpt lat="48.68744" lon="2.13397">
        <ele>163</ele>
        <time>2021-06-13T08:46:52Z</time>
      </trkpt>
      <trkpt lat="48.68743" lon="2.13365">
        <ele>163</ele>
        <time>2021-06-13T08:47:11Z</time>
      </trkpt>
      <trkpt lat="48.68741" lon="2.13353">
        <ele>163</ele>
        <time>2021-06-13T08:47:17Z</time>
      </trkpt>
      <trkpt lat="48.6874" lon="2.13328">
        <ele>162</ele>
        <time>2021-06-13T08:47:30Z</time>
      </trkpt>
      <trkpt lat="48.68732" lon="2.13281">
        <ele>160</ele>
        <time>2021-06-13T08:48:00Z</time>
      </trkpt>
      <trkpt lat="48.68731" lon="2.13272">
        <ele>160</ele>
        <time>2021-06-13T08:48:05Z</time>
      </trkpt>
      <trkpt lat="48.68726" lon="2.13236">
        <ele>159</ele>
        <time>2021-06-13T08:48:25Z</time>
      </trkpt>
      <trkpt lat="48.68726" lon="2.13227">
        <ele>160</ele>
        <time>2021-06-13T08:48:31Z</time>
      </trkpt>
      <trkpt lat="48.68728" lon="2.13218">
        <ele>160</ele>
        <time>2021-06-13T08:48:38Z</time>
      </trkpt>
      <trkpt lat="48.68725" lon="2.13204">
        <ele>160</ele>
        <time>2021-06-13T08:48:51Z</time>
      </trkpt>
      <trkpt lat="48.68723" lon="2.13197">
        <ele>160</ele>
        <time>2021-06-13T08:49:02Z</time>
      </trkpt>
      <trkpt lat="48.6872" lon="2.13191">
        <ele>160</ele>
        <time>2021-06-13T08:49:07Z</time>
      </trkpt>
      <trkpt lat="48.68719" lon="2.1316">
        <ele>159</ele>
        <time>2021-06-13T08:49:32Z</time>
      </trkpt>
      <trkpt lat="48.68715" lon="2.13134">
        <ele>159</ele>
        <time>2021-06-13T08:49:50Z</time>
      </trkpt>
      <trkpt lat="48.68712" lon="2.13107">
        <ele>157</ele>
        <time>2021-06-13T08:50:07Z</time>
      </trkpt>
      <trkpt lat="48.68709" lon="2.13045">
        <ele>157</ele>
        <time>2021-06-13T08:50:37Z</time>
      </trkpt>
      <trkpt lat="48.68701" lon="2.12999">
        <ele>157</ele>
        <time>2021-06-13T08:51:08Z</time>
      </trkpt>
      <trkpt lat="48.687" lon="2.12981">
        <ele>157</ele>
        <time>2021-06-13T08:51:14Z</time>
      </trkpt>
      <trkpt lat="48.68697" lon="2.12966">
        <ele>158</ele>
        <time>2021-06-13T08:51:20Z</time>
      </trkpt>
      <trkpt lat="48.68681" lon="2.12929">
        <ele>157</ele>
        <time>2021-06-13T08:51:46Z</time>
      </trkpt>
      <trkpt lat="48.68679" lon="2.12917">
        <ele>157</ele>
        <time>2021-06-13T08:51:52Z</time>
      </trkpt>
      <trkpt lat="48.68655" lon="2.12868">
        <ele>157</ele>
        <time>2021-06-13T08:52:23Z</time>
      </trkpt>
      <trkpt lat="48.68647" lon="2.12838">
        <ele>156</ele>
        <time>2021-06-13T08:52:43Z</time>
      </trkpt>
      <trkpt lat="48.68642" lon="2.12827">
        <ele>156</ele>
        <time>2021-06-13T08:52:48Z</time>
      </trkpt>
      <trkpt lat="48.68637" lon="2.12809">
        <ele>156</ele>
        <time>2021-06-13T08:53:01Z</time>
      </trkpt>
      <trkpt lat="48.68636" lon="2.1279">
        <ele>156</ele>
        <time>2021-06-13T08:53:14Z</time>
      </trkpt>
      <trkpt lat="48.68621" lon="2.12786">
        <ele>155</ele>
        <time>2021-06-13T08:53:26Z</time>
      </trkpt>
      <trkpt lat="48.68607" lon="2.12797">
        <ele>154</ele>
        <time>2021-06-13T08:53:33Z</time>
      </trkpt>
      <trkpt lat="48.68595" lon="2.12799">
        <ele>152</ele>
        <time>2021-06-13T08:53:44Z</time>
      </trkpt>
      <trkpt lat="48.68599" lon="2.12835">
        <ele>151</ele>
        <time>2021-06-13T08:54:23Z</time>
      </trkpt>
      <trkpt lat="48.68612" lon="2.12869">
        <ele>150</ele>
        <time>2021-06-13T08:54:43Z</time>
      </trkpt>
      <trkpt lat="48.68594" lon="2.12904">
        <ele>146</ele>
        <time>2021-06-13T08:55:08Z</time>
      </trkpt>
      <trkpt lat="48.6859" lon="2.12931">
        <ele>145</ele>
        <time>2021-06-13T08:55:21Z</time>
      </trkpt>
      <trkpt lat="48.68598" lon="2.13011">
        <ele>141</ele>
        <time>2021-06-13T08:56:07Z</time>
      </trkpt>
      <trkpt lat="48.68605" lon="2.13036">
        <ele>140</ele>
        <time>2021-06-13T08:56:17Z</time>
      </trkpt>
      <trkpt lat="48.68595" lon="2.13057">
        <ele>139</ele>
        <time>2021-06-13T08:56:32Z</time>
      </trkpt>
      <trkpt lat="48.68615" lon="2.13108">
        <ele>138</ele>
        <time>2021-06-13T08:57:02Z</time>
      </trkpt>
      <trkpt lat="48.68622" lon="2.13127">
        <ele>137</ele>
        <time>2021-06-13T08:57:12Z</time>
      </trkpt>
      <trkpt lat="48.68627" lon="2.13193">
        <ele>135</ele>
        <time>2021-06-13T08:57:49Z</time>
      </trkpt>
      <trkpt lat="48.68634" lon="2.13276">
        <ele>133</ele>
        <time>2021-06-13T08:58:34Z</time>
      </trkpt>
      <trkpt lat="48.68638" lon="2.13295">
        <ele>133</ele>
        <time>2021-06-13T08:58:42Z</time>
      </trkpt>
      <trkpt lat="48.68632" lon="2.13309">
        <ele>132</ele>
        <time>2021-06-13T08:58:52Z</time>
      </trkpt>
      <trkpt lat="48.68627" lon="2.13343">
        <ele>131</ele>
        <time>2021-06-13T08:59:11Z</time>
      </trkpt>
      <trkpt lat="48.68627" lon="2.13358">
        <ele>130</ele>
        <time>2021-06-13T08:59:19Z</time>
      </trkpt>
      <trkpt lat="48.68612" lon="2.13418">
        <ele>129</ele>
        <time>2021-06-13T08:59:51Z</time>
      </trkpt>
      <trkpt lat="48.6861" lon="2.13431">
        <ele>129</ele>
        <time>2021-06-13T08:59:59Z</time>
      </trkpt>
      <trkpt lat="48.68596" lon="2.1345">
        <ele>129</ele>
        <time>2021-06-13T09:00:16Z</time>
      </trkpt>
      <trkpt lat="48.68592" lon="2.13462">
        <ele>129</ele>
        <time>2021-06-13T09:00:23Z</time>
      </trkpt>
      <trkpt lat="48.6859" lon="2.13487">
        <ele>128</ele>
        <time>2021-06-13T09:00:38Z</time>
      </trkpt>
      <trkpt lat="48.68587" lon="2.13501">
        <ele>127</ele>
        <time>2021-06-13T09:01:22Z</time>
      </trkpt>
      <trkpt lat="48.68581" lon="2.13523">
        <ele>125</ele>
        <time>2021-06-13T09:01:35Z</time>
      </trkpt>
      <trkpt lat="48.6858" lon="2.13533">
        <ele>125</ele>
        <time>2021-06-13T09:01:40Z</time>
      </trkpt>
      <trkpt lat="48.68581" lon="2.13542">
        <ele>124</ele>
        <time>2021-06-13T09:01:46Z</time>
      </trkpt>
      <trkpt lat="48.68584" lon="2.13552">
        <ele>123</ele>
        <time>2021-06-13T09:01:50Z</time>
      </trkpt>
      <trkpt lat="48.68584" lon="2.13582">
        <ele>122</ele>
        <time>2021-06-13T09:02:08Z</time>
      </trkpt>
      <trkpt lat="48.68589" lon="2.13592">
        <ele>122</ele>
        <time>2021-06-13T09:02:13Z</time>
      </trkpt>
      <trkpt lat="48.68594" lon="2.13641">
        <ele>121</ele>
        <time>2021-06-13T09:02:37Z</time>
      </trkpt>
      <trkpt lat="48.68596" lon="2.13652">
        <ele>120</ele>
        <time>2021-06-13T09:02:42Z</time>
      </trkpt>
      <trkpt lat="48.68596" lon="2.13664">
        <ele>120</ele>
        <time>2021-06-13T09:02:47Z</time>
      </trkpt>
      <trkpt lat="48.68597" lon="2.13675">
        <ele>119</ele>
        <time>2021-06-13T09:02:53Z</time>
      </trkpt>
      <trkpt lat="48.68602" lon="2.13683">
        <ele>119</ele>
        <time>2021-06-13T09:02:58Z</time>
      </trkpt>
      <trkpt lat="48.68602" lon="2.13694">
        <ele>118</ele>
        <time>2021-06-13T09:03:03Z</time>
      </trkpt>
      <trkpt lat="48.68597" lon="2.13699">
        <ele>118</ele>
        <time>2021-06-13T09:03:07Z</time>
      </trkpt>
      <trkpt lat="48.68592" lon="2.13706">
        <ele>118</ele>
        <time>2021-06-13T09:03:12Z</time>
      </trkpt>
      <trkpt lat="48.68586" lon="2.13711">
        <ele>117</ele>
        <time>2021-06-13T09:03:19Z</time>
      </trkpt>
      <trkpt lat="48.68579" lon="2.13718">
        <ele>118</ele>
        <time>2021-06-13T09:03:27Z</time>
      </trkpt>
      <trkpt lat="48.68561" lon="2.13731">
        <ele>122</ele>
        <time>2021-06-13T09:03:47Z</time>
      </trkpt>
      <trkpt lat="48.68554" lon="2.13739">
        <ele>122</ele>
        <time>2021-06-13T09:03:51Z</time>
      </trkpt>
      <trkpt lat="48.68546" lon="2.13745">
        <ele>123</ele>
        <time>2021-06-13T09:04:00Z</time>
      </trkpt>
      <trkpt lat="48.68538" lon="2.13753">
        <ele>124</ele>
        <time>2021-06-13T09:04:13Z</time>
      </trkpt>
      <trkpt lat="48.68532" lon="2.13758">
        <ele>123</ele>
        <time>2021-06-13T09:04:17Z</time>
      </trkpt>
      <trkpt lat="48.68527" lon="2.13763">
        <ele>124</ele>
        <time>2021-06-13T09:04:21Z</time>
      </trkpt>
      <trkpt lat="48.68522" lon="2.13767">
        <ele>123</ele>
        <time>2021-06-13T09:04:25Z</time>
      </trkpt>
      <trkpt lat="48.68518" lon="2.13773">
        <ele>123</ele>
        <time>2021-06-13T09:04:29Z</time>
      </trkpt>
      <trkpt lat="48.68512" lon="2.13778">
        <ele>123</ele>
        <time>2021-06-13T09:04:35Z</time>
      </trkpt>
      <trkpt lat="48.68487" lon="2.13806">
        <ele>123</ele>
        <time>2021-06-13T09:04:57Z</time>
      </trkpt>
      <trkpt lat="48.68483" lon="2.13811">
        <ele>124</ele>
        <time>2021-06-13T09:05:01Z</time>
      </trkpt>
      <trkpt lat="48.68475" lon="2.13821">
        <ele>125</ele>
        <time>2021-06-13T09:05:10Z</time>
      </trkpt>
      <trkpt lat="48.68455" lon="2.13853">
        <ele>129</ele>
        <time>2021-06-13T09:05:37Z</time>
      </trkpt>
      <trkpt lat="48.68447" lon="2.13874">
        <ele>131</ele>
        <time>2021-06-13T09:05:51Z</time>
      </trkpt>
      <trkpt lat="48.68439" lon="2.13887">
        <ele>131</ele>
        <time>2021-06-13T09:05:59Z</time>
      </trkpt>
      <trkpt lat="48.68422" lon="2.13921">
        <ele>129</ele>
        <time>2021-06-13T09:06:21Z</time>
      </trkpt>
      <trkpt lat="48.68418" lon="2.13927">
        <ele>129</ele>
        <time>2021-06-13T09:06:25Z</time>
      </trkpt>
      <trkpt lat="48.68411" lon="2.1394">
        <ele>128</ele>
        <time>2021-06-13T09:06:34Z</time>
      </trkpt>
      <trkpt lat="48.68407" lon="2.13944">
        <ele>129</ele>
        <time>2021-06-13T09:06:38Z</time>
      </trkpt>
      <trkpt lat="48.68387" lon="2.13962">
        <ele>132</ele>
        <time>2021-06-13T09:06:58Z</time>
      </trkpt>
      <trkpt lat="48.6838" lon="2.13975">
        <ele>133</ele>
        <time>2021-06-13T09:07:07Z</time>
      </trkpt>
      <trkpt lat="48.68355" lon="2.13991">
        <ele>135</ele>
        <time>2021-06-13T09:07:29Z</time>
      </trkpt>
      <trkpt lat="48.68351" lon="2.13988">
        <ele>135</ele>
        <time>2021-06-13T09:07:47Z</time>
      </trkpt>
      <trkpt lat="48.6834" lon="2.13976">
        <ele>133</ele>
        <time>2021-06-13T09:08:06Z</time>
      </trkpt>
      <trkpt lat="48.6834" lon="2.13967">
        <ele>133</ele>
        <time>2021-06-13T09:08:11Z</time>
      </trkpt>
      <trkpt lat="48.68341" lon="2.13958">
        <ele>133</ele>
        <time>2021-06-13T09:08:15Z</time>
      </trkpt>
      <trkpt lat="48.68345" lon="2.13937">
        <ele>135</ele>
        <time>2021-06-13T09:08:28Z</time>
      </trkpt>
      <trkpt lat="48.68339" lon="2.13897">
        <ele>140</ele>
        <time>2021-06-13T09:08:53Z</time>
      </trkpt>
      <trkpt lat="48.6834" lon="2.1389">
        <ele>141</ele>
        <time>2021-06-13T09:08:57Z</time>
      </trkpt>
      <trkpt lat="48.68334" lon="2.13857">
        <ele>144</ele>
        <time>2021-06-13T09:09:18Z</time>
      </trkpt>
      <trkpt lat="48.68334" lon="2.13849">
        <ele>144</ele>
        <time>2021-06-13T09:09:23Z</time>
      </trkpt>
      <trkpt lat="48.68332" lon="2.13817">
        <ele>147</ele>
        <time>2021-06-13T09:09:43Z</time>
      </trkpt>
      <trkpt lat="48.68331" lon="2.13809">
        <ele>149</ele>
        <time>2021-06-13T09:09:48Z</time>
      </trkpt>
      <trkpt lat="48.68322" lon="2.138">
        <ele>150</ele>
        <time>2021-06-13T09:09:57Z</time>
      </trkpt>
      <trkpt lat="48.68312" lon="2.13795">
        <ele>151</ele>
        <time>2021-06-13T09:10:06Z</time>
      </trkpt>
      <trkpt lat="48.68304" lon="2.13783">
        <ele>153</ele>
        <time>2021-06-13T09:10:16Z</time>
      </trkpt>
      <trkpt lat="48.68299" lon="2.1378">
        <ele>153</ele>
        <time>2021-06-13T09:10:20Z</time>
      </trkpt>
      <trkpt lat="48.68291" lon="2.13772">
        <ele>153</ele>
        <time>2021-06-13T09:10:28Z</time>
      </trkpt>
      <trkpt lat="48.68274" lon="2.13754">
        <ele>154</ele>
        <time>2021-06-13T09:10:45Z</time>
      </trkpt>
      <trkpt lat="48.6826" lon="2.13746">
        <ele>154</ele>
        <time>2021-06-13T09:10:57Z</time>
      </trkpt>
      <trkpt lat="48.68236" lon="2.13737">
        <ele>155</ele>
        <time>2021-06-13T09:11:18Z</time>
      </trkpt>
      <trkpt lat="48.68231" lon="2.13738">
        <ele>155</ele>
        <time>2021-06-13T09:11:22Z</time>
      </trkpt>
      <trkpt lat="48.68228" lon="2.13743">
        <ele>155</ele>
        <time>2021-06-13T09:11:29Z</time>
      </trkpt>
      <trkpt lat="48.68223" lon="2.13737">
        <ele>155</ele>
        <time>2021-06-13T09:12:00Z</time>
      </trkpt>
      <trkpt lat="48.68218" lon="2.13738">
        <ele>156</ele>
        <time>2021-06-13T09:12:04Z</time>
      </trkpt>
      <trkpt lat="48.68213" lon="2.13736">
        <ele>156</ele>
        <time>2021-06-13T09:12:08Z</time>
      </trkpt>
      <trkpt lat="48.68182" lon="2.13737">
        <ele>156</ele>
        <time>2021-06-13T09:12:35Z</time>
      </trkpt>
      <trkpt lat="48.68174" lon="2.13735">
        <ele>156</ele>
        <time>2021-06-13T09:12:44Z</time>
      </trkpt>
      <trkpt lat="48.68163" lon="2.13736">
        <ele>156</ele>
        <time>2021-06-13T09:12:52Z</time>
      </trkpt>
      <trkpt lat="48.68159" lon="2.13732">
        <ele>156</ele>
        <time>2021-06-13T09:13:02Z</time>
      </trkpt>
      <trkpt lat="48.68145" lon="2.13728">
        <ele>156</ele>
        <time>2021-06-13T09:13:32Z</time>
      </trkpt>
      <trkpt lat="48.68139" lon="2.13728">
        <ele>156</ele>
        <time>2021-06-13T09:13:36Z</time>
      </trkpt>
      <trkpt lat="48.68133" lon="2.13725">
        <ele>155</ele>
        <time>2021-06-13T09:13:41Z</time>
      </trkpt>
      <trkpt lat="48.68126" lon="2.13722">
        <ele>156</ele>
        <time>2021-06-13T09:13:45Z</time>
      </trkpt>
      <trkpt lat="48.68098" lon="2.13705">
        <ele>156</ele>
        <time>2021-06-13T09:14:08Z</time>
      </trkpt>
      <trkpt lat="48.68092" lon="2.13704">
        <ele>156</ele>
        <time>2021-06-13T09:14:12Z</time>
      </trkpt>
      <trkpt lat="48.68084" lon="2.1369">
        <ele>156</ele>
        <time>2021-06-13T09:14:24Z</time>
      </trkpt>
      <trkpt lat="48.68079" lon="2.13691">
        <ele>156</ele>
        <time>2021-06-13T09:14:28Z</time>
      </trkpt>
      <trkpt lat="48.68042" lon="2.13655">
        <ele>157</ele>
        <time>2021-06-13T09:14:59Z</time>
      </trkpt>
      <trkpt lat="48.68033" lon="2.13645">
        <ele>157</ele>
        <time>2021-06-13T09:15:09Z</time>
      </trkpt>
      <trkpt lat="48.68026" lon="2.1364">
        <ele>157</ele>
        <time>2021-06-13T09:15:15Z</time>
      </trkpt>
      <trkpt lat="48.6802" lon="2.13638">
        <ele>157</ele>
        <time>2021-06-13T09:15:21Z</time>
      </trkpt>
      <trkpt lat="48.6801" lon="2.1363">
        <ele>158</ele>
        <time>2021-06-13T09:15:31Z</time>
      </trkpt>
      <trkpt lat="48.67999" lon="2.13623">
        <ele>157</ele>
        <time>2021-06-13T09:15:42Z</time>
      </trkpt>
      <trkpt lat="48.67965" lon="2.13598">
        <ele>157</ele>
        <time>2021-06-13T09:16:10Z</time>
      </trkpt>
      <trkpt lat="48.67959" lon="2.13595">
        <ele>156</ele>
        <time>2021-06-13T09:16:14Z</time>
      </trkpt>
      <trkpt lat="48.67951" lon="2.13593">
        <ele>156</ele>
        <time>2021-06-13T09:16:24Z</time>
      </trkpt>
      <trkpt lat="48.67929" lon="2.13579">
        <ele>154</ele>
        <time>2021-06-13T09:16:42Z</time>
      </trkpt>
      <trkpt lat="48.67921" lon="2.13578">
        <ele>154</ele>
        <time>2021-06-13T09:16:49Z</time>
      </trkpt>
      <trkpt lat="48.67885" lon="2.13559">
        <ele>154</ele>
        <time>2021-06-13T09:17:20Z</time>
      </trkpt>
      <trkpt lat="48.67877" lon="2.13552">
        <ele>154</ele>
        <time>2021-06-13T09:17:30Z</time>
      </trkpt>
      <trkpt lat="48.67869" lon="2.1355">
        <ele>154</ele>
        <time>2021-06-13T09:17:34Z</time>
      </trkpt>
      <trkpt lat="48.67856" lon="2.1355">
        <ele>154</ele>
        <time>2021-06-13T09:17:43Z</time>
      </trkpt>
      <trkpt lat="48.6785" lon="2.13554">
        <ele>154</ele>
        <time>2021-06-13T09:17:50Z</time>
      </trkpt>
      <trkpt lat="48.67843" lon="2.13555">
        <ele>155</ele>
        <time>2021-06-13T09:17:57Z</time>
      </trkpt>
      <trkpt lat="48.67838" lon="2.13561">
        <ele>155</ele>
        <time>2021-06-13T09:18:02Z</time>
      </trkpt>
      <trkpt lat="48.67834" lon="2.13568">
        <ele>154</ele>
        <time>2021-06-13T09:18:07Z</time>
      </trkpt>
      <trkpt lat="48.67829" lon="2.13573">
        <ele>154</ele>
        <time>2021-06-13T09:18:12Z</time>
      </trkpt>
      <trkpt lat="48.67824" lon="2.13573">
        <ele>154</ele>
        <time>2021-06-13T09:18:15Z</time>
      </trkpt>
      <trkpt lat="48.67819" lon="2.13575">
        <ele>154</ele>
        <time>2021-06-13T09:18:19Z</time>
      </trkpt>
      <trkpt lat="48.67814" lon="2.13574">
        <ele>153</ele>
        <time>2021-06-13T09:18:23Z</time>
      </trkpt>
      <trkpt lat="48.67809" lon="2.13569">
        <ele>152</ele>
        <time>2021-06-13T09:18:28Z</time>
      </trkpt>
      <trkpt lat="48.67806" lon="2.13571">
        <ele>150</ele>
        <time>2021-06-13T09:18:59Z</time>
      </trkpt>
      <trkpt lat="48.67809" lon="2.13583">
        <ele>150</ele>
        <time>2021-06-13T09:19:04Z</time>
      </trkpt>
      <trkpt lat="48.67814" lon="2.1359">
        <ele>149</ele>
        <time>2021-06-13T09:19:08Z</time>
      </trkpt>
      <trkpt lat="48.67826" lon="2.13618">
        <ele>148</ele>
        <time>2021-06-13T09:19:27Z</time>
      </trkpt>
      <trkpt lat="48.67824" lon="2.13628">
        <ele>146</ele>
        <time>2021-06-13T09:19:32Z</time>
      </trkpt>
      <trkpt lat="48.67821" lon="2.13636">
        <ele>146</ele>
        <time>2021-06-13T09:19:38Z</time>
      </trkpt>
      <trkpt lat="48.67827" lon="2.1364">
        <ele>146</ele>
        <time>2021-06-13T09:19:44Z</time>
      </trkpt>
      <trkpt lat="48.67832" lon="2.13646">
        <ele>146</ele>
        <time>2021-06-13T09:19:49Z</time>
      </trkpt>
      <trkpt lat="48.67835" lon="2.13656">
        <ele>146</ele>
        <time>2021-06-13T09:20:04Z</time>
      </trkpt>
      <trkpt lat="48.67845" lon="2.13671">
        <ele>144</ele>
        <time>2021-06-13T09:20:14Z</time>
      </trkpt>
      <trkpt lat="48.6786" lon="2.13707">
        <ele>142</ele>
        <time>2021-06-13T09:20:36Z</time>
      </trkpt>
      <trkpt lat="48.67863" lon="2.13717">
        <ele>141</ele>
        <time>2021-06-13T09:20:42Z</time>
      </trkpt>
      <trkpt lat="48.67866" lon="2.13726">
        <ele>141</ele>
        <time>2021-06-13T09:20:48Z</time>
      </trkpt>
      <trkpt lat="48.67875" lon="2.13745">
        <ele>139</ele>
        <time>2021-06-13T09:21:00Z</time>
      </trkpt>
      <trkpt lat="48.6788" lon="2.13752">
        <ele>139</ele>
        <time>2021-06-13T09:21:05Z</time>
      </trkpt>
      <trkpt lat="48.67882" lon="2.13762">
        <ele>138</ele>
        <time>2021-06-13T09:21:10Z</time>
      </trkpt>
      <trkpt lat="48.6789" lon="2.13778">
        <ele>137</ele>
        <time>2021-06-13T09:21:20Z</time>
      </trkpt>
      <trkpt lat="48.67895" lon="2.13786">
        <ele>137</ele>
        <time>2021-06-13T09:21:25Z</time>
      </trkpt>
      <trkpt lat="48.67917" lon="2.13833">
        <ele>132</ele>
        <time>2021-06-13T09:21:56Z</time>
      </trkpt>
      <trkpt lat="48.67924" lon="2.13848">
        <ele>131</ele>
        <time>2021-06-13T09:22:05Z</time>
      </trkpt>
      <trkpt lat="48.67929" lon="2.13855">
        <ele>131</ele>
        <time>2021-06-13T09:22:10Z</time>
      </trkpt>
      <trkpt lat="48.67934" lon="2.13872">
        <ele>129</ele>
        <time>2021-06-13T09:22:21Z</time>
      </trkpt>
      <trkpt lat="48.6794" lon="2.13881">
        <ele>128</ele>
        <time>2021-06-13T09:22:28Z</time>
      </trkpt>
      <trkpt lat="48.67943" lon="2.13888">
        <ele>128</ele>
        <time>2021-06-13T09:22:33Z</time>
      </trkpt>
      <trkpt lat="48.67951" lon="2.13909">
        <ele>126</ele>
        <time>2021-06-13T09:22:47Z</time>
      </trkpt>
      <trkpt lat="48.67955" lon="2.13919">
        <ele>126</ele>
        <time>2021-06-13T09:22:54Z</time>
      </trkpt>
      <trkpt lat="48.67975" lon="2.13962">
        <ele>122</ele>
        <time>2021-06-13T09:23:22Z</time>
      </trkpt>
      <trkpt lat="48.67977" lon="2.13971">
        <ele>122</ele>
        <time>2021-06-13T09:23:27Z</time>
      </trkpt>
      <trkpt lat="48.67983" lon="2.13977">
        <ele>121</ele>
        <time>2021-06-13T09:23:33Z</time>
      </trkpt>
      <trkpt lat="48.68004" lon="2.14022">
        <ele>119</ele>
        <time>2021-06-13T09:24:05Z</time>
      </trkpt>
      <trkpt lat="48.68008" lon="2.14038">
        <ele>118</ele>
        <time>2021-06-13T09:24:14Z</time>
      </trkpt>
      <trkpt lat="48.68011" lon="2.14044">
        <ele>117</ele>
        <time>2021-06-13T09:24:18Z</time>
      </trkpt>
      <trkpt lat="48.68016" lon="2.14058">
        <ele>116</ele>
        <time>2021-06-13T09:24:27Z</time>
      </trkpt>
      <trkpt lat="48.68018" lon="2.14065">
        <ele>115</ele>
        <time>2021-06-13T09:25:03Z</time>
      </trkpt>
      <trkpt lat="48.68018" lon="2.1408">
        <ele>114</ele>
        <time>2021-06-13T09:25:54Z</time>
      </trkpt>
      <trkpt lat="48.68015" lon="2.14088">
        <ele>114</ele>
        <time>2021-06-13T09:25:59Z</time>
      </trkpt>
      <trkpt lat="48.68013" lon="2.14099">
        <ele>115</ele>
        <time>2021-06-13T09:26:05Z</time>
      </trkpt>
      <trkpt lat="48.68012" lon="2.14107">
        <ele>115</ele>
        <time>2021-06-13T09:26:08Z</time>
      </trkpt>
      <trkpt lat="48.68001" lon="2.1414">
        <ele>114</ele>
        <time>2021-06-13T09:26:26Z</time>
      </trkpt>
      <trkpt lat="48.67992" lon="2.14149">
        <ele>115</ele>
        <time>2021-06-13T09:26:34Z</time>
      </trkpt>
      <trkpt lat="48.67985" lon="2.14151">
        <ele>115</ele>
        <time>2021-06-13T09:26:42Z</time>
      </trkpt>
      <trkpt lat="48.6797" lon="2.14139">
        <ele>117</ele>
        <time>2021-06-13T09:26:57Z</time>
      </trkpt>
      <trkpt lat="48.67964" lon="2.14137">
        <ele>118</ele>
        <time>2021-06-13T09:27:01Z</time>
      </trkpt>
      <trkpt lat="48.67943" lon="2.14119">
        <ele>120</ele>
        <time>2021-06-13T09:27:22Z</time>
      </trkpt>
      <trkpt lat="48.67934" lon="2.14116">
        <ele>120</ele>
        <time>2021-06-13T09:27:26Z</time>
      </trkpt>
      <trkpt lat="48.67925" lon="2.14119">
        <ele>121</ele>
        <time>2021-06-13T09:27:36Z</time>
      </trkpt>
      <trkpt lat="48.67921" lon="2.14114">
        <ele>121</ele>
        <time>2021-06-13T09:27:46Z</time>
      </trkpt>
      <trkpt lat="48.67916" lon="2.14112">
        <ele>121</ele>
        <time>2021-06-13T09:27:49Z</time>
      </trkpt>
      <trkpt lat="48.67912" lon="2.14108">
        <ele>121</ele>
        <time>2021-06-13T09:27:59Z</time>
      </trkpt>
      <trkpt lat="48.67905" lon="2.14112">
        <ele>122</ele>
        <time>2021-06-13T09:28:08Z</time>
      </trkpt>
      <trkpt lat="48.6789" lon="2.14111">
        <ele>123</ele>
        <time>2021-06-13T09:28:24Z</time>
      </trkpt>
      <trkpt lat="48.67885" lon="2.14107">
        <ele>124</ele>
        <time>2021-06-13T09:28:29Z</time>
      </trkpt>
      <trkpt lat="48.67881" lon="2.14094">
        <ele>126</ele>
        <time>2021-06-13T09:28:44Z</time>
      </trkpt>
      <trkpt lat="48.67868" lon="2.14091">
        <ele>126</ele>
        <time>2021-06-13T09:29:08Z</time>
      </trkpt>
      <trkpt lat="48.67859" lon="2.14084">
        <ele>127</ele>
        <time>2021-06-13T09:29:17Z</time>
      </trkpt>
      <trkpt lat="48.67852" lon="2.14084">
        <ele>128</ele>
        <time>2021-06-13T09:29:23Z</time>
      </trkpt>
      <trkpt lat="48.67825" lon="2.14063">
        <ele>132</ele>
        <time>2021-06-13T09:29:49Z</time>
      </trkpt>
      <trkpt lat="48.67814" lon="2.14045">
        <ele>135</ele>
        <time>2021-06-13T09:30:04Z</time>
      </trkpt>
      <trkpt lat="48.67811" lon="2.14035">
        <ele>135</ele>
        <time>2021-06-13T09:30:10Z</time>
      </trkpt>
      <trkpt lat="48.67806" lon="2.14027">
        <ele>136</ele>
        <time>2021-06-13T09:30:17Z</time>
      </trkpt>
      <trkpt lat="48.67803" lon="2.14018">
        <ele>138</ele>
        <time>2021-06-13T09:30:24Z</time>
      </trkpt>
      <trkpt lat="48.67797" lon="2.14006">
        <ele>140</ele>
        <time>2021-06-13T09:30:37Z</time>
      </trkpt>
      <trkpt lat="48.67794" lon="2.13998">
        <ele>142</ele>
        <time>2021-06-13T09:30:53Z</time>
      </trkpt>
      <trkpt lat="48.67797" lon="2.13989">
        <ele>143</ele>
        <time>2021-06-13T09:31:34Z</time>
      </trkpt>
      <trkpt lat="48.67796" lon="2.13958">
        <ele>150</ele>
        <time>2021-06-13T09:32:02Z</time>
      </trkpt>
      <trkpt lat="48.67797" lon="2.13948">
        <ele>151</ele>
        <time>2021-06-13T09:32:07Z</time>
      </trkpt>
      <trkpt lat="48.67796" lon="2.13937">
        <ele>152</ele>
        <time>2021-06-13T09:32:13Z</time>
      </trkpt>
      <trkpt lat="48.67798" lon="2.13928">
        <ele>153</ele>
        <time>2021-06-13T09:32:18Z</time>
      </trkpt>
      <trkpt lat="48.67802" lon="2.13919">
        <ele>153</ele>
        <time>2021-06-13T09:32:23Z</time>
      </trkpt>
      <trkpt lat="48.67816" lon="2.13899">
        <ele>153</ele>
        <time>2021-06-13T09:32:38Z</time>
      </trkpt>
      <trkpt lat="48.67823" lon="2.13898">
        <ele>153</ele>
        <time>2021-06-13T09:32:44Z</time>
      </trkpt>
      <trkpt lat="48.67829" lon="2.13903">
        <ele>154</ele>
        <time>2021-06-13T09:32:48Z</time>
      </trkpt>
      <trkpt lat="48.67835" lon="2.13907">
        <ele>154</ele>
        <time>2021-06-13T09:32:52Z</time>
      </trkpt>
      <trkpt lat="48.67841" lon="2.13912">
        <ele>153</ele>
        <time>2021-06-13T09:32:57Z</time>
      </trkpt>
      <trkpt lat="48.67846" lon="2.13919">
        <ele>152</ele>
        <time>2021-06-13T09:33:02Z</time>
      </trkpt>
      <trkpt lat="48.67857" lon="2.13933">
        <ele>153</ele>
        <time>2021-06-13T09:33:12Z</time>
      </trkpt>
      <trkpt lat="48.67861" lon="2.13939">
        <ele>153</ele>
        <time>2021-06-13T09:33:16Z</time>
      </trkpt>
      <trkpt lat="48.67866" lon="2.13954">
        <ele>152</ele>
        <time>2021-06-13T09:33:25Z</time>
      </trkpt>
      <trkpt lat="48.67868" lon="2.13963">
        <ele>152</ele>
        <time>2021-06-13T09:33:29Z</time>
      </trkpt>
      <trkpt lat="48.67866" lon="2.1396">
        <ele>152</ele>
        <time>2021-06-13T09:33:55Z</time>
      </trkpt>
      <trkpt lat="48.6787" lon="2.13973">
        <ele>151</ele>
        <time>2021-06-13T09:34:14Z</time>
      </trkpt>
      <trkpt lat="48.67867" lon="2.13974">
        <ele>151</ele>
        <time>2021-06-13T09:35:22Z</time>
      </trkpt>
      <trkpt lat="48.67863" lon="2.13971">
        <ele>150</ele>
        <time>2021-06-13T09:36:17Z</time>
      </trkpt>
      <trkpt lat="48.67865" lon="2.1398">
        <ele>150</ele>
        <time>2021-06-13T09:36:47Z</time>
      </trkpt>
      <trkpt lat="48.67865" lon="2.13991">
        <ele>149</ele>
        <time>2021-06-13T09:36:57Z</time>
      </trkpt>
      <trkpt lat="48.67868" lon="2.13995">
        <ele>149</ele>
        <time>2021-06-13T09:39:00Z</time>
      </trkpt>
      <trkpt lat="48.67871" lon="2.13986">
        <ele>148</ele>
        <time>2021-06-13T09:39:13Z</time>
      </trkpt>
      <trkpt lat="48.67867" lon="2.13978">
        <ele>148</ele>
        <time>2021-06-13T09:40:36Z</time>
      </trkpt>
      <trkpt lat="48.67873" lon="2.13975">
        <ele>147</ele>
        <time>2021-06-13T09:40:56Z</time>
      </trkpt>
      <trkpt lat="48.67869" lon="2.13978">
        <ele>146</ele>
        <time>2021-06-13T09:43:23Z</time>
      </trkpt>
      <trkpt lat="48.6787" lon="2.1397">
        <ele>147</ele>
        <time>2021-06-13T09:43:59Z</time>
      </trkpt>
      <trkpt lat="48.67864" lon="2.13962">
        <ele>147</ele>
        <time>2021-06-13T09:44:09Z</time>
      </trkpt>
      <trkpt lat="48.6786" lon="2.13966">
        <ele>147</ele>
        <time>2021-06-13T09:44:13Z</time>
      </trkpt>
      <trkpt lat="48.67861" lon="2.1396">
        <ele>148</ele>
        <time>2021-06-13T09:44:40Z</time>
      </trkpt>
      <trkpt lat="48.67862" lon="2.13953">
        <ele>148</ele>
        <time>2021-06-13T09:44:44Z</time>
      </trkpt>
      <trkpt lat="48.67856" lon="2.13933">
        <ele>148</ele>
        <time>2021-06-13T09:44:56Z</time>
      </trkpt>
      <trkpt lat="48.67839" lon="2.13916">
        <ele>147</ele>
        <time>2021-06-13T09:45:11Z</time>
      </trkpt>
      <trkpt lat="48.67833" lon="2.13914">
        <ele>147</ele>
        <time>2021-06-13T09:45:16Z</time>
      </trkpt>
      <trkpt lat="48.67827" lon="2.13912">
        <ele>148</ele>
        <time>2021-06-13T09:45:23Z</time>
      </trkpt>
      <trkpt lat="48.67826" lon="2.13902">
        <ele>149</ele>
        <time>2021-06-13T09:45:31Z</time>
      </trkpt>
      <trkpt lat="48.67819" lon="2.13896">
        <ele>149</ele>
        <time>2021-06-13T09:45:42Z</time>
      </trkpt>
      <trkpt lat="48.67819" lon="2.13889">
        <ele>148</ele>
        <time>2021-06-13T09:45:52Z</time>
      </trkpt>
      <trkpt lat="48.67834" lon="2.13863">
        <ele>146</ele>
        <time>2021-06-13T09:46:09Z</time>
      </trkpt>
      <trkpt lat="48.67835" lon="2.13855">
        <ele>145</ele>
        <time>2021-06-13T09:46:14Z</time>
      </trkpt>
      <trkpt lat="48.67836" lon="2.13847">
        <ele>145</ele>
        <time>2021-06-13T09:46:19Z</time>
      </trkpt>
      <trkpt lat="48.67835" lon="2.13839">
        <ele>146</ele>
        <time>2021-06-13T09:46:41Z</time>
      </trkpt>
      <trkpt lat="48.6784" lon="2.1384">
        <ele>146</ele>
        <time>2021-06-13T09:46:56Z</time>
      </trkpt>
      <trkpt lat="48.67838" lon="2.1383">
        <ele>147</ele>
        <time>2021-06-13T09:47:07Z</time>
      </trkpt>
      <trkpt lat="48.67833" lon="2.13816">
        <ele>147</ele>
        <time>2021-06-13T09:47:17Z</time>
      </trkpt>
      <trkpt lat="48.6783" lon="2.13809">
        <ele>148</ele>
        <time>2021-06-13T09:47:20Z</time>
      </trkpt>
      <trkpt lat="48.67829" lon="2.13802">
        <ele>148</ele>
        <time>2021-06-13T09:47:24Z</time>
      </trkpt>
      <trkpt lat="48.67827" lon="2.13796">
        <ele>148</ele>
        <time>2021-06-13T09:47:28Z</time>
      </trkpt>
      <trkpt lat="48.67826" lon="2.13787">
        <ele>149</ele>
        <time>2021-06-13T09:47:33Z</time>
      </trkpt>
      <trkpt lat="48.67822" lon="2.13771">
        <ele>150</ele>
        <time>2021-06-13T09:47:43Z</time>
      </trkpt>
      <trkpt lat="48.67821" lon="2.13763">
        <ele>151</ele>
        <time>2021-06-13T09:47:48Z</time>
      </trkpt>
      <trkpt lat="48.67816" lon="2.13749">
        <ele>152</ele>
        <time>2021-06-13T09:48:05Z</time>
      </trkpt>
      <trkpt lat="48.67815" lon="2.13757">
        <ele>151</ele>
        <time>2021-06-13T09:49:01Z</time>
      </trkpt>
      <trkpt lat="48.67835" lon="2.13819">
        <ele>147</ele>
        <time>2021-06-13T09:49:34Z</time>
      </trkpt>
      <trkpt lat="48.67838" lon="2.13829">
        <ele>147</ele>
        <time>2021-06-13T09:49:39Z</time>
      </trkpt>
      <trkpt lat="48.67839" lon="2.13846">
        <ele>146</ele>
        <time>2021-06-13T09:49:48Z</time>
      </trkpt>
      <trkpt lat="48.6784" lon="2.13855">
        <ele>146</ele>
        <time>2021-06-13T09:49:53Z</time>
      </trkpt>
      <trkpt lat="48.6784" lon="2.13864">
        <ele>146</ele>
        <time>2021-06-13T09:49:58Z</time>
      </trkpt>
      <trkpt lat="48.67836" lon="2.13869">
        <ele>146</ele>
        <time>2021-06-13T09:50:02Z</time>
      </trkpt>
      <trkpt lat="48.67832" lon="2.13867">
        <ele>146</ele>
        <time>2021-06-13T09:50:20Z</time>
      </trkpt>
      <trkpt lat="48.67827" lon="2.13872">
        <ele>147</ele>
        <time>2021-06-13T09:50:55Z</time>
      </trkpt>
      <trkpt lat="48.67823" lon="2.13878">
        <ele>147</ele>
        <time>2021-06-13T09:50:58Z</time>
      </trkpt>
      <trkpt lat="48.67816" lon="2.13895">
        <ele>149</ele>
        <time>2021-06-13T09:51:09Z</time>
      </trkpt>
      <trkpt lat="48.67816" lon="2.13903">
        <ele>150</ele>
        <time>2021-06-13T09:51:16Z</time>
      </trkpt>
      <trkpt lat="48.67804" lon="2.13927">
        <ele>150</ele>
        <time>2021-06-13T09:51:49Z</time>
      </trkpt>
      <trkpt lat="48.67801" lon="2.13934">
        <ele>150</ele>
        <time>2021-06-13T09:51:54Z</time>
      </trkpt>
      <trkpt lat="48.678" lon="2.13943">
        <ele>150</ele>
        <time>2021-06-13T09:51:59Z</time>
      </trkpt>
      <trkpt lat="48.67797" lon="2.1395">
        <ele>149</ele>
        <time>2021-06-13T09:52:04Z</time>
      </trkpt>
      <trkpt lat="48.67792" lon="2.13956">
        <ele>148</ele>
        <time>2021-06-13T09:52:23Z</time>
      </trkpt>
      <trkpt lat="48.67793" lon="2.13972">
        <ele>146</ele>
        <time>2021-06-13T09:52:35Z</time>
      </trkpt>
      <trkpt lat="48.67793" lon="2.13998">
        <ele>142</ele>
        <time>2021-06-13T09:52:49Z</time>
      </trkpt>
      <trkpt lat="48.67791" lon="2.14004">
        <ele>140</ele>
        <time>2021-06-13T09:52:55Z</time>
      </trkpt>
      <trkpt lat="48.67791" lon="2.14003">
        <ele>141</ele>
        <time>2021-06-13T09:53:50Z</time>
      </trkpt>
      <trkpt lat="48.67785" lon="2.14002">
        <ele>141</ele>
        <time>2021-06-13T09:53:54Z</time>
      </trkpt>
      <trkpt lat="48.67778" lon="2.13999">
        <ele>143</ele>
        <time>2021-06-13T09:54:04Z</time>
      </trkpt>
      <trkpt lat="48.67766" lon="2.1399">
        <ele>145</ele>
        <time>2021-06-13T09:54:15Z</time>
      </trkpt>
      <trkpt lat="48.67761" lon="2.13982">
        <ele>145</ele>
        <time>2021-06-13T09:54:19Z</time>
      </trkpt>
      <trkpt lat="48.67763" lon="2.13985">
        <ele>144</ele>
        <time>2021-06-13T09:55:01Z</time>
      </trkpt>
      <trkpt lat="48.67768" lon="2.1399">
        <ele>143</ele>
        <time>2021-06-13T09:55:11Z</time>
      </trkpt>
      <trkpt lat="48.67776" lon="2.13998">
        <ele>143</ele>
        <time>2021-06-13T09:55:21Z</time>
      </trkpt>
      <trkpt lat="48.67782" lon="2.13996">
        <ele>142</ele>
        <time>2021-06-13T09:55:26Z</time>
      </trkpt>
      <trkpt lat="48.67787" lon="2.13999">
        <ele>141</ele>
        <time>2021-06-13T09:55:30Z</time>
      </trkpt>
      <trkpt lat="48.6779" lon="2.14005">
        <ele>140</ele>
        <time>2021-06-13T09:55:39Z</time>
      </trkpt>
      <trkpt lat="48.67767" lon="2.14031">
        <ele>137</ele>
        <time>2021-06-13T09:56:12Z</time>
      </trkpt>
      <trkpt lat="48.67747" lon="2.14073">
        <ele>129</ele>
        <time>2021-06-13T09:56:48Z</time>
      </trkpt>
      <trkpt lat="48.6774" lon="2.14081">
        <ele>128</ele>
        <time>2021-06-13T09:56:55Z</time>
      </trkpt>
      <trkpt lat="48.67706" lon="2.14107">
        <ele>128</ele>
        <time>2021-06-13T09:57:28Z</time>
      </trkpt>
      <trkpt lat="48.67699" lon="2.14114">
        <ele>128</ele>
        <time>2021-06-13T09:57:36Z</time>
      </trkpt>
      <trkpt lat="48.6769" lon="2.14128">
        <ele>130</ele>
        <time>2021-06-13T09:57:51Z</time>
      </trkpt>
      <trkpt lat="48.67679" lon="2.14135">
        <ele>131</ele>
        <time>2021-06-13T09:58:00Z</time>
      </trkpt>
      <trkpt lat="48.67667" lon="2.14132">
        <ele>133</ele>
        <time>2021-06-13T09:58:12Z</time>
      </trkpt>
      <trkpt lat="48.67641" lon="2.14134">
        <ele>137</ele>
        <time>2021-06-13T09:58:43Z</time>
      </trkpt>
      <trkpt lat="48.67631" lon="2.14134">
        <ele>139</ele>
        <time>2021-06-13T09:58:51Z</time>
      </trkpt>
      <trkpt lat="48.67624" lon="2.14137">
        <ele>139</ele>
        <time>2021-06-13T09:58:57Z</time>
      </trkpt>
      <trkpt lat="48.67624" lon="2.14123">
        <ele>139</ele>
        <time>2021-06-13T09:59:15Z</time>
      </trkpt>
      <trkpt lat="48.67622" lon="2.14132">
        <ele>140</ele>
        <time>2021-06-13T09:59:37Z</time>
      </trkpt>
      <trkpt lat="48.67618" lon="2.14152">
        <ele>143</ele>
        <time>2021-06-13T09:59:49Z</time>
      </trkpt>
      <trkpt lat="48.67615" lon="2.14163">
        <ele>146</ele>
        <time>2021-06-13T10:00:01Z</time>
      </trkpt>
      <trkpt lat="48.67606" lon="2.14175">
        <ele>149</ele>
        <time>2021-06-13T10:00:14Z</time>
      </trkpt>
      <trkpt lat="48.67601" lon="2.14183">
        <ele>152</ele>
        <time>2021-06-13T10:00:25Z</time>
      </trkpt>
      <trkpt lat="48.67598" lon="2.14182">
        <ele>153</ele>
        <time>2021-06-13T10:01:20Z</time>
      </trkpt>
      <trkpt lat="48.676" lon="2.14195">
        <ele>153</ele>
        <time>2021-06-13T10:02:06Z</time>
      </trkpt>
      <trkpt lat="48.67599" lon="2.14203">
        <ele>154</ele>
        <time>2021-06-13T10:02:12Z</time>
      </trkpt>
      <trkpt lat="48.67592" lon="2.14226">
        <ele>155</ele>
        <time>2021-06-13T10:02:24Z</time>
      </trkpt>
      <trkpt lat="48.6758" lon="2.14247">
        <ele>157</ele>
        <time>2021-06-13T10:02:37Z</time>
      </trkpt>
      <trkpt lat="48.67581" lon="2.14252">
        <ele>157</ele>
        <time>2021-06-13T10:03:02Z</time>
      </trkpt>
      <trkpt lat="48.67591" lon="2.14262">
        <ele>156</ele>
        <time>2021-06-13T10:03:35Z</time>
      </trkpt>
      <trkpt lat="48.67617" lon="2.14319">
        <ele>156</ele>
        <time>2021-06-13T10:04:10Z</time>
      </trkpt>
      <trkpt lat="48.67638" lon="2.14366">
        <ele>156</ele>
        <time>2021-06-13T10:04:39Z</time>
      </trkpt>
      <trkpt lat="48.67673" lon="2.14397">
        <ele>156</ele>
        <time>2021-06-13T10:05:09Z</time>
      </trkpt>
      <trkpt lat="48.67678" lon="2.14401">
        <ele>155</ele>
        <time>2021-06-13T10:05:14Z</time>
      </trkpt>
      <trkpt lat="48.67701" lon="2.14428">
        <ele>155</ele>
        <time>2021-06-13T10:05:35Z</time>
      </trkpt>
      <trkpt lat="48.6771" lon="2.14434">
        <ele>155</ele>
        <time>2021-06-13T10:05:44Z</time>
      </trkpt>
      <trkpt lat="48.67744" lon="2.14473">
        <ele>154</ele>
        <time>2021-06-13T10:06:15Z</time>
      </trkpt>
      <trkpt lat="48.67752" lon="2.14486">
        <ele>153</ele>
        <time>2021-06-13T10:06:25Z</time>
      </trkpt>
      <trkpt lat="48.67782" lon="2.14511">
        <ele>153</ele>
        <time>2021-06-13T10:06:50Z</time>
      </trkpt>
      <trkpt lat="48.67793" lon="2.14518">
        <ele>153</ele>
        <time>2021-06-13T10:07:00Z</time>
      </trkpt>
      <trkpt lat="48.67798" lon="2.14523">
        <ele>153</ele>
        <time>2021-06-13T10:07:04Z</time>
      </trkpt>
      <trkpt lat="48.67801" lon="2.14536">
        <ele>152</ele>
        <time>2021-06-13T10:07:14Z</time>
      </trkpt>
      <trkpt lat="48.67796" lon="2.14565">
        <ele>152</ele>
        <time>2021-06-13T10:07:28Z</time>
      </trkpt>
      <trkpt lat="48.67779" lon="2.14613">
        <ele>152</ele>
        <time>2021-06-13T10:07:56Z</time>
      </trkpt>
      <trkpt lat="48.67773" lon="2.14624">
        <ele>152</ele>
        <time>2021-06-13T10:08:03Z</time>
      </trkpt>
      <trkpt lat="48.67764" lon="2.14653">
        <ele>151</ele>
        <time>2021-06-13T10:08:21Z</time>
      </trkpt>
      <trkpt lat="48.67749" lon="2.14697">
        <ele>150</ele>
        <time>2021-06-13T10:08:54Z</time>
      </trkpt>
      <trkpt lat="48.67747" lon="2.14702">
        <ele>150</ele>
        <time>2021-06-13T10:08:57Z</time>
      </trkpt>
      <trkpt lat="48.67742" lon="2.14708">
        <ele>150</ele>
        <time>2021-06-13T10:09:01Z</time>
      </trkpt>
      <trkpt lat="48.67738" lon="2.14715">
        <ele>150</ele>
        <time>2021-06-13T10:09:05Z</time>
      </trkpt>
      <trkpt lat="48.67734" lon="2.1472">
        <ele>150</ele>
        <time>2021-06-13T10:09:09Z</time>
      </trkpt>
      <trkpt lat="48.6773" lon="2.14726">
        <ele>150</ele>
        <time>2021-06-13T10:09:13Z</time>
      </trkpt>
      <trkpt lat="48.67726" lon="2.14729">
        <ele>150</ele>
        <time>2021-06-13T10:09:17Z</time>
      </trkpt>
      <trkpt lat="48.67721" lon="2.14733">
        <ele>150</ele>
        <time>2021-06-13T10:09:22Z</time>
      </trkpt>
      <trkpt lat="48.67707" lon="2.14747">
        <ele>150</ele>
        <time>2021-06-13T10:09:35Z</time>
      </trkpt>
      <trkpt lat="48.67698" lon="2.14766">
        <ele>150</ele>
        <time>2021-06-13T10:09:46Z</time>
      </trkpt>
      <trkpt lat="48.67677" lon="2.148">
        <ele>150</ele>
        <time>2021-06-13T10:10:11Z</time>
      </trkpt>
      <trkpt lat="48.67673" lon="2.14805">
        <ele>151</ele>
        <time>2021-06-13T10:10:15Z</time>
      </trkpt>
      <trkpt lat="48.67655" lon="2.14845">
        <ele>152</ele>
        <time>2021-06-13T10:10:39Z</time>
      </trkpt>
      <trkpt lat="48.67637" lon="2.14873">
        <ele>152</ele>
        <time>2021-06-13T10:11:01Z</time>
      </trkpt>
      <trkpt lat="48.67631" lon="2.14874">
        <ele>153</ele>
        <time>2021-06-13T10:11:15Z</time>
      </trkpt>
      <trkpt lat="48.67627" lon="2.14879">
        <ele>153</ele>
        <time>2021-06-13T10:11:19Z</time>
      </trkpt>
      <trkpt lat="48.67623" lon="2.14884">
        <ele>153</ele>
        <time>2021-06-13T10:11:23Z</time>
      </trkpt>
      <trkpt lat="48.6762" lon="2.14888">
        <ele>154</ele>
        <time>2021-06-13T10:11:28Z</time>
      </trkpt>
      <trkpt lat="48.67616" lon="2.14891">
        <ele>154</ele>
        <time>2021-06-13T10:11:49Z</time>
      </trkpt>
      <trkpt lat="48.67612" lon="2.14884">
        <ele>153</ele>
        <time>2021-06-13T10:12:04Z</time>
      </trkpt>
      <trkpt lat="48.67614" lon="2.14877">
        <ele>154</ele>
        <time>2021-06-13T10:12:21Z</time>
      </trkpt>
      <trkpt lat="48.6761" lon="2.14873">
        <ele>153</ele>
        <time>2021-06-13T10:12:26Z</time>
      </trkpt>
      <trkpt lat="48.67602" lon="2.14859">
        <ele>154</ele>
        <time>2021-06-13T10:12:36Z</time>
      </trkpt>
      <trkpt lat="48.67593" lon="2.14863">
        <ele>154</ele>
        <time>2021-06-13T10:12:43Z</time>
      </trkpt>
      <trkpt lat="48.6759" lon="2.14871">
        <ele>155</ele>
        <time>2021-06-13T10:12:48Z</time>
      </trkpt>
      <trkpt lat="48.67584" lon="2.14873">
        <ele>154</ele>
        <time>2021-06-13T10:12:52Z</time>
      </trkpt>
      <trkpt lat="48.67576" lon="2.14883">
        <ele>154</ele>
        <time>2021-06-13T10:13:00Z</time>
      </trkpt>
      <trkpt lat="48.67563" lon="2.14894">
        <ele>154</ele>
        <time>2021-06-13T10:13:11Z</time>
      </trkpt>
      <trkpt lat="48.67553" lon="2.14897">
        <ele>153</ele>
        <time>2021-06-13T10:13:18Z</time>
      </trkpt>
      <trkpt lat="48.67549" lon="2.14898">
        <ele>153</ele>
        <time>2021-06-13T10:13:22Z</time>
      </trkpt>
      <trkpt lat="48.67544" lon="2.14899">
        <ele>153</ele>
        <time>2021-06-13T10:13:26Z</time>
      </trkpt>
      <trkpt lat="48.67539" lon="2.14899">
        <ele>153</ele>
        <time>2021-06-13T10:13:30Z</time>
      </trkpt>
      <trkpt lat="48.67534" lon="2.14898">
        <ele>153</ele>
        <time>2021-06-13T10:13:34Z</time>
      </trkpt>
      <trkpt lat="48.6753" lon="2.14894">
        <ele>153</ele>
        <time>2021-06-13T10:13:37Z</time>
      </trkpt>
      <trkpt lat="48.67527" lon="2.14887">
        <ele>153</ele>
        <time>2021-06-13T10:13:41Z</time>
      </trkpt>
      <trkpt lat="48.67522" lon="2.14884">
        <ele>153</ele>
        <time>2021-06-13T10:13:45Z</time>
      </trkpt>
      <trkpt lat="48.67512" lon="2.14877">
        <ele>153</ele>
        <time>2021-06-13T10:13:54Z</time>
      </trkpt>
      <trkpt lat="48.67497" lon="2.14871">
        <ele>153</ele>
        <time>2021-06-13T10:14:06Z</time>
      </trkpt>
      <trkpt lat="48.67493" lon="2.14866">
        <ele>153</ele>
        <time>2021-06-13T10:14:10Z</time>
      </trkpt>
      <trkpt lat="48.67489" lon="2.14865">
        <ele>154</ele>
        <time>2021-06-13T10:14:14Z</time>
      </trkpt>
      <trkpt lat="48.67478" lon="2.14855">
        <ele>154</ele>
        <time>2021-06-13T10:14:24Z</time>
      </trkpt>
      <trkpt lat="48.6746" lon="2.14842">
        <ele>155</ele>
        <time>2021-06-13T10:14:42Z</time>
      </trkpt>
      <trkpt lat="48.67456" lon="2.14841">
        <ele>155</ele>
        <time>2021-06-13T10:14:47Z</time>
      </trkpt>
      <trkpt lat="48.67454" lon="2.14833">
        <ele>155</ele>
        <time>2021-06-13T10:14:53Z</time>
      </trkpt>
      <trkpt lat="48.67448" lon="2.14821">
        <ele>155</ele>
        <time>2021-06-13T10:15:01Z</time>
      </trkpt>
      <trkpt lat="48.67444" lon="2.14816">
        <ele>156</ele>
        <time>2021-06-13T10:15:06Z</time>
      </trkpt>
      <trkpt lat="48.67438" lon="2.14817">
        <ele>156</ele>
        <time>2021-06-13T10:15:16Z</time>
      </trkpt>
      <trkpt lat="48.67429" lon="2.1481">
        <ele>156</ele>
        <time>2021-06-13T10:15:23Z</time>
      </trkpt>
      <trkpt lat="48.67423" lon="2.14805">
        <ele>156</ele>
        <time>2021-06-13T10:15:30Z</time>
      </trkpt>
      <trkpt lat="48.67418" lon="2.14802">
        <ele>156</ele>
        <time>2021-06-13T10:15:35Z</time>
      </trkpt>
      <trkpt lat="48.67378" lon="2.14775">
        <ele>157</ele>
        <time>2021-06-13T10:16:07Z</time>
      </trkpt>
      <trkpt lat="48.67373" lon="2.14772">
        <ele>158</ele>
        <time>2021-06-13T10:16:12Z</time>
      </trkpt>
      <trkpt lat="48.67369" lon="2.14767">
        <ele>158</ele>
        <time>2021-06-13T10:16:16Z</time>
      </trkpt>
      <trkpt lat="48.67332" lon="2.14745">
        <ele>159</ele>
        <time>2021-06-13T10:16:48Z</time>
      </trkpt>
      <trkpt lat="48.67327" lon="2.14748">
        <ele>159</ele>
        <time>2021-06-13T10:16:53Z</time>
      </trkpt>
      <trkpt lat="48.67323" lon="2.14756">
        <ele>160</ele>
        <time>2021-06-13T10:16:58Z</time>
      </trkpt>
      <trkpt lat="48.67322" lon="2.14764">
        <ele>159</ele>
        <time>2021-06-13T10:17:02Z</time>
      </trkpt>
      <trkpt lat="48.67319" lon="2.1477">
        <ele>159</ele>
        <time>2021-06-13T10:17:06Z</time>
      </trkpt>
      <trkpt lat="48.67319" lon="2.14779">
        <ele>160</ele>
        <time>2021-06-13T10:17:10Z</time>
      </trkpt>
      <trkpt lat="48.67317" lon="2.14787">
        <ele>160</ele>
        <time>2021-06-13T10:17:14Z</time>
      </trkpt>
      <trkpt lat="48.67316" lon="2.14796">
        <ele>158</ele>
        <time>2021-06-13T10:17:18Z</time>
      </trkpt>
      <trkpt lat="48.67315" lon="2.14803">
        <ele>159</ele>
        <time>2021-06-13T10:17:22Z</time>
      </trkpt>
      <trkpt lat="48.67312" lon="2.14819">
        <ele>158</ele>
        <time>2021-06-13T10:17:30Z</time>
      </trkpt>
      <trkpt lat="48.67311" lon="2.14826">
        <ele>159</ele>
        <time>2021-06-13T10:17:34Z</time>
      </trkpt>
      <trkpt lat="48.67304" lon="2.14857">
        <ele>159</ele>
        <time>2021-06-13T10:17:51Z</time>
      </trkpt>
      <trkpt lat="48.67304" lon="2.14864">
        <ele>159</ele>
        <time>2021-06-13T10:17:54Z</time>
      </trkpt>
      <trkpt lat="48.67303" lon="2.14871">
        <ele>158</ele>
        <time>2021-06-13T10:17:58Z</time>
      </trkpt>
      <trkpt lat="48.673" lon="2.14886">
        <ele>158</ele>
        <time>2021-06-13T10:18:06Z</time>
      </trkpt>
      <trkpt lat="48.67296" lon="2.14893">
        <ele>159</ele>
        <time>2021-06-13T10:18:10Z</time>
      </trkpt>
      <trkpt lat="48.67288" lon="2.14906">
        <ele>158</ele>
        <time>2021-06-13T10:18:21Z</time>
      </trkpt>
      <trkpt lat="48.67286" lon="2.14922">
        <ele>158</ele>
        <time>2021-06-13T10:18:30Z</time>
      </trkpt>
      <trkpt lat="48.67285" lon="2.14928">
        <ele>158</ele>
        <time>2021-06-13T10:18:33Z</time>
      </trkpt>
      <trkpt lat="48.67284" lon="2.14936">
        <ele>158</ele>
        <time>2021-06-13T10:18:38Z</time>
      </trkpt>
      <trkpt lat="48.67282" lon="2.14944">
        <ele>158</ele>
        <time>2021-06-13T10:18:42Z</time>
      </trkpt>
      <trkpt lat="48.67281" lon="2.14952">
        <ele>159</ele>
        <time>2021-06-13T10:18:46Z</time>
      </trkpt>
      <trkpt lat="48.67279" lon="2.1496">
        <ele>159</ele>
        <time>2021-06-13T10:18:50Z</time>
      </trkpt>
      <trkpt lat="48.67278" lon="2.14967">
        <ele>158</ele>
        <time>2021-06-13T10:18:54Z</time>
      </trkpt>
      <trkpt lat="48.67276" lon="2.14976">
        <ele>158</ele>
        <time>2021-06-13T10:18:58Z</time>
      </trkpt>
      <trkpt lat="48.67272" lon="2.14991">
        <ele>158</ele>
        <time>2021-06-13T10:19:07Z</time>
      </trkpt>
      <trkpt lat="48.67271" lon="2.14999">
        <ele>158</ele>
        <time>2021-06-13T10:19:11Z</time>
      </trkpt>
      <trkpt lat="48.67263" lon="2.15041">
        <ele>158</ele>
        <time>2021-06-13T10:19:33Z</time>
      </trkpt>
      <trkpt lat="48.6726" lon="2.15047">
        <ele>158</ele>
        <time>2021-06-13T10:19:37Z</time>
      </trkpt>
      <trkpt lat="48.67259" lon="2.15054">
        <ele>158</ele>
        <time>2021-06-13T10:19:40Z</time>
      </trkpt>
      <trkpt lat="48.67255" lon="2.15077">
        <ele>158</ele>
        <time>2021-06-13T10:19:52Z</time>
      </trkpt>
      <trkpt lat="48.67254" lon="2.15085">
        <ele>158</ele>
        <time>2021-06-13T10:19:56Z</time>
      </trkpt>
      <trkpt lat="48.67251" lon="2.15091">
        <ele>158</ele>
        <time>2021-06-13T10:20:00Z</time>
      </trkpt>
      <trkpt lat="48.6725" lon="2.151">
        <ele>158</ele>
        <time>2021-06-13T10:20:04Z</time>
      </trkpt>
      <trkpt lat="48.67247" lon="2.15116">
        <ele>158</ele>
        <time>2021-06-13T10:20:12Z</time>
      </trkpt>
      <trkpt lat="48.67243" lon="2.15138">
        <ele>158</ele>
        <time>2021-06-13T10:20:24Z</time>
      </trkpt>
      <trkpt lat="48.67242" lon="2.15145">
        <ele>158</ele>
        <time>2021-06-13T10:20:28Z</time>
      </trkpt>
      <trkpt lat="48.67239" lon="2.15152">
        <ele>158</ele>
        <time>2021-06-13T10:20:32Z</time>
      </trkpt>
      <trkpt lat="48.67233" lon="2.15152">
        <ele>157</ele>
        <time>2021-06-13T10:20:36Z</time>
      </trkpt>
      <trkpt lat="48.67228" lon="2.15151">
        <ele>158</ele>
        <time>2021-06-13T10:20:40Z</time>
      </trkpt>
      <trkpt lat="48.67223" lon="2.15147">
        <ele>158</ele>
        <time>2021-06-13T10:20:44Z</time>
      </trkpt>
      <trkpt lat="48.6722" lon="2.15142">
        <ele>158</ele>
        <time>2021-06-13T10:20:48Z</time>
      </trkpt>
      <trkpt lat="48.67205" lon="2.15154">
        <ele>159</ele>
        <time>2021-06-13T10:21:25Z</time>
      </trkpt>
      <trkpt lat="48.67202" lon="2.15162">
        <ele>158</ele>
        <time>2021-06-13T10:21:29Z</time>
      </trkpt>
      <trkpt lat="48.67204" lon="2.15167">
        <ele>159</ele>
        <time>2021-06-13T10:21:33Z</time>
      </trkpt>
      <trkpt lat="48.67205" lon="2.15175">
        <ele>159</ele>
        <time>2021-06-13T10:21:38Z</time>
      </trkpt>
      <trkpt lat="48.67205" lon="2.15183">
        <ele>159</ele>
        <time>2021-06-13T10:21:42Z</time>
      </trkpt>
      <trkpt lat="48.67206" lon="2.15198">
        <ele>159</ele>
        <time>2021-06-13T10:21:50Z</time>
      </trkpt>
      <trkpt lat="48.67207" lon="2.15205">
        <ele>159</ele>
        <time>2021-06-13T10:21:55Z</time>
      </trkpt>
      <trkpt lat="48.67211" lon="2.15227">
        <ele>159</ele>
        <time>2021-06-13T10:22:08Z</time>
      </trkpt>
      <trkpt lat="48.67209" lon="2.15235">
        <ele>159</ele>
        <time>2021-06-13T10:22:13Z</time>
      </trkpt>
      <trkpt lat="48.67208" lon="2.15244">
        <ele>159</ele>
        <time>2021-06-13T10:22:18Z</time>
      </trkpt>
      <trkpt lat="48.6721" lon="2.15251">
        <ele>159</ele>
        <time>2021-06-13T10:22:22Z</time>
      </trkpt>
      <trkpt lat="48.6721" lon="2.1526">
        <ele>159</ele>
        <time>2021-06-13T10:22:27Z</time>
      </trkpt>
      <trkpt lat="48.67211" lon="2.15268">
        <ele>159</ele>
        <time>2021-06-13T10:22:31Z</time>
      </trkpt>
      <trkpt lat="48.67211" lon="2.15276">
        <ele>159</ele>
        <time>2021-06-13T10:22:36Z</time>
      </trkpt>
      <trkpt lat="48.67207" lon="2.1529">
        <ele>159</ele>
        <time>2021-06-13T10:22:44Z</time>
      </trkpt>
      <trkpt lat="48.67202" lon="2.15303">
        <ele>159</ele>
        <time>2021-06-13T10:22:53Z</time>
      </trkpt>
      <trkpt lat="48.672" lon="2.15311">
        <ele>159</ele>
        <time>2021-06-13T10:22:57Z</time>
      </trkpt>
      <trkpt lat="48.67197" lon="2.15318">
        <ele>159</ele>
        <time>2021-06-13T10:23:01Z</time>
      </trkpt>
      <trkpt lat="48.67193" lon="2.15324">
        <ele>159</ele>
        <time>2021-06-13T10:23:05Z</time>
      </trkpt>
      <trkpt lat="48.67191" lon="2.1533">
        <ele>159</ele>
        <time>2021-06-13T10:23:09Z</time>
      </trkpt>
      <trkpt lat="48.67175" lon="2.15389">
        <ele>160</ele>
        <time>2021-06-13T10:23:41Z</time>
      </trkpt>
      <trkpt lat="48.67173" lon="2.15403">
        <ele>160</ele>
        <time>2021-06-13T10:23:49Z</time>
      </trkpt>
      <trkpt lat="48.67171" lon="2.15428">
        <ele>160</ele>
        <time>2021-06-13T10:24:02Z</time>
      </trkpt>
      <trkpt lat="48.67169" lon="2.15438">
        <ele>160</ele>
        <time>2021-06-13T10:24:08Z</time>
      </trkpt>
      <trkpt lat="48.67169" lon="2.15445">
        <ele>160</ele>
        <time>2021-06-13T10:24:12Z</time>
      </trkpt>
      <trkpt lat="48.67169" lon="2.15452">
        <ele>160</ele>
        <time>2021-06-13T10:24:16Z</time>
      </trkpt>
      <trkpt lat="48.67163" lon="2.15482">
        <ele>160</ele>
        <time>2021-06-13T10:24:32Z</time>
      </trkpt>
      <trkpt lat="48.67157" lon="2.15484">
        <ele>159</ele>
        <time>2021-06-13T10:24:37Z</time>
      </trkpt>
      <trkpt lat="48.67147" lon="2.15484">
        <ele>160</ele>
        <time>2021-06-13T10:24:44Z</time>
      </trkpt>
      <trkpt lat="48.67142" lon="2.15481">
        <ele>160</ele>
        <time>2021-06-13T10:24:48Z</time>
      </trkpt>
      <trkpt lat="48.67136" lon="2.15478">
        <ele>160</ele>
        <time>2021-06-13T10:24:52Z</time>
      </trkpt>
      <trkpt lat="48.67133" lon="2.15474">
        <ele>160</ele>
        <time>2021-06-13T10:24:55Z</time>
      </trkpt>
      <trkpt lat="48.67118" lon="2.15466">
        <ele>160</ele>
        <time>2021-06-13T10:25:06Z</time>
      </trkpt>
      <trkpt lat="48.67108" lon="2.15462">
        <ele>160</ele>
        <time>2021-06-13T10:25:14Z</time>
      </trkpt>
      <trkpt lat="48.67097" lon="2.15455">
        <ele>161</ele>
        <time>2021-06-13T10:25:23Z</time>
      </trkpt>
      <trkpt lat="48.67092" lon="2.1545">
        <ele>161</ele>
        <time>2021-06-13T10:25:28Z</time>
      </trkpt>
      <trkpt lat="48.67086" lon="2.15448">
        <ele>161</ele>
        <time>2021-06-13T10:25:32Z</time>
      </trkpt>
      <trkpt lat="48.67082" lon="2.15443">
        <ele>162</ele>
        <time>2021-06-13T10:25:37Z</time>
      </trkpt>
      <trkpt lat="48.67071" lon="2.1544">
        <ele>161</ele>
        <time>2021-06-13T10:25:45Z</time>
      </trkpt>
      <trkpt lat="48.67066" lon="2.15437">
        <ele>162</ele>
        <time>2021-06-13T10:25:50Z</time>
      </trkpt>
      <trkpt lat="48.67057" lon="2.15433">
        <ele>162</ele>
        <time>2021-06-13T10:25:57Z</time>
      </trkpt>
      <trkpt lat="48.67051" lon="2.15432">
        <ele>162</ele>
        <time>2021-06-13T10:26:01Z</time>
      </trkpt>
      <trkpt lat="48.67046" lon="2.15429">
        <ele>162</ele>
        <time>2021-06-13T10:26:06Z</time>
      </trkpt>
      <trkpt lat="48.67042" lon="2.15427">
        <ele>162</ele>
        <time>2021-06-13T10:26:09Z</time>
      </trkpt>
      <trkpt lat="48.67027" lon="2.15417">
        <ele>163</ele>
        <time>2021-06-13T10:26:21Z</time>
      </trkpt>
      <trkpt lat="48.67022" lon="2.15414">
        <ele>163</ele>
        <time>2021-06-13T10:26:24Z</time>
      </trkpt>
      <trkpt lat="48.67019" lon="2.15409">
        <ele>163</ele>
        <time>2021-06-13T10:26:27Z</time>
      </trkpt>
      <trkpt lat="48.67015" lon="2.15407">
        <ele>163</ele>
        <time>2021-06-13T10:26:30Z</time>
      </trkpt>
      <trkpt lat="48.6701" lon="2.15404">
        <ele>163</ele>
        <time>2021-06-13T10:26:34Z</time>
      </trkpt>
      <trkpt lat="48.67006" lon="2.15401">
        <ele>163</ele>
        <time>2021-06-13T10:26:37Z</time>
      </trkpt>
      <trkpt lat="48.67001" lon="2.15399">
        <ele>163</ele>
        <time>2021-06-13T10:26:41Z</time>
      </trkpt>
      <trkpt lat="48.66996" lon="2.15396">
        <ele>163</ele>
        <time>2021-06-13T10:26:45Z</time>
      </trkpt>
      <trkpt lat="48.66986" lon="2.15391">
        <ele>163</ele>
        <time>2021-06-13T10:26:53Z</time>
      </trkpt>
      <trkpt lat="48.66982" lon="2.1539">
        <ele>163</ele>
        <time>2021-06-13T10:26:56Z</time>
      </trkpt>
      <trkpt lat="48.66973" lon="2.15385">
        <ele>163</ele>
        <time>2021-06-13T10:27:03Z</time>
      </trkpt>
      <trkpt lat="48.66958" lon="2.15378">
        <ele>163</ele>
        <time>2021-06-13T10:27:15Z</time>
      </trkpt>
      <trkpt lat="48.66943" lon="2.15369">
        <ele>164</ele>
        <time>2021-06-13T10:27:27Z</time>
      </trkpt>
      <trkpt lat="48.66938" lon="2.15366">
        <ele>164</ele>
        <time>2021-06-13T10:27:31Z</time>
      </trkpt>
      <trkpt lat="48.66894" lon="2.15344">
        <ele>164</ele>
        <time>2021-06-13T10:28:05Z</time>
      </trkpt>
      <trkpt lat="48.66886" lon="2.15337">
        <ele>164</ele>
        <time>2021-06-13T10:28:12Z</time>
      </trkpt>
      <trkpt lat="48.66877" lon="2.15333">
        <ele>165</ele>
        <time>2021-06-13T10:28:19Z</time>
      </trkpt>
      <trkpt lat="48.66873" lon="2.1533">
        <ele>165</ele>
        <time>2021-06-13T10:28:22Z</time>
      </trkpt>
      <trkpt lat="48.66843" lon="2.15311">
        <ele>165</ele>
        <time>2021-06-13T10:28:46Z</time>
      </trkpt>
      <trkpt lat="48.66839" lon="2.15306">
        <ele>165</ele>
        <time>2021-06-13T10:28:50Z</time>
      </trkpt>
      <trkpt lat="48.66835" lon="2.15302">
        <ele>165</ele>
        <time>2021-06-13T10:28:54Z</time>
      </trkpt>
      <trkpt lat="48.66823" lon="2.15283">
        <ele>166</ele>
        <time>2021-06-13T10:29:13Z</time>
      </trkpt>
      <trkpt lat="48.66819" lon="2.15264">
        <ele>166</ele>
        <time>2021-06-13T10:29:44Z</time>
      </trkpt>
      <trkpt lat="48.66815" lon="2.15241">
        <ele>166</ele>
        <time>2021-06-13T10:29:55Z</time>
      </trkpt>
      <trkpt lat="48.66813" lon="2.15234">
        <ele>166</ele>
        <time>2021-06-13T10:29:59Z</time>
      </trkpt>
      <trkpt lat="48.66811" lon="2.15227">
        <ele>166</ele>
        <time>2021-06-13T10:30:02Z</time>
      </trkpt>
      <trkpt lat="48.66803" lon="2.15162">
        <ele>166</ele>
        <time>2021-06-13T10:30:35Z</time>
      </trkpt>
      <trkpt lat="48.66801" lon="2.15153">
        <ele>166</ele>
        <time>2021-06-13T10:30:39Z</time>
      </trkpt>
      <trkpt lat="48.668" lon="2.15145">
        <ele>166</ele>
        <time>2021-06-13T10:30:43Z</time>
      </trkpt>
      <trkpt lat="48.668" lon="2.15138">
        <ele>166</ele>
        <time>2021-06-13T10:30:47Z</time>
      </trkpt>
      <trkpt lat="48.66798" lon="2.15121">
        <ele>167</ele>
        <time>2021-06-13T10:30:55Z</time>
      </trkpt>
      <trkpt lat="48.66796" lon="2.15107">
        <ele>166</ele>
        <time>2021-06-13T10:31:02Z</time>
      </trkpt>
      <trkpt lat="48.66794" lon="2.15099">
        <ele>166</ele>
        <time>2021-06-13T10:31:06Z</time>
      </trkpt>
      <trkpt lat="48.66794" lon="2.15092">
        <ele>166</ele>
        <time>2021-06-13T10:31:09Z</time>
      </trkpt>
      <trkpt lat="48.66788" lon="2.15033">
        <ele>167</ele>
        <time>2021-06-13T10:31:40Z</time>
      </trkpt>
      <trkpt lat="48.66777" lon="2.14969">
        <ele>167</ele>
        <time>2021-06-13T10:32:12Z</time>
      </trkpt>
      <trkpt lat="48.66776" lon="2.14961">
        <ele>168</ele>
        <time>2021-06-13T10:32:16Z</time>
      </trkpt>
      <trkpt lat="48.66775" lon="2.14952">
        <ele>168</ele>
        <time>2021-06-13T10:32:19Z</time>
      </trkpt>
      <trkpt lat="48.66776" lon="2.14945">
        <ele>168</ele>
        <time>2021-06-13T10:32:22Z</time>
      </trkpt>
      <trkpt lat="48.66775" lon="2.14938">
        <ele>168</ele>
        <time>2021-06-13T10:32:25Z</time>
      </trkpt>
      <trkpt lat="48.66774" lon="2.1493">
        <ele>168</ele>
        <time>2021-06-13T10:32:29Z</time>
      </trkpt>
      <trkpt lat="48.66766" lon="2.14863">
        <ele>169</ele>
        <time>2021-06-13T10:33:02Z</time>
      </trkpt>
      <trkpt lat="48.66755" lon="2.14809">
        <ele>170</ele>
        <time>2021-06-13T10:33:30Z</time>
      </trkpt>
      <trkpt lat="48.66755" lon="2.14801">
        <ele>170</ele>
        <time>2021-06-13T10:33:34Z</time>
      </trkpt>
      <trkpt lat="48.66754" lon="2.14793">
        <ele>170</ele>
        <time>2021-06-13T10:33:38Z</time>
      </trkpt>
      <trkpt lat="48.66742" lon="2.14731">
        <ele>171</ele>
        <time>2021-06-13T10:34:10Z</time>
      </trkpt>
      <trkpt lat="48.66741" lon="2.14724">
        <ele>171</ele>
        <time>2021-06-13T10:34:13Z</time>
      </trkpt>
      <trkpt lat="48.66733" lon="2.14696">
        <ele>171</ele>
        <time>2021-06-13T10:34:28Z</time>
      </trkpt>
      <trkpt lat="48.66726" lon="2.14666">
        <ele>171</ele>
        <time>2021-06-13T10:34:43Z</time>
      </trkpt>
      <trkpt lat="48.66725" lon="2.14659">
        <ele>171</ele>
        <time>2021-06-13T10:34:47Z</time>
      </trkpt>
      <trkpt lat="48.66724" lon="2.14653">
        <ele>171</ele>
        <time>2021-06-13T10:34:50Z</time>
      </trkpt>
      <trkpt lat="48.66723" lon="2.14645">
        <ele>171</ele>
        <time>2021-06-13T10:34:54Z</time>
      </trkpt>
      <trkpt lat="48.66723" lon="2.1463">
        <ele>171</ele>
        <time>2021-06-13T10:35:01Z</time>
      </trkpt>
      <trkpt lat="48.66723" lon="2.14614">
        <ele>171</ele>
        <time>2021-06-13T10:35:08Z</time>
      </trkpt>
      <trkpt lat="48.66723" lon="2.14605">
        <ele>171</ele>
        <time>2021-06-13T10:35:12Z</time>
      </trkpt>
      <trkpt lat="48.66726" lon="2.1459">
        <ele>171</ele>
        <time>2021-06-13T10:35:19Z</time>
      </trkpt>
      <trkpt lat="48.66728" lon="2.14583">
        <ele>171</ele>
        <time>2021-06-13T10:35:23Z</time>
      </trkpt>
      <trkpt lat="48.66729" lon="2.14575">
        <ele>171</ele>
        <time>2021-06-13T10:35:26Z</time>
      </trkpt>
      <trkpt lat="48.6674" lon="2.14524">
        <ele>171</ele>
        <time>2021-06-13T10:35:52Z</time>
      </trkpt>
      <trkpt lat="48.66744" lon="2.14516">
        <ele>171</ele>
        <time>2021-06-13T10:35:56Z</time>
      </trkpt>
      <trkpt lat="48.66744" lon="2.14507">
        <ele>171</ele>
        <time>2021-06-13T10:36:00Z</time>
      </trkpt>
      <trkpt lat="48.66747" lon="2.14491">
        <ele>171</ele>
        <time>2021-06-13T10:36:08Z</time>
      </trkpt>
      <trkpt lat="48.66749" lon="2.14483">
        <ele>171</ele>
        <time>2021-06-13T10:36:12Z</time>
      </trkpt>
      <trkpt lat="48.66749" lon="2.14475">
        <ele>170</ele>
        <time>2021-06-13T10:36:16Z</time>
      </trkpt>
      <trkpt lat="48.66749" lon="2.14468">
        <ele>171</ele>
        <time>2021-06-13T10:36:19Z</time>
      </trkpt>
      <trkpt lat="48.66749" lon="2.1446">
        <ele>170</ele>
        <time>2021-06-13T10:36:23Z</time>
      </trkpt>
      <trkpt lat="48.66749" lon="2.14452">
        <ele>171</ele>
        <time>2021-06-13T10:36:27Z</time>
      </trkpt>
      <trkpt lat="48.66748" lon="2.14435">
        <ele>170</ele>
        <time>2021-06-13T10:36:35Z</time>
      </trkpt>
      <trkpt lat="48.66746" lon="2.14429">
        <ele>170</ele>
        <time>2021-06-13T10:36:39Z</time>
      </trkpt>
      <trkpt lat="48.66745" lon="2.1442">
        <ele>170</ele>
        <time>2021-06-13T10:36:43Z</time>
      </trkpt>
      <trkpt lat="48.66743" lon="2.14414">
        <ele>170</ele>
        <time>2021-06-13T10:36:46Z</time>
      </trkpt>
      <trkpt lat="48.66742" lon="2.14406">
        <ele>170</ele>
        <time>2021-06-13T10:36:50Z</time>
      </trkpt>
      <trkpt lat="48.66741" lon="2.14399">
        <ele>170</ele>
        <time>2021-06-13T10:36:53Z</time>
      </trkpt>
      <trkpt lat="48.66733" lon="2.14354">
        <ele>170</ele>
        <time>2021-06-13T10:37:15Z</time>
      </trkpt>
      <trkpt lat="48.66731" lon="2.14348">
        <ele>170</ele>
        <time>2021-06-13T10:37:18Z</time>
      </trkpt>
      <trkpt lat="48.66729" lon="2.14341">
        <ele>170</ele>
        <time>2021-06-13T10:37:21Z</time>
      </trkpt>
      <trkpt lat="48.66729" lon="2.14335">
        <ele>170</ele>
        <time>2021-06-13T10:37:25Z</time>
      </trkpt>
      <trkpt lat="48.66715" lon="2.14273">
        <ele>169</ele>
        <time>2021-06-13T10:37:56Z</time>
      </trkpt>
      <trkpt lat="48.66713" lon="2.14265">
        <ele>168</ele>
        <time>2021-06-13T10:38:00Z</time>
      </trkpt>
      <trkpt lat="48.66712" lon="2.14257">
        <ele>169</ele>
        <time>2021-06-13T10:38:04Z</time>
      </trkpt>
      <trkpt lat="48.66709" lon="2.14249">
        <ele>168</ele>
        <time>2021-06-13T10:38:08Z</time>
      </trkpt>
      <trkpt lat="48.66707" lon="2.14242">
        <ele>169</ele>
        <time>2021-06-13T10:38:12Z</time>
      </trkpt>
      <trkpt lat="48.66691" lon="2.14173">
        <ele>168</ele>
        <time>2021-06-13T10:38:45Z</time>
      </trkpt>
      <trkpt lat="48.66689" lon="2.14164">
        <ele>168</ele>
        <time>2021-06-13T10:38:49Z</time>
      </trkpt>
      <trkpt lat="48.66677" lon="2.14102">
        <ele>166</ele>
        <time>2021-06-13T10:39:21Z</time>
      </trkpt>
      <trkpt lat="48.66672" lon="2.14079">
        <ele>166</ele>
        <time>2021-06-13T10:39:32Z</time>
      </trkpt>
      <trkpt lat="48.66671" lon="2.14065">
        <ele>166</ele>
        <time>2021-06-13T10:39:38Z</time>
      </trkpt>
      <trkpt lat="48.6667" lon="2.14058">
        <ele>166</ele>
        <time>2021-06-13T10:39:42Z</time>
      </trkpt>
      <trkpt lat="48.66671" lon="2.14051">
        <ele>166</ele>
        <time>2021-06-13T10:39:45Z</time>
      </trkpt>
      <trkpt lat="48.66668" lon="2.14042">
        <ele>166</ele>
        <time>2021-06-13T10:39:49Z</time>
      </trkpt>
      <trkpt lat="48.66668" lon="2.14033">
        <ele>165</ele>
        <time>2021-06-13T10:39:53Z</time>
      </trkpt>
      <trkpt lat="48.66667" lon="2.14024">
        <ele>165</ele>
        <time>2021-06-13T10:39:57Z</time>
      </trkpt>
      <trkpt lat="48.66668" lon="2.13999">
        <ele>165</ele>
        <time>2021-06-13T10:40:11Z</time>
      </trkpt>
      <trkpt lat="48.66669" lon="2.13991">
        <ele>165</ele>
        <time>2021-06-13T10:40:15Z</time>
      </trkpt>
      <trkpt lat="48.66669" lon="2.13983">
        <ele>164</ele>
        <time>2021-06-13T10:40:19Z</time>
      </trkpt>
      <trkpt lat="48.66671" lon="2.13976">
        <ele>164</ele>
        <time>2021-06-13T10:40:23Z</time>
      </trkpt>
      <trkpt lat="48.66672" lon="2.13967">
        <ele>164</ele>
        <time>2021-06-13T10:40:27Z</time>
      </trkpt>
      <trkpt lat="48.66674" lon="2.13952">
        <ele>164</ele>
        <time>2021-06-13T10:40:35Z</time>
      </trkpt>
      <trkpt lat="48.66677" lon="2.13944">
        <ele>164</ele>
        <time>2021-06-13T10:40:39Z</time>
      </trkpt>
      <trkpt lat="48.66681" lon="2.13911">
        <ele>164</ele>
        <time>2021-06-13T10:40:55Z</time>
      </trkpt>
      <trkpt lat="48.66685" lon="2.13896">
        <ele>163</ele>
        <time>2021-06-13T10:41:02Z</time>
      </trkpt>
      <trkpt lat="48.66687" lon="2.13889">
        <ele>164</ele>
        <time>2021-06-13T10:41:06Z</time>
      </trkpt>
      <trkpt lat="48.66693" lon="2.13841">
        <ele>163</ele>
        <time>2021-06-13T10:41:31Z</time>
      </trkpt>
      <trkpt lat="48.66695" lon="2.13834">
        <ele>163</ele>
        <time>2021-06-13T10:41:35Z</time>
      </trkpt>
      <trkpt lat="48.66698" lon="2.13817">
        <ele>163</ele>
        <time>2021-06-13T10:41:45Z</time>
      </trkpt>
      <trkpt lat="48.667" lon="2.13807">
        <ele>163</ele>
        <time>2021-06-13T10:41:49Z</time>
      </trkpt>
      <trkpt lat="48.66702" lon="2.138">
        <ele>163</ele>
        <time>2021-06-13T10:41:53Z</time>
      </trkpt>
      <trkpt lat="48.66705" lon="2.13806">
        <ele>164</ele>
        <time>2021-06-13T10:42:01Z</time>
      </trkpt>
      <trkpt lat="48.66709" lon="2.13796">
        <ele>163</ele>
        <time>2021-06-13T10:42:54Z</time>
      </trkpt>
      <trkpt lat="48.6671" lon="2.13779">
        <ele>163</ele>
        <time>2021-06-13T10:43:03Z</time>
      </trkpt>
      <trkpt lat="48.66719" lon="2.13742">
        <ele>163</ele>
        <time>2021-06-13T10:43:22Z</time>
      </trkpt>
      <trkpt lat="48.66726" lon="2.13729">
        <ele>163</ele>
        <time>2021-06-13T10:43:31Z</time>
      </trkpt>
      <trkpt lat="48.66727" lon="2.13721">
        <ele>163</ele>
        <time>2021-06-13T10:43:36Z</time>
      </trkpt>
      <trkpt lat="48.66728" lon="2.13707">
        <ele>162</ele>
        <time>2021-06-13T10:44:03Z</time>
      </trkpt>
      <trkpt lat="48.66725" lon="2.13715">
        <ele>162</ele>
        <time>2021-06-13T10:44:21Z</time>
      </trkpt>
      <trkpt lat="48.66729" lon="2.13713">
        <ele>162</ele>
        <time>2021-06-13T10:45:09Z</time>
      </trkpt>
      <trkpt lat="48.66733" lon="2.13708">
        <ele>162</ele>
        <time>2021-06-13T10:45:13Z</time>
      </trkpt>
      <trkpt lat="48.66735" lon="2.13701">
        <ele>163</ele>
        <time>2021-06-13T10:45:17Z</time>
      </trkpt>
      <trkpt lat="48.66741" lon="2.1368">
        <ele>163</ele>
        <time>2021-06-13T10:45:28Z</time>
      </trkpt>
      <trkpt lat="48.66738" lon="2.1367">
        <ele>163</ele>
        <time>2021-06-13T10:45:46Z</time>
      </trkpt>
      <trkpt lat="48.66734" lon="2.13664">
        <ele>163</ele>
        <time>2021-06-13T10:45:51Z</time>
      </trkpt>
      <trkpt lat="48.66709" lon="2.13637">
        <ele>160</ele>
        <time>2021-06-13T10:46:15Z</time>
      </trkpt>
      <trkpt lat="48.66694" lon="2.13603">
        <ele>158</ele>
        <time>2021-06-13T10:46:34Z</time>
      </trkpt>
      <trkpt lat="48.66691" lon="2.13599">
        <ele>158</ele>
        <time>2021-06-13T10:46:37Z</time>
      </trkpt>
      <trkpt lat="48.66687" lon="2.13591">
        <ele>158</ele>
        <time>2021-06-13T10:46:41Z</time>
      </trkpt>
      <trkpt lat="48.66666" lon="2.13535">
        <ele>155</ele>
        <time>2021-06-13T10:47:13Z</time>
      </trkpt>
      <trkpt lat="48.66653" lon="2.13477">
        <ele>153</ele>
        <time>2021-06-13T10:47:45Z</time>
      </trkpt>
      <trkpt lat="48.66651" lon="2.1347">
        <ele>153</ele>
        <time>2021-06-13T10:47:49Z</time>
      </trkpt>
      <trkpt lat="48.66651" lon="2.13457">
        <ele>153</ele>
        <time>2021-06-13T10:47:56Z</time>
      </trkpt>
      <trkpt lat="48.66638" lon="2.1343">
        <ele>153</ele>
        <time>2021-06-13T10:48:13Z</time>
      </trkpt>
      <trkpt lat="48.66629" lon="2.13421">
        <ele>152</ele>
        <time>2021-06-13T10:48:21Z</time>
      </trkpt>
      <trkpt lat="48.66603" lon="2.13427">
        <ele>152</ele>
        <time>2021-06-13T10:48:39Z</time>
      </trkpt>
      <trkpt lat="48.66598" lon="2.13426">
        <ele>152</ele>
        <time>2021-06-13T10:48:44Z</time>
      </trkpt>
      <trkpt lat="48.66579" lon="2.13427">
        <ele>152</ele>
        <time>2021-06-13T10:48:58Z</time>
      </trkpt>
      <trkpt lat="48.66537" lon="2.13429">
        <ele>153</ele>
        <time>2021-06-13T10:49:30Z</time>
      </trkpt>
      <trkpt lat="48.66497" lon="2.13436">
        <ele>154</ele>
        <time>2021-06-13T10:50:00Z</time>
      </trkpt>
      <trkpt lat="48.66486" lon="2.13436">
        <ele>155</ele>
        <time>2021-06-13T10:50:08Z</time>
      </trkpt>
      <trkpt lat="48.66462" lon="2.13439">
        <ele>156</ele>
        <time>2021-06-13T10:50:26Z</time>
      </trkpt>
      <trkpt lat="48.66457" lon="2.13438">
        <ele>156</ele>
        <time>2021-06-13T10:50:30Z</time>
      </trkpt>
      <trkpt lat="48.66426" lon="2.13443">
        <ele>157</ele>
        <time>2021-06-13T10:50:52Z</time>
      </trkpt>
      <trkpt lat="48.66422" lon="2.1344">
        <ele>157</ele>
        <time>2021-06-13T10:50:55Z</time>
      </trkpt>
      <trkpt lat="48.66383" lon="2.13448">
        <ele>158</ele>
        <time>2021-06-13T10:51:25Z</time>
      </trkpt>
      <trkpt lat="48.66378" lon="2.13447">
        <ele>158</ele>
        <time>2021-06-13T10:51:29Z</time>
      </trkpt>
      <trkpt lat="48.66362" lon="2.1345">
        <ele>158</ele>
        <time>2021-06-13T10:51:40Z</time>
      </trkpt>
      <trkpt lat="48.66354" lon="2.13456">
        <ele>158</ele>
        <time>2021-06-13T10:51:46Z</time>
      </trkpt>
      <trkpt lat="48.66315" lon="2.13473">
        <ele>159</ele>
        <time>2021-06-13T10:52:16Z</time>
      </trkpt>
      <trkpt lat="48.66294" lon="2.13483">
        <ele>159</ele>
        <time>2021-06-13T10:52:32Z</time>
      </trkpt>
      <trkpt lat="48.66289" lon="2.13486">
        <ele>159</ele>
        <time>2021-06-13T10:52:36Z</time>
      </trkpt>
      <trkpt lat="48.66256" lon="2.13508">
        <ele>160</ele>
        <time>2021-06-13T10:53:02Z</time>
      </trkpt>
      <trkpt lat="48.66251" lon="2.13513">
        <ele>160</ele>
        <time>2021-06-13T10:53:06Z</time>
      </trkpt>
      <trkpt lat="48.66243" lon="2.13519">
        <ele>160</ele>
        <time>2021-06-13T10:53:13Z</time>
      </trkpt>
      <trkpt lat="48.66239" lon="2.13523">
        <ele>159</ele>
        <time>2021-06-13T10:53:17Z</time>
      </trkpt>
      <trkpt lat="48.66203" lon="2.13556">
        <ele>160</ele>
        <time>2021-06-13T10:53:48Z</time>
      </trkpt>
      <trkpt lat="48.66198" lon="2.13559">
        <ele>160</ele>
        <time>2021-06-13T10:53:52Z</time>
      </trkpt>
      <trkpt lat="48.66178" lon="2.13579">
        <ele>160</ele>
        <time>2021-06-13T10:54:11Z</time>
      </trkpt>
      <trkpt lat="48.66173" lon="2.13582">
        <ele>160</ele>
        <time>2021-06-13T10:54:15Z</time>
      </trkpt>
      <trkpt lat="48.66169" lon="2.13586">
        <ele>160</ele>
        <time>2021-06-13T10:54:19Z</time>
      </trkpt>
      <trkpt lat="48.66133" lon="2.13621">
        <ele>159</ele>
        <time>2021-06-13T10:54:51Z</time>
      </trkpt>
      <trkpt lat="48.66129" lon="2.13626">
        <ele>159</ele>
        <time>2021-06-13T10:54:55Z</time>
      </trkpt>
      <trkpt lat="48.66116" lon="2.13638">
        <ele>159</ele>
        <time>2021-06-13T10:55:07Z</time>
      </trkpt>
      <trkpt lat="48.66107" lon="2.13645">
        <ele>159</ele>
        <time>2021-06-13T10:55:15Z</time>
      </trkpt>
      <trkpt lat="48.66102" lon="2.13649">
        <ele>158</ele>
        <time>2021-06-13T10:55:19Z</time>
      </trkpt>
      <trkpt lat="48.66094" lon="2.13659">
        <ele>158</ele>
        <time>2021-06-13T10:55:27Z</time>
      </trkpt>
      <trkpt lat="48.6606" lon="2.13693">
        <ele>157</ele>
        <time>2021-06-13T10:55:59Z</time>
      </trkpt>
      <trkpt lat="48.66042" lon="2.1371">
        <ele>156</ele>
        <time>2021-06-13T10:56:16Z</time>
      </trkpt>
      <trkpt lat="48.66038" lon="2.13716">
        <ele>156</ele>
        <time>2021-06-13T10:56:20Z</time>
      </trkpt>
      <trkpt lat="48.66034" lon="2.13719">
        <ele>156</ele>
        <time>2021-06-13T10:56:24Z</time>
      </trkpt>
      <trkpt lat="48.66026" lon="2.13729">
        <ele>156</ele>
        <time>2021-06-13T10:56:31Z</time>
      </trkpt>
      <trkpt lat="48.66014" lon="2.13754">
        <ele>156</ele>
        <time>2021-06-13T10:56:46Z</time>
      </trkpt>
      <trkpt lat="48.66013" lon="2.13762">
        <ele>156</ele>
        <time>2021-06-13T10:56:50Z</time>
      </trkpt>
      <trkpt lat="48.6601" lon="2.13775">
        <ele>156</ele>
        <time>2021-06-13T10:56:58Z</time>
      </trkpt>
      <trkpt lat="48.66008" lon="2.13799">
        <ele>156</ele>
        <time>2021-06-13T10:57:12Z</time>
      </trkpt>
      <trkpt lat="48.65999" lon="2.13826">
        <ele>157</ele>
        <time>2021-06-13T10:57:31Z</time>
      </trkpt>
      <trkpt lat="48.65996" lon="2.1385">
        <ele>157</ele>
        <time>2021-06-13T10:57:43Z</time>
      </trkpt>
      <trkpt lat="48.65992" lon="2.13865">
        <ele>157</ele>
        <time>2021-06-13T10:57:51Z</time>
      </trkpt>
      <trkpt lat="48.65984" lon="2.13922">
        <ele>157</ele>
        <time>2021-06-13T10:58:23Z</time>
      </trkpt>
      <trkpt lat="48.6598" lon="2.13947">
        <ele>157</ele>
        <time>2021-06-13T10:58:36Z</time>
      </trkpt>
      <trkpt lat="48.6598" lon="2.13955">
        <ele>158</ele>
        <time>2021-06-13T10:58:40Z</time>
      </trkpt>
      <trkpt lat="48.65978" lon="2.13963">
        <ele>158</ele>
        <time>2021-06-13T10:58:44Z</time>
      </trkpt>
      <trkpt lat="48.65988" lon="2.14012">
        <ele>158</ele>
        <time>2021-06-13T10:59:10Z</time>
      </trkpt>
      <trkpt lat="48.65987" lon="2.14021">
        <ele>158</ele>
        <time>2021-06-13T10:59:14Z</time>
      </trkpt>
      <trkpt lat="48.65989" lon="2.14027">
        <ele>157</ele>
        <time>2021-06-13T10:59:18Z</time>
      </trkpt>
      <trkpt lat="48.65994" lon="2.1405">
        <ele>157</ele>
        <time>2021-06-13T10:59:29Z</time>
      </trkpt>
      <trkpt lat="48.65997" lon="2.14056">
        <ele>157</ele>
        <time>2021-06-13T10:59:32Z</time>
      </trkpt>
      <trkpt lat="48.65999" lon="2.14065">
        <ele>157</ele>
        <time>2021-06-13T10:59:36Z</time>
      </trkpt>
      <trkpt lat="48.65998" lon="2.14082">
        <ele>157</ele>
        <time>2021-06-13T10:59:44Z</time>
      </trkpt>
      <trkpt lat="48.65996" lon="2.1409">
        <ele>157</ele>
        <time>2021-06-13T10:59:49Z</time>
      </trkpt>
      <trkpt lat="48.65996" lon="2.14099">
        <ele>157</ele>
        <time>2021-06-13T10:59:53Z</time>
      </trkpt>
      <trkpt lat="48.66003" lon="2.14124">
        <ele>157</ele>
        <time>2021-06-13T11:00:06Z</time>
      </trkpt>
      <trkpt lat="48.66003" lon="2.14133">
        <ele>156</ele>
        <time>2021-06-13T11:00:11Z</time>
      </trkpt>
      <trkpt lat="48.65998" lon="2.14141">
        <ele>157</ele>
        <time>2021-06-13T11:00:18Z</time>
      </trkpt>
      <trkpt lat="48.65998" lon="2.14148">
        <ele>157</ele>
        <time>2021-06-13T11:00:23Z</time>
      </trkpt>
      <trkpt lat="48.66001" lon="2.14157">
        <ele>157</ele>
        <time>2021-06-13T11:00:34Z</time>
      </trkpt>
      <trkpt lat="48.66006" lon="2.14159">
        <ele>157</ele>
        <time>2021-06-13T11:00:49Z</time>
      </trkpt>
      <trkpt lat="48.66006" lon="2.1416">
        <ele>157</ele>
        <time>2021-06-13T11:01:48Z</time>
      </trkpt>
      <trkpt lat="48.66" lon="2.1416">
        <ele>157</ele>
        <time>2021-06-13T11:01:58Z</time>
      </trkpt>
      <trkpt lat="48.65996" lon="2.14157">
        <ele>157</ele>
        <time>2021-06-13T11:02:28Z</time>
      </trkpt>
      <trkpt lat="48.66007" lon="2.14173">
        <ele>158</ele>
        <time>2021-06-13T12:10:49Z</time>
      </trkpt>
      <trkpt lat="48.66007" lon="2.14173">
        <ele>158</ele>
        <time>2021-06-13T12:10:50Z</time>
      </trkpt>
      <trkpt lat="48.66011" lon="2.14197">
        <ele>157</ele>
        <time>2021-06-13T12:11:07Z</time>
      </trkpt>
      <trkpt lat="48.66014" lon="2.14204">
        <ele>157</ele>
        <time>2021-06-13T12:11:12Z</time>
      </trkpt>
      <trkpt lat="48.66016" lon="2.14217">
        <ele>157</ele>
        <time>2021-06-13T12:11:21Z</time>
      </trkpt>
      <trkpt lat="48.66019" lon="2.14237">
        <ele>157</ele>
        <time>2021-06-13T12:11:34Z</time>
      </trkpt>
      <trkpt lat="48.66024" lon="2.14259">
        <ele>157</ele>
        <time>2021-06-13T12:11:48Z</time>
      </trkpt>
      <trkpt lat="48.66026" lon="2.14266">
        <ele>157</ele>
        <time>2021-06-13T12:11:52Z</time>
      </trkpt>
      <trkpt lat="48.66027" lon="2.14274">
        <ele>157</ele>
        <time>2021-06-13T12:11:57Z</time>
      </trkpt>
      <trkpt lat="48.6603" lon="2.14284">
        <ele>157</ele>
        <time>2021-06-13T12:12:03Z</time>
      </trkpt>
      <trkpt lat="48.66031" lon="2.14295">
        <ele>157</ele>
        <time>2021-06-13T12:12:10Z</time>
      </trkpt>
      <trkpt lat="48.6603" lon="2.14302">
        <ele>157</ele>
        <time>2021-06-13T12:12:14Z</time>
      </trkpt>
      <trkpt lat="48.66035" lon="2.14326">
        <ele>157</ele>
        <time>2021-06-13T12:12:28Z</time>
      </trkpt>
      <trkpt lat="48.66029" lon="2.14353">
        <ele>157</ele>
        <time>2021-06-13T12:12:45Z</time>
      </trkpt>
      <trkpt lat="48.66029" lon="2.14378">
        <ele>156</ele>
        <time>2021-06-13T12:13:00Z</time>
      </trkpt>
      <trkpt lat="48.66028" lon="2.14387">
        <ele>157</ele>
        <time>2021-06-13T12:13:05Z</time>
      </trkpt>
      <trkpt lat="48.66027" lon="2.14401">
        <ele>156</ele>
        <time>2021-06-13T12:13:13Z</time>
      </trkpt>
      <trkpt lat="48.6603" lon="2.14407">
        <ele>157</ele>
        <time>2021-06-13T12:13:18Z</time>
      </trkpt>
      <trkpt lat="48.66025" lon="2.14414">
        <ele>156</ele>
        <time>2021-06-13T12:16:01Z</time>
      </trkpt>
      <trkpt lat="48.66023" lon="2.1443">
        <ele>156</ele>
        <time>2021-06-13T12:16:10Z</time>
      </trkpt>
      <trkpt lat="48.6602" lon="2.14447">
        <ele>156</ele>
        <time>2021-06-13T12:16:21Z</time>
      </trkpt>
      <trkpt lat="48.66019" lon="2.14464">
        <ele>156</ele>
        <time>2021-06-13T12:16:29Z</time>
      </trkpt>
      <trkpt lat="48.66007" lon="2.14515">
        <ele>155</ele>
        <time>2021-06-13T12:16:55Z</time>
      </trkpt>
      <trkpt lat="48.66007" lon="2.14522">
        <ele>156</ele>
        <time>2021-06-13T12:16:59Z</time>
      </trkpt>
      <trkpt lat="48.66003" lon="2.14536">
        <ele>156</ele>
        <time>2021-06-13T12:17:06Z</time>
      </trkpt>
      <trkpt lat="48.66" lon="2.14551">
        <ele>156</ele>
        <time>2021-06-13T12:17:15Z</time>
      </trkpt>
      <trkpt lat="48.65999" lon="2.14559">
        <ele>156</ele>
        <time>2021-06-13T12:17:19Z</time>
      </trkpt>
      <trkpt lat="48.65997" lon="2.14566">
        <ele>156</ele>
        <time>2021-06-13T12:17:23Z</time>
      </trkpt>
      <trkpt lat="48.65993" lon="2.14588">
        <ele>156</ele>
        <time>2021-06-13T12:17:36Z</time>
      </trkpt>
      <trkpt lat="48.65992" lon="2.14595">
        <ele>156</ele>
        <time>2021-06-13T12:17:40Z</time>
      </trkpt>
      <trkpt lat="48.6599" lon="2.14609">
        <ele>156</ele>
        <time>2021-06-13T12:17:48Z</time>
      </trkpt>
      <trkpt lat="48.65987" lon="2.14624">
        <ele>156</ele>
        <time>2021-06-13T12:17:59Z</time>
      </trkpt>
      <trkpt lat="48.65986" lon="2.14632">
        <ele>156</ele>
        <time>2021-06-13T12:18:03Z</time>
      </trkpt>
      <trkpt lat="48.65982" lon="2.14654">
        <ele>156</ele>
        <time>2021-06-13T12:18:15Z</time>
      </trkpt>
      <trkpt lat="48.65979" lon="2.14662">
        <ele>157</ele>
        <time>2021-06-13T12:18:19Z</time>
      </trkpt>
      <trkpt lat="48.65977" lon="2.14673">
        <ele>156</ele>
        <time>2021-06-13T12:18:26Z</time>
      </trkpt>
      <trkpt lat="48.65974" lon="2.14679">
        <ele>156</ele>
        <time>2021-06-13T12:18:30Z</time>
      </trkpt>
      <trkpt lat="48.65962" lon="2.14737">
        <ele>157</ele>
        <time>2021-06-13T12:19:02Z</time>
      </trkpt>
      <trkpt lat="48.65957" lon="2.14752">
        <ele>157</ele>
        <time>2021-06-13T12:19:11Z</time>
      </trkpt>
      <trkpt lat="48.65955" lon="2.14766">
        <ele>157</ele>
        <time>2021-06-13T12:19:19Z</time>
      </trkpt>
      <trkpt lat="48.65952" lon="2.14773">
        <ele>157</ele>
        <time>2021-06-13T12:19:23Z</time>
      </trkpt>
      <trkpt lat="48.65948" lon="2.14787">
        <ele>158</ele>
        <time>2021-06-13T12:19:31Z</time>
      </trkpt>
      <trkpt lat="48.65945" lon="2.14792">
        <ele>158</ele>
        <time>2021-06-13T12:19:35Z</time>
      </trkpt>
      <trkpt lat="48.65943" lon="2.148">
        <ele>158</ele>
        <time>2021-06-13T12:19:39Z</time>
      </trkpt>
      <trkpt lat="48.6594" lon="2.14807">
        <ele>158</ele>
        <time>2021-06-13T12:19:43Z</time>
      </trkpt>
      <trkpt lat="48.65939" lon="2.14814">
        <ele>157</ele>
        <time>2021-06-13T12:19:47Z</time>
      </trkpt>
      <trkpt lat="48.65932" lon="2.14834">
        <ele>157</ele>
        <time>2021-06-13T12:19:58Z</time>
      </trkpt>
      <trkpt lat="48.65918" lon="2.14861">
        <ele>158</ele>
        <time>2021-06-13T12:20:17Z</time>
      </trkpt>
      <trkpt lat="48.65914" lon="2.14867">
        <ele>158</ele>
        <time>2021-06-13T12:20:21Z</time>
      </trkpt>
      <trkpt lat="48.65912" lon="2.14874">
        <ele>158</ele>
        <time>2021-06-13T12:20:25Z</time>
      </trkpt>
      <trkpt lat="48.65908" lon="2.14879">
        <ele>158</ele>
        <time>2021-06-13T12:20:29Z</time>
      </trkpt>
      <trkpt lat="48.65897" lon="2.14897">
        <ele>157</ele>
        <time>2021-06-13T12:20:41Z</time>
      </trkpt>
      <trkpt lat="48.65893" lon="2.149">
        <ele>157</ele>
        <time>2021-06-13T12:20:44Z</time>
      </trkpt>
      <trkpt lat="48.65888" lon="2.14907">
        <ele>157</ele>
        <time>2021-06-13T12:20:48Z</time>
      </trkpt>
      <trkpt lat="48.65884" lon="2.1491">
        <ele>157</ele>
        <time>2021-06-13T12:20:52Z</time>
      </trkpt>
      <trkpt lat="48.65877" lon="2.14921">
        <ele>157</ele>
        <time>2021-06-13T12:21:00Z</time>
      </trkpt>
      <trkpt lat="48.65865" lon="2.14933">
        <ele>156</ele>
        <time>2021-06-13T12:21:11Z</time>
      </trkpt>
      <trkpt lat="48.65829" lon="2.14959">
        <ele>156</ele>
        <time>2021-06-13T12:21:43Z</time>
      </trkpt>
      <trkpt lat="48.65824" lon="2.14961">
        <ele>156</ele>
        <time>2021-06-13T12:21:47Z</time>
      </trkpt>
      <trkpt lat="48.6581" lon="2.14969">
        <ele>156</ele>
        <time>2021-06-13T12:22:00Z</time>
      </trkpt>
      <trkpt lat="48.65802" lon="2.1498">
        <ele>156</ele>
        <time>2021-06-13T12:22:08Z</time>
      </trkpt>
      <trkpt lat="48.65794" lon="2.14993">
        <ele>156</ele>
        <time>2021-06-13T12:22:17Z</time>
      </trkpt>
      <trkpt lat="48.65792" lon="2.15001">
        <ele>156</ele>
        <time>2021-06-13T12:22:22Z</time>
      </trkpt>
      <trkpt lat="48.65788" lon="2.15008">
        <ele>156</ele>
        <time>2021-06-13T12:22:26Z</time>
      </trkpt>
      <trkpt lat="48.65779" lon="2.15027">
        <ele>155</ele>
        <time>2021-06-13T12:22:38Z</time>
      </trkpt>
      <trkpt lat="48.65776" lon="2.15032">
        <ele>156</ele>
        <time>2021-06-13T12:22:43Z</time>
      </trkpt>
      <trkpt lat="48.65772" lon="2.15048">
        <ele>156</ele>
        <time>2021-06-13T12:22:53Z</time>
      </trkpt>
      <trkpt lat="48.65768" lon="2.15054">
        <ele>157</ele>
        <time>2021-06-13T12:22:57Z</time>
      </trkpt>
      <trkpt lat="48.65764" lon="2.15069">
        <ele>156</ele>
        <time>2021-06-13T12:23:05Z</time>
      </trkpt>
      <trkpt lat="48.65762" lon="2.15077">
        <ele>157</ele>
        <time>2021-06-13T12:23:09Z</time>
      </trkpt>
      <trkpt lat="48.65759" lon="2.15083">
        <ele>157</ele>
        <time>2021-06-13T12:23:13Z</time>
      </trkpt>
      <trkpt lat="48.65755" lon="2.15098">
        <ele>157</ele>
        <time>2021-06-13T12:23:21Z</time>
      </trkpt>
      <trkpt lat="48.65733" lon="2.1515">
        <ele>158</ele>
        <time>2021-06-13T12:23:54Z</time>
      </trkpt>
      <trkpt lat="48.6573" lon="2.15155">
        <ele>158</ele>
        <time>2021-06-13T12:23:58Z</time>
      </trkpt>
      <trkpt lat="48.65727" lon="2.15162">
        <ele>158</ele>
        <time>2021-06-13T12:24:02Z</time>
      </trkpt>
      <trkpt lat="48.65725" lon="2.1517">
        <ele>158</ele>
        <time>2021-06-13T12:24:06Z</time>
      </trkpt>
      <trkpt lat="48.65721" lon="2.15177">
        <ele>158</ele>
        <time>2021-06-13T12:24:11Z</time>
      </trkpt>
      <trkpt lat="48.65707" lon="2.15207">
        <ele>158</ele>
        <time>2021-06-13T12:24:29Z</time>
      </trkpt>
      <trkpt lat="48.65703" lon="2.1521">
        <ele>158</ele>
        <time>2021-06-13T12:24:33Z</time>
      </trkpt>
      <trkpt lat="48.65701" lon="2.15218">
        <ele>157</ele>
        <time>2021-06-13T12:24:37Z</time>
      </trkpt>
      <trkpt lat="48.65698" lon="2.15225">
        <ele>158</ele>
        <time>2021-06-13T12:24:41Z</time>
      </trkpt>
      <trkpt lat="48.65688" lon="2.15243">
        <ele>158</ele>
        <time>2021-06-13T12:24:53Z</time>
      </trkpt>
      <trkpt lat="48.65667" lon="2.153">
        <ele>157</ele>
        <time>2021-06-13T12:25:28Z</time>
      </trkpt>
      <trkpt lat="48.65663" lon="2.15308">
        <ele>157</ele>
        <time>2021-06-13T12:25:33Z</time>
      </trkpt>
      <trkpt lat="48.65646" lon="2.15361">
        <ele>156</ele>
        <time>2021-06-13T12:26:03Z</time>
      </trkpt>
      <trkpt lat="48.65639" lon="2.15376">
        <ele>156</ele>
        <time>2021-06-13T12:26:12Z</time>
      </trkpt>
      <trkpt lat="48.65629" lon="2.15396">
        <ele>155</ele>
        <time>2021-06-13T12:26:29Z</time>
      </trkpt>
      <trkpt lat="48.65627" lon="2.15405">
        <ele>155</ele>
        <time>2021-06-13T12:26:33Z</time>
      </trkpt>
      <trkpt lat="48.65618" lon="2.15421">
        <ele>155</ele>
        <time>2021-06-13T12:26:43Z</time>
      </trkpt>
      <trkpt lat="48.65608" lon="2.15463">
        <ele>154</ele>
        <time>2021-06-13T12:27:05Z</time>
      </trkpt>
      <trkpt lat="48.65605" lon="2.15471">
        <ele>154</ele>
        <time>2021-06-13T12:27:10Z</time>
      </trkpt>
      <trkpt lat="48.65605" lon="2.1548">
        <ele>154</ele>
        <time>2021-06-13T12:27:15Z</time>
      </trkpt>
      <trkpt lat="48.65603" lon="2.15497">
        <ele>154</ele>
        <time>2021-06-13T12:27:24Z</time>
      </trkpt>
      <trkpt lat="48.65603" lon="2.15527">
        <ele>154</ele>
        <time>2021-06-13T12:27:38Z</time>
      </trkpt>
      <trkpt lat="48.65606" lon="2.15533">
        <ele>155</ele>
        <time>2021-06-13T12:27:48Z</time>
      </trkpt>
      <trkpt lat="48.65607" lon="2.1554">
        <ele>155</ele>
        <time>2021-06-13T12:28:03Z</time>
      </trkpt>
      <trkpt lat="48.65606" lon="2.15548">
        <ele>154</ele>
        <time>2021-06-13T12:28:10Z</time>
      </trkpt>
      <trkpt lat="48.65607" lon="2.15557">
        <ele>154</ele>
        <time>2021-06-13T12:28:16Z</time>
      </trkpt>
      <trkpt lat="48.65606" lon="2.15582">
        <ele>155</ele>
        <time>2021-06-13T12:28:31Z</time>
      </trkpt>
      <trkpt lat="48.65604" lon="2.15594">
        <ele>155</ele>
        <time>2021-06-13T12:28:37Z</time>
      </trkpt>
      <trkpt lat="48.65603" lon="2.15603">
        <ele>155</ele>
        <time>2021-06-13T12:28:42Z</time>
      </trkpt>
      <trkpt lat="48.65604" lon="2.15623">
        <ele>155</ele>
        <time>2021-06-13T12:28:52Z</time>
      </trkpt>
      <trkpt lat="48.65601" lon="2.1564">
        <ele>156</ele>
        <time>2021-06-13T12:29:01Z</time>
      </trkpt>
      <trkpt lat="48.65604" lon="2.15642">
        <ele>157</ele>
        <time>2021-06-13T12:29:24Z</time>
      </trkpt>
      <trkpt lat="48.65602" lon="2.15651">
        <ele>156</ele>
        <time>2021-06-13T12:29:34Z</time>
      </trkpt>
      <trkpt lat="48.65595" lon="2.15685">
        <ele>157</ele>
        <time>2021-06-13T12:29:52Z</time>
      </trkpt>
      <trkpt lat="48.65596" lon="2.15692">
        <ele>157</ele>
        <time>2021-06-13T12:29:55Z</time>
      </trkpt>
      <trkpt lat="48.65597" lon="2.15716">
        <ele>157</ele>
        <time>2021-06-13T12:30:07Z</time>
      </trkpt>
      <trkpt lat="48.65601" lon="2.15731">
        <ele>157</ele>
        <time>2021-06-13T12:30:15Z</time>
      </trkpt>
      <trkpt lat="48.65601" lon="2.15756">
        <ele>157</ele>
        <time>2021-06-13T12:30:27Z</time>
      </trkpt>
      <trkpt lat="48.65599" lon="2.15773">
        <ele>158</ele>
        <time>2021-06-13T12:30:35Z</time>
      </trkpt>
      <trkpt lat="48.65598" lon="2.15836">
        <ele>158</ele>
        <time>2021-06-13T12:31:08Z</time>
      </trkpt>
      <trkpt lat="48.65595" lon="2.15853">
        <ele>158</ele>
        <time>2021-06-13T12:31:16Z</time>
      </trkpt>
      <trkpt lat="48.65594" lon="2.15876">
        <ele>158</ele>
        <time>2021-06-13T12:31:27Z</time>
      </trkpt>
      <trkpt lat="48.65589" lon="2.159">
        <ele>158</ele>
        <time>2021-06-13T12:31:40Z</time>
      </trkpt>
      <trkpt lat="48.65589" lon="2.15907">
        <ele>158</ele>
        <time>2021-06-13T12:31:45Z</time>
      </trkpt>
      <trkpt lat="48.65589" lon="2.15916">
        <ele>158</ele>
        <time>2021-06-13T12:31:49Z</time>
      </trkpt>
      <trkpt lat="48.65573" lon="2.15977">
        <ele>158</ele>
        <time>2021-06-13T12:32:21Z</time>
      </trkpt>
      <trkpt lat="48.6556" lon="2.16032">
        <ele>157</ele>
        <time>2021-06-13T12:32:51Z</time>
      </trkpt>
      <trkpt lat="48.65555" lon="2.16039">
        <ele>157</ele>
        <time>2021-06-13T12:32:55Z</time>
      </trkpt>
      <trkpt lat="48.65554" lon="2.16046">
        <ele>157</ele>
        <time>2021-06-13T12:33:00Z</time>
      </trkpt>
      <trkpt lat="48.65538" lon="2.16102">
        <ele>156</ele>
        <time>2021-06-13T12:33:33Z</time>
      </trkpt>
      <trkpt lat="48.65535" lon="2.16107">
        <ele>156</ele>
        <time>2021-06-13T12:33:36Z</time>
      </trkpt>
      <trkpt lat="48.65534" lon="2.16116">
        <ele>156</ele>
        <time>2021-06-13T12:33:41Z</time>
      </trkpt>
      <trkpt lat="48.65532" lon="2.16123">
        <ele>156</ele>
        <time>2021-06-13T12:33:46Z</time>
      </trkpt>
      <trkpt lat="48.65529" lon="2.16141">
        <ele>156</ele>
        <time>2021-06-13T12:33:55Z</time>
      </trkpt>
      <trkpt lat="48.65527" lon="2.16147">
        <ele>156</ele>
        <time>2021-06-13T12:33:59Z</time>
      </trkpt>
      <trkpt lat="48.65523" lon="2.1616">
        <ele>156</ele>
        <time>2021-06-13T12:34:07Z</time>
      </trkpt>
      <trkpt lat="48.65521" lon="2.16169">
        <ele>156</ele>
        <time>2021-06-13T12:34:11Z</time>
      </trkpt>
      <trkpt lat="48.65518" lon="2.16178">
        <ele>156</ele>
        <time>2021-06-13T12:34:17Z</time>
      </trkpt>
      <trkpt lat="48.65514" lon="2.16193">
        <ele>156</ele>
        <time>2021-06-13T12:34:26Z</time>
      </trkpt>
      <trkpt lat="48.65507" lon="2.16206">
        <ele>156</ele>
        <time>2021-06-13T12:34:34Z</time>
      </trkpt>
      <trkpt lat="48.65501" lon="2.16244">
        <ele>156</ele>
        <time>2021-06-13T12:34:53Z</time>
      </trkpt>
      <trkpt lat="48.65497" lon="2.16252">
        <ele>156</ele>
        <time>2021-06-13T12:34:58Z</time>
      </trkpt>
      <trkpt lat="48.6549" lon="2.163">
        <ele>155</ele>
        <time>2021-06-13T12:35:25Z</time>
      </trkpt>
      <trkpt lat="48.65486" lon="2.16316">
        <ele>155</ele>
        <time>2021-06-13T12:35:33Z</time>
      </trkpt>
      <trkpt lat="48.65481" lon="2.16352">
        <ele>156</ele>
        <time>2021-06-13T12:35:54Z</time>
      </trkpt>
      <trkpt lat="48.65478" lon="2.1636">
        <ele>156</ele>
        <time>2021-06-13T12:35:58Z</time>
      </trkpt>
      <trkpt lat="48.65475" lon="2.16384">
        <ele>156</ele>
        <time>2021-06-13T12:36:12Z</time>
      </trkpt>
      <trkpt lat="48.65478" lon="2.16388">
        <ele>155</ele>
        <time>2021-06-13T12:37:48Z</time>
      </trkpt>
      <trkpt lat="48.65483" lon="2.16391">
        <ele>155</ele>
        <time>2021-06-13T12:37:53Z</time>
      </trkpt>
      <trkpt lat="48.65488" lon="2.16394">
        <ele>155</ele>
        <time>2021-06-13T12:37:58Z</time>
      </trkpt>
      <trkpt lat="48.65492" lon="2.164">
        <ele>154</ele>
        <time>2021-06-13T12:38:03Z</time>
      </trkpt>
      <trkpt lat="48.65497" lon="2.16405">
        <ele>155</ele>
        <time>2021-06-13T12:38:07Z</time>
      </trkpt>
      <trkpt lat="48.65502" lon="2.16416">
        <ele>154</ele>
        <time>2021-06-13T12:38:13Z</time>
      </trkpt>
      <trkpt lat="48.65505" lon="2.16426">
        <ele>154</ele>
        <time>2021-06-13T12:38:18Z</time>
      </trkpt>
      <trkpt lat="48.65526" lon="2.1646">
        <ele>153</ele>
        <time>2021-06-13T12:38:40Z</time>
      </trkpt>
      <trkpt lat="48.65534" lon="2.1648">
        <ele>153</ele>
        <time>2021-06-13T12:38:52Z</time>
      </trkpt>
      <trkpt lat="48.6554" lon="2.16487">
        <ele>152</ele>
        <time>2021-06-13T12:38:57Z</time>
      </trkpt>
      <trkpt lat="48.65548" lon="2.16504">
        <ele>153</ele>
        <time>2021-06-13T12:39:06Z</time>
      </trkpt>
      <trkpt lat="48.65556" lon="2.16516">
        <ele>152</ele>
        <time>2021-06-13T12:39:20Z</time>
      </trkpt>
      <trkpt lat="48.65576" lon="2.16546">
        <ele>151</ele>
        <time>2021-06-13T12:39:43Z</time>
      </trkpt>
      <trkpt lat="48.65582" lon="2.1655">
        <ele>151</ele>
        <time>2021-06-13T12:39:49Z</time>
      </trkpt>
      <trkpt lat="48.65588" lon="2.16554">
        <ele>151</ele>
        <time>2021-06-13T12:39:58Z</time>
      </trkpt>
      <trkpt lat="48.65595" lon="2.16556">
        <ele>150</ele>
        <time>2021-06-13T12:40:09Z</time>
      </trkpt>
      <trkpt lat="48.65599" lon="2.16564">
        <ele>150</ele>
        <time>2021-06-13T12:40:16Z</time>
      </trkpt>
      <trkpt lat="48.65606" lon="2.16584">
        <ele>149</ele>
        <time>2021-06-13T12:40:30Z</time>
      </trkpt>
      <trkpt lat="48.65608" lon="2.16593">
        <ele>149</ele>
        <time>2021-06-13T12:40:36Z</time>
      </trkpt>
      <trkpt lat="48.65611" lon="2.166">
        <ele>148</ele>
        <time>2021-06-13T12:40:41Z</time>
      </trkpt>
      <trkpt lat="48.65616" lon="2.16608">
        <ele>148</ele>
        <time>2021-06-13T12:40:45Z</time>
      </trkpt>
      <trkpt lat="48.65624" lon="2.16624">
        <ele>147</ele>
        <time>2021-06-13T12:40:56Z</time>
      </trkpt>
      <trkpt lat="48.65625" lon="2.1664">
        <ele>147</ele>
        <time>2021-06-13T12:41:05Z</time>
      </trkpt>
      <trkpt lat="48.65634" lon="2.1666">
        <ele>146</ele>
        <time>2021-06-13T12:41:19Z</time>
      </trkpt>
      <trkpt lat="48.65638" lon="2.16667">
        <ele>145</ele>
        <time>2021-06-13T12:41:24Z</time>
      </trkpt>
      <trkpt lat="48.6565" lon="2.16703">
        <ele>143</ele>
        <time>2021-06-13T12:41:48Z</time>
      </trkpt>
      <trkpt lat="48.65654" lon="2.16711">
        <ele>142</ele>
        <time>2021-06-13T12:41:55Z</time>
      </trkpt>
      <trkpt lat="48.65658" lon="2.1672">
        <ele>141</ele>
        <time>2021-06-13T12:42:11Z</time>
      </trkpt>
      <trkpt lat="48.65655" lon="2.16727">
        <ele>141</ele>
        <time>2021-06-13T12:42:41Z</time>
      </trkpt>
      <trkpt lat="48.65662" lon="2.16734">
        <ele>139</ele>
        <time>2021-06-13T12:43:16Z</time>
      </trkpt>
      <trkpt lat="48.6567" lon="2.16735">
        <ele>138</ele>
        <time>2021-06-13T12:43:23Z</time>
      </trkpt>
      <trkpt lat="48.65686" lon="2.16722">
        <ele>135</ele>
        <time>2021-06-13T12:43:37Z</time>
      </trkpt>
      <trkpt lat="48.65701" lon="2.16723">
        <ele>132</ele>
        <time>2021-06-13T12:43:56Z</time>
      </trkpt>
      <trkpt lat="48.65711" lon="2.16719">
        <ele>132</ele>
        <time>2021-06-13T12:44:44Z</time>
      </trkpt>
      <trkpt lat="48.65714" lon="2.16726">
        <ele>131</ele>
        <time>2021-06-13T12:44:54Z</time>
      </trkpt>
      <trkpt lat="48.65717" lon="2.16733">
        <ele>131</ele>
        <time>2021-06-13T12:45:09Z</time>
      </trkpt>
      <trkpt lat="48.65717" lon="2.16742">
        <ele>131</ele>
        <time>2021-06-13T12:45:35Z</time>
      </trkpt>
      <trkpt lat="48.65721" lon="2.16739">
        <ele>131</ele>
        <time>2021-06-13T12:45:56Z</time>
      </trkpt>
      <trkpt lat="48.65725" lon="2.16735">
        <ele>131</ele>
        <time>2021-06-13T12:46:02Z</time>
      </trkpt>
      <trkpt lat="48.65723" lon="2.16726">
        <ele>131</ele>
        <time>2021-06-13T12:46:13Z</time>
      </trkpt>
      <trkpt lat="48.65732" lon="2.16733">
        <ele>130</ele>
        <time>2021-06-13T12:46:53Z</time>
      </trkpt>
      <trkpt lat="48.65749" lon="2.16737">
        <ele>128</ele>
        <time>2021-06-13T12:47:09Z</time>
      </trkpt>
      <trkpt lat="48.65765" lon="2.16756">
        <ele>126</ele>
        <time>2021-06-13T12:47:26Z</time>
      </trkpt>
      <trkpt lat="48.65768" lon="2.16763">
        <ele>125</ele>
        <time>2021-06-13T12:47:31Z</time>
      </trkpt>
      <trkpt lat="48.65781" lon="2.16775">
        <ele>123</ele>
        <time>2021-06-13T12:47:45Z</time>
      </trkpt>
      <trkpt lat="48.65783" lon="2.16785">
        <ele>122</ele>
        <time>2021-06-13T12:47:51Z</time>
      </trkpt>
      <trkpt lat="48.65786" lon="2.16792">
        <ele>121</ele>
        <time>2021-06-13T12:47:56Z</time>
      </trkpt>
      <trkpt lat="48.6579" lon="2.16804">
        <ele>120</ele>
        <time>2021-06-13T12:48:04Z</time>
      </trkpt>
      <trkpt lat="48.65794" lon="2.16811">
        <ele>120</ele>
        <time>2021-06-13T12:48:09Z</time>
      </trkpt>
      <trkpt lat="48.65801" lon="2.16814">
        <ele>120</ele>
        <time>2021-06-13T12:48:14Z</time>
      </trkpt>
      <trkpt lat="48.6583" lon="2.16854">
        <ele>118</ele>
        <time>2021-06-13T12:48:48Z</time>
      </trkpt>
      <trkpt lat="48.65835" lon="2.16862">
        <ele>118</ele>
        <time>2021-06-13T12:48:55Z</time>
      </trkpt>
      <trkpt lat="48.65839" lon="2.1687">
        <ele>118</ele>
        <time>2021-06-13T12:49:00Z</time>
      </trkpt>
      <trkpt lat="48.65844" lon="2.16876">
        <ele>117</ele>
        <time>2021-06-13T12:49:06Z</time>
      </trkpt>
      <trkpt lat="48.65856" lon="2.16886">
        <ele>117</ele>
        <time>2021-06-13T12:49:16Z</time>
      </trkpt>
      <trkpt lat="48.65858" lon="2.16894">
        <ele>117</ele>
        <time>2021-06-13T12:49:20Z</time>
      </trkpt>
      <trkpt lat="48.6586" lon="2.16902">
        <ele>116</ele>
        <time>2021-06-13T12:49:25Z</time>
      </trkpt>
      <trkpt lat="48.65861" lon="2.16919">
        <ele>116</ele>
        <time>2021-06-13T12:49:33Z</time>
      </trkpt>
      <trkpt lat="48.65867" lon="2.16937">
        <ele>116</ele>
        <time>2021-06-13T12:49:43Z</time>
      </trkpt>
      <trkpt lat="48.65878" lon="2.1696">
        <ele>114</ele>
        <time>2021-06-13T12:49:57Z</time>
      </trkpt>
      <trkpt lat="48.65909" lon="2.16993">
        <ele>113</ele>
        <time>2021-06-13T12:50:28Z</time>
      </trkpt>
      <trkpt lat="48.6594" lon="2.17025">
        <ele>112</ele>
        <time>2021-06-13T12:50:58Z</time>
      </trkpt>
      <trkpt lat="48.65945" lon="2.1703">
        <ele>112</ele>
        <time>2021-06-13T12:51:01Z</time>
      </trkpt>
      <trkpt lat="48.6595" lon="2.17031">
        <ele>112</ele>
        <time>2021-06-13T12:51:05Z</time>
      </trkpt>
      <trkpt lat="48.65954" lon="2.17037">
        <ele>111</ele>
        <time>2021-06-13T12:51:09Z</time>
      </trkpt>
      <trkpt lat="48.65959" lon="2.17042">
        <ele>112</ele>
        <time>2021-06-13T12:51:13Z</time>
      </trkpt>
      <trkpt lat="48.65963" lon="2.17049">
        <ele>111</ele>
        <time>2021-06-13T12:51:18Z</time>
      </trkpt>
      <trkpt lat="48.65967" lon="2.17055">
        <ele>112</ele>
        <time>2021-06-13T12:51:22Z</time>
      </trkpt>
      <trkpt lat="48.65982" lon="2.17079">
        <ele>111</ele>
        <time>2021-06-13T12:51:40Z</time>
      </trkpt>
      <trkpt lat="48.65988" lon="2.17084">
        <ele>111</ele>
        <time>2021-06-13T12:51:45Z</time>
      </trkpt>
      <trkpt lat="48.65992" lon="2.1709">
        <ele>111</ele>
        <time>2021-06-13T12:51:50Z</time>
      </trkpt>
      <trkpt lat="48.65996" lon="2.17093">
        <ele>111</ele>
        <time>2021-06-13T12:51:54Z</time>
      </trkpt>
      <trkpt lat="48.66017" lon="2.17117">
        <ele>111</ele>
        <time>2021-06-13T12:52:18Z</time>
      </trkpt>
      <trkpt lat="48.66026" lon="2.17118">
        <ele>111</ele>
        <time>2021-06-13T12:52:24Z</time>
      </trkpt>
      <trkpt lat="48.66031" lon="2.1712">
        <ele>110</ele>
        <time>2021-06-13T12:52:28Z</time>
      </trkpt>
      <trkpt lat="48.66038" lon="2.17121">
        <ele>110</ele>
        <time>2021-06-13T12:52:34Z</time>
      </trkpt>
      <trkpt lat="48.6606" lon="2.17131">
        <ele>111</ele>
        <time>2021-06-13T12:52:53Z</time>
      </trkpt>
      <trkpt lat="48.66067" lon="2.17139">
        <ele>111</ele>
        <time>2021-06-13T12:53:01Z</time>
      </trkpt>
      <trkpt lat="48.66099" lon="2.17152">
        <ele>112</ele>
        <time>2021-06-13T12:53:25Z</time>
      </trkpt>
      <trkpt lat="48.66122" lon="2.17174">
        <ele>114</ele>
        <time>2021-06-13T12:53:50Z</time>
      </trkpt>
      <trkpt lat="48.66156" lon="2.17194">
        <ele>116</ele>
        <time>2021-06-13T12:54:20Z</time>
      </trkpt>
      <trkpt lat="48.66164" lon="2.172">
        <ele>117</ele>
        <time>2021-06-13T12:54:28Z</time>
      </trkpt>
      <trkpt lat="48.66171" lon="2.17202">
        <ele>118</ele>
        <time>2021-06-13T12:54:34Z</time>
      </trkpt>
      <trkpt lat="48.6618" lon="2.17216">
        <ele>119</ele>
        <time>2021-06-13T12:54:47Z</time>
      </trkpt>
      <trkpt lat="48.66188" lon="2.1722">
        <ele>120</ele>
        <time>2021-06-13T12:54:53Z</time>
      </trkpt>
      <trkpt lat="48.66198" lon="2.17232">
        <ele>122</ele>
        <time>2021-06-13T12:55:06Z</time>
      </trkpt>
      <trkpt lat="48.66229" lon="2.1725">
        <ele>127</ele>
        <time>2021-06-13T12:55:39Z</time>
      </trkpt>
      <trkpt lat="48.66236" lon="2.17253">
        <ele>128</ele>
        <time>2021-06-13T12:55:46Z</time>
      </trkpt>
      <trkpt lat="48.66258" lon="2.17251">
        <ele>133</ele>
        <time>2021-06-13T12:56:10Z</time>
      </trkpt>
      <trkpt lat="48.66264" lon="2.17255">
        <ele>134</ele>
        <time>2021-06-13T12:56:16Z</time>
      </trkpt>
      <trkpt lat="48.66274" lon="2.17251">
        <ele>137</ele>
        <time>2021-06-13T12:56:29Z</time>
      </trkpt>
      <trkpt lat="48.663" lon="2.17255">
        <ele>143</ele>
        <time>2021-06-13T12:57:01Z</time>
      </trkpt>
      <trkpt lat="48.66321" lon="2.17265">
        <ele>146</ele>
        <time>2021-06-13T12:57:18Z</time>
      </trkpt>
      <trkpt lat="48.6633" lon="2.17265">
        <ele>148</ele>
        <time>2021-06-13T12:57:27Z</time>
      </trkpt>
      <trkpt lat="48.66338" lon="2.1727">
        <ele>149</ele>
        <time>2021-06-13T12:57:34Z</time>
      </trkpt>
      <trkpt lat="48.66353" lon="2.17288">
        <ele>153</ele>
        <time>2021-06-13T12:57:54Z</time>
      </trkpt>
      <trkpt lat="48.66356" lon="2.17297">
        <ele>155</ele>
        <time>2021-06-13T12:58:03Z</time>
      </trkpt>
      <trkpt lat="48.6636" lon="2.1732">
        <ele>157</ele>
        <time>2021-06-13T12:58:18Z</time>
      </trkpt>
      <trkpt lat="48.66359" lon="2.17319">
        <ele>157</ele>
        <time>2021-06-13T12:59:32Z</time>
      </trkpt>
      <trkpt lat="48.6636" lon="2.17305">
        <ele>157</ele>
        <time>2021-06-13T13:00:00Z</time>
      </trkpt>
      <trkpt lat="48.66361" lon="2.17298">
        <ele>157</ele>
        <time>2021-06-13T13:00:04Z</time>
      </trkpt>
      <trkpt lat="48.66361" lon="2.1729">
        <ele>158</ele>
        <time>2021-06-13T13:00:09Z</time>
      </trkpt>
      <trkpt lat="48.66361" lon="2.17282">
        <ele>157</ele>
        <time>2021-06-13T13:00:13Z</time>
      </trkpt>
      <trkpt lat="48.66361" lon="2.17274">
        <ele>158</ele>
        <time>2021-06-13T13:00:17Z</time>
      </trkpt>
      <trkpt lat="48.66362" lon="2.17267">
        <ele>158</ele>
        <time>2021-06-13T13:00:21Z</time>
      </trkpt>
      <trkpt lat="48.66362" lon="2.17259">
        <ele>158</ele>
        <time>2021-06-13T13:00:25Z</time>
      </trkpt>
      <trkpt lat="48.66366" lon="2.17209">
        <ele>160</ele>
        <time>2021-06-13T13:00:51Z</time>
      </trkpt>
      <trkpt lat="48.66365" lon="2.17202">
        <ele>160</ele>
        <time>2021-06-13T13:00:55Z</time>
      </trkpt>
      <trkpt lat="48.66368" lon="2.17185">
        <ele>161</ele>
        <time>2021-06-13T13:01:03Z</time>
      </trkpt>
      <trkpt lat="48.66368" lon="2.17178">
        <ele>161</ele>
        <time>2021-06-13T13:01:07Z</time>
      </trkpt>
      <trkpt lat="48.66368" lon="2.1717">
        <ele>161</ele>
        <time>2021-06-13T13:01:11Z</time>
      </trkpt>
      <trkpt lat="48.66369" lon="2.17163">
        <ele>162</ele>
        <time>2021-06-13T13:01:15Z</time>
      </trkpt>
      <trkpt lat="48.6637" lon="2.17156">
        <ele>162</ele>
        <time>2021-06-13T13:01:19Z</time>
      </trkpt>
      <trkpt lat="48.66371" lon="2.17149">
        <ele>162</ele>
        <time>2021-06-13T13:01:23Z</time>
      </trkpt>
      <trkpt lat="48.66372" lon="2.17142">
        <ele>162</ele>
        <time>2021-06-13T13:01:27Z</time>
      </trkpt>
      <trkpt lat="48.66373" lon="2.17135">
        <ele>163</ele>
        <time>2021-06-13T13:01:31Z</time>
      </trkpt>
      <trkpt lat="48.66373" lon="2.17127">
        <ele>162</ele>
        <time>2021-06-13T13:02:45Z</time>
      </trkpt>
      <trkpt lat="48.66378" lon="2.17063">
        <ele>163</ele>
        <time>2021-06-13T13:03:18Z</time>
      </trkpt>
      <trkpt lat="48.66383" lon="2.17003">
        <ele>164</ele>
        <time>2021-06-13T13:03:51Z</time>
      </trkpt>
      <trkpt lat="48.66385" lon="2.16973">
        <ele>165</ele>
        <time>2021-06-13T13:04:05Z</time>
      </trkpt>
      <trkpt lat="48.66386" lon="2.16958">
        <ele>165</ele>
        <time>2021-06-13T13:04:12Z</time>
      </trkpt>
      <trkpt lat="48.66389" lon="2.16934">
        <ele>165</ele>
        <time>2021-06-13T13:04:26Z</time>
      </trkpt>
      <trkpt lat="48.66387" lon="2.16917">
        <ele>165</ele>
        <time>2021-06-13T13:04:34Z</time>
      </trkpt>
      <trkpt lat="48.66391" lon="2.16887">
        <ele>165</ele>
        <time>2021-06-13T13:04:50Z</time>
      </trkpt>
      <trkpt lat="48.6639" lon="2.16879">
        <ele>165</ele>
        <time>2021-06-13T13:04:54Z</time>
      </trkpt>
      <trkpt lat="48.66397" lon="2.16815">
        <ele>164</ele>
        <time>2021-06-13T13:05:26Z</time>
      </trkpt>
      <trkpt lat="48.66399" lon="2.16776">
        <ele>164</ele>
        <time>2021-06-13T13:05:47Z</time>
      </trkpt>
      <trkpt lat="48.66399" lon="2.16769">
        <ele>165</ele>
        <time>2021-06-13T13:05:51Z</time>
      </trkpt>
      <trkpt lat="48.66399" lon="2.16761">
        <ele>165</ele>
        <time>2021-06-13T13:05:55Z</time>
      </trkpt>
      <trkpt lat="48.66402" lon="2.16755">
        <ele>165</ele>
        <time>2021-06-13T13:06:00Z</time>
      </trkpt>
      <trkpt lat="48.66407" lon="2.16749">
        <ele>164</ele>
        <time>2021-06-13T13:06:04Z</time>
      </trkpt>
      <trkpt lat="48.66412" lon="2.16745">
        <ele>164</ele>
        <time>2021-06-13T13:06:08Z</time>
      </trkpt>
      <trkpt lat="48.6642" lon="2.16735">
        <ele>163</ele>
        <time>2021-06-13T13:06:18Z</time>
      </trkpt>
      <trkpt lat="48.66434" lon="2.16723">
        <ele>164</ele>
        <time>2021-06-13T13:06:29Z</time>
      </trkpt>
      <trkpt lat="48.66439" lon="2.16721">
        <ele>163</ele>
        <time>2021-06-13T13:06:33Z</time>
      </trkpt>
      <trkpt lat="48.66443" lon="2.16715">
        <ele>163</ele>
        <time>2021-06-13T13:06:38Z</time>
      </trkpt>
      <trkpt lat="48.66451" lon="2.16709">
        <ele>163</ele>
        <time>2021-06-13T13:07:34Z</time>
      </trkpt>
      <trkpt lat="48.66444" lon="2.16693">
        <ele>164</ele>
        <time>2021-06-13T13:08:12Z</time>
      </trkpt>
      <trkpt lat="48.6644" lon="2.16689">
        <ele>164</ele>
        <time>2021-06-13T13:09:06Z</time>
      </trkpt>
      <trkpt lat="48.66445" lon="2.16683">
        <ele>164</ele>
        <time>2021-06-13T13:10:00Z</time>
      </trkpt>
      <trkpt lat="48.66449" lon="2.16685">
        <ele>164</ele>
        <time>2021-06-13T13:11:20Z</time>
      </trkpt>
      <trkpt lat="48.6645" lon="2.16677">
        <ele>164</ele>
        <time>2021-06-13T13:11:52Z</time>
      </trkpt>
      <trkpt lat="48.66445" lon="2.16678">
        <ele>164</ele>
        <time>2021-06-13T13:12:07Z</time>
      </trkpt>
      <trkpt lat="48.66198" lon="2.16415">
        <ele>166</ele>
        <time>2021-06-13T14:29:25Z</time>
      </trkpt>
      <trkpt lat="48.66198" lon="2.16416">
        <ele>166</ele>
        <time>2021-06-13T14:29:26Z</time>
      </trkpt>
      <trkpt lat="48.66202" lon="2.16425">
        <ele>165</ele>
        <time>2021-06-13T14:29:33Z</time>
      </trkpt>
      <trkpt lat="48.66209" lon="2.16433">
        <ele>164</ele>
        <time>2021-06-13T14:29:42Z</time>
      </trkpt>
      <trkpt lat="48.66214" lon="2.16434">
        <ele>165</ele>
        <time>2021-06-13T14:29:46Z</time>
      </trkpt>
      <trkpt lat="48.66225" lon="2.16447">
        <ele>164</ele>
        <time>2021-06-13T14:30:00Z</time>
      </trkpt>
      <trkpt lat="48.66258" lon="2.16468">
        <ele>164</ele>
        <time>2021-06-13T14:30:33Z</time>
      </trkpt>
      <trkpt lat="48.66263" lon="2.16474">
        <ele>164</ele>
        <time>2021-06-13T14:30:38Z</time>
      </trkpt>
      <trkpt lat="48.66268" lon="2.16482">
        <ele>164</ele>
        <time>2021-06-13T14:30:45Z</time>
      </trkpt>
      <trkpt lat="48.66272" lon="2.16488">
        <ele>164</ele>
        <time>2021-06-13T14:30:49Z</time>
      </trkpt>
      <trkpt lat="48.66278" lon="2.16492">
        <ele>163</ele>
        <time>2021-06-13T14:30:53Z</time>
      </trkpt>
      <trkpt lat="48.66282" lon="2.165">
        <ele>164</ele>
        <time>2021-06-13T14:30:58Z</time>
      </trkpt>
      <trkpt lat="48.66303" lon="2.16525">
        <ele>163</ele>
        <time>2021-06-13T14:31:19Z</time>
      </trkpt>
      <trkpt lat="48.66306" lon="2.16531">
        <ele>163</ele>
        <time>2021-06-13T14:31:24Z</time>
      </trkpt>
      <trkpt lat="48.66317" lon="2.16542">
        <ele>163</ele>
        <time>2021-06-13T14:31:33Z</time>
      </trkpt>
      <trkpt lat="48.66321" lon="2.16548">
        <ele>163</ele>
        <time>2021-06-13T14:31:38Z</time>
      </trkpt>
      <trkpt lat="48.66347" lon="2.16582">
        <ele>164</ele>
        <time>2021-06-13T14:32:06Z</time>
      </trkpt>
      <trkpt lat="48.66356" lon="2.16591">
        <ele>164</ele>
        <time>2021-06-13T14:32:15Z</time>
      </trkpt>
      <trkpt lat="48.6636" lon="2.16583">
        <ele>164</ele>
        <time>2021-06-13T14:32:23Z</time>
      </trkpt>
      <trkpt lat="48.66364" lon="2.1659">
        <ele>165</ele>
        <time>2021-06-13T14:32:40Z</time>
      </trkpt>
      <trkpt lat="48.66368" lon="2.16599">
        <ele>165</ele>
        <time>2021-06-13T14:32:46Z</time>
      </trkpt>
      <trkpt lat="48.66371" lon="2.16605">
        <ele>164</ele>
        <time>2021-06-13T14:32:50Z</time>
      </trkpt>
      <trkpt lat="48.66375" lon="2.1661">
        <ele>165</ele>
        <time>2021-06-13T14:32:54Z</time>
      </trkpt>
      <trkpt lat="48.66381" lon="2.16616">
        <ele>164</ele>
        <time>2021-06-13T14:33:01Z</time>
      </trkpt>
      <trkpt lat="48.66386" lon="2.16621">
        <ele>165</ele>
        <time>2021-06-13T14:33:07Z</time>
      </trkpt>
      <trkpt lat="48.6639" lon="2.16625">
        <ele>165</ele>
        <time>2021-06-13T14:33:11Z</time>
      </trkpt>
      <trkpt lat="48.66395" lon="2.16627">
        <ele>165</ele>
        <time>2021-06-13T14:33:15Z</time>
      </trkpt>
      <trkpt lat="48.66416" lon="2.16646">
        <ele>165</ele>
        <time>2021-06-13T14:33:36Z</time>
      </trkpt>
      <trkpt lat="48.66419" lon="2.16653">
        <ele>165</ele>
        <time>2021-06-13T14:33:39Z</time>
      </trkpt>
      <trkpt lat="48.66424" lon="2.16657">
        <ele>165</ele>
        <time>2021-06-13T14:33:43Z</time>
      </trkpt>
      <trkpt lat="48.66428" lon="2.16659">
        <ele>165</ele>
        <time>2021-06-13T14:33:47Z</time>
      </trkpt>
      <trkpt lat="48.66433" lon="2.16664">
        <ele>165</ele>
        <time>2021-06-13T14:33:50Z</time>
      </trkpt>
      <trkpt lat="48.66438" lon="2.16667">
        <ele>165</ele>
        <time>2021-06-13T14:33:54Z</time>
      </trkpt>
      <trkpt lat="48.66444" lon="2.16672">
        <ele>165</ele>
        <time>2021-06-13T14:34:01Z</time>
      </trkpt>
      <trkpt lat="48.66464" lon="2.16688">
        <ele>165</ele>
        <time>2021-06-13T14:34:39Z</time>
      </trkpt>
      <trkpt lat="48.66473" lon="2.16693">
        <ele>164</ele>
        <time>2021-06-13T14:34:49Z</time>
      </trkpt>
      <trkpt lat="48.66479" lon="2.16697">
        <ele>163</ele>
        <time>2021-06-13T14:35:23Z</time>
      </trkpt>
      <trkpt lat="48.66488" lon="2.167">
        <ele>164</ele>
        <time>2021-06-13T14:35:32Z</time>
      </trkpt>
      <trkpt lat="48.66493" lon="2.16698">
        <ele>164</ele>
        <time>2021-06-13T14:35:35Z</time>
      </trkpt>
      <trkpt lat="48.66498" lon="2.16698">
        <ele>165</ele>
        <time>2021-06-13T14:35:39Z</time>
      </trkpt>
      <trkpt lat="48.66503" lon="2.16697">
        <ele>165</ele>
        <time>2021-06-13T14:35:43Z</time>
      </trkpt>
      <trkpt lat="48.66508" lon="2.16697">
        <ele>163</ele>
        <time>2021-06-13T14:35:47Z</time>
      </trkpt>
      <trkpt lat="48.66512" lon="2.16697">
        <ele>164</ele>
        <time>2021-06-13T14:35:50Z</time>
      </trkpt>
      <trkpt lat="48.66518" lon="2.16698">
        <ele>164</ele>
        <time>2021-06-13T14:35:56Z</time>
      </trkpt>
      <trkpt lat="48.66527" lon="2.16699">
        <ele>163</ele>
        <time>2021-06-13T14:36:08Z</time>
      </trkpt>
      <trkpt lat="48.66543" lon="2.167">
        <ele>162</ele>
        <time>2021-06-13T14:36:21Z</time>
      </trkpt>
      <trkpt lat="48.66559" lon="2.16698">
        <ele>164</ele>
        <time>2021-06-13T14:36:34Z</time>
      </trkpt>
      <trkpt lat="48.66564" lon="2.16699">
        <ele>163</ele>
        <time>2021-06-13T14:36:38Z</time>
      </trkpt>
      <trkpt lat="48.66576" lon="2.16701">
        <ele>162</ele>
        <time>2021-06-13T14:36:47Z</time>
      </trkpt>
      <trkpt lat="48.66582" lon="2.16701">
        <ele>163</ele>
        <time>2021-06-13T14:36:51Z</time>
      </trkpt>
      <trkpt lat="48.66599" lon="2.16703">
        <ele>162</ele>
        <time>2021-06-13T14:37:04Z</time>
      </trkpt>
      <trkpt lat="48.66604" lon="2.16705">
        <ele>162</ele>
        <time>2021-06-13T14:37:08Z</time>
      </trkpt>
      <trkpt lat="48.66626" lon="2.16711">
        <ele>161</ele>
        <time>2021-06-13T14:37:26Z</time>
      </trkpt>
      <trkpt lat="48.66632" lon="2.16712">
        <ele>161</ele>
        <time>2021-06-13T14:37:30Z</time>
      </trkpt>
      <trkpt lat="48.66659" lon="2.16716">
        <ele>161</ele>
        <time>2021-06-13T14:37:51Z</time>
      </trkpt>
      <trkpt lat="48.66673" lon="2.1672">
        <ele>161</ele>
        <time>2021-06-13T14:38:03Z</time>
      </trkpt>
      <trkpt lat="48.66678" lon="2.16719">
        <ele>161</ele>
        <time>2021-06-13T14:38:07Z</time>
      </trkpt>
      <trkpt lat="48.66684" lon="2.16721">
        <ele>161</ele>
        <time>2021-06-13T14:38:13Z</time>
      </trkpt>
      <trkpt lat="48.667" lon="2.16725">
        <ele>161</ele>
        <time>2021-06-13T14:38:25Z</time>
      </trkpt>
      <trkpt lat="48.66706" lon="2.16727">
        <ele>161</ele>
        <time>2021-06-13T14:38:29Z</time>
      </trkpt>
      <trkpt lat="48.6671" lon="2.16729">
        <ele>161</ele>
        <time>2021-06-13T14:38:33Z</time>
      </trkpt>
      <trkpt lat="48.66737" lon="2.16734">
        <ele>159</ele>
        <time>2021-06-13T14:38:53Z</time>
      </trkpt>
      <trkpt lat="48.66747" lon="2.16738">
        <ele>159</ele>
        <time>2021-06-13T14:39:01Z</time>
      </trkpt>
      <trkpt lat="48.66751" lon="2.1674">
        <ele>160</ele>
        <time>2021-06-13T14:39:04Z</time>
      </trkpt>
      <trkpt lat="48.66756" lon="2.16743">
        <ele>160</ele>
        <time>2021-06-13T14:39:09Z</time>
      </trkpt>
      <trkpt lat="48.66761" lon="2.16743">
        <ele>159</ele>
        <time>2021-06-13T14:39:12Z</time>
      </trkpt>
      <trkpt lat="48.66766" lon="2.16745">
        <ele>159</ele>
        <time>2021-06-13T14:39:16Z</time>
      </trkpt>
      <trkpt lat="48.66777" lon="2.1675">
        <ele>159</ele>
        <time>2021-06-13T14:39:24Z</time>
      </trkpt>
      <trkpt lat="48.66782" lon="2.1675">
        <ele>159</ele>
        <time>2021-06-13T14:39:28Z</time>
      </trkpt>
      <trkpt lat="48.66788" lon="2.16752">
        <ele>159</ele>
        <time>2021-06-13T14:39:32Z</time>
      </trkpt>
      <trkpt lat="48.66803" lon="2.16757">
        <ele>159</ele>
        <time>2021-06-13T14:39:44Z</time>
      </trkpt>
      <trkpt lat="48.66812" lon="2.16762">
        <ele>158</ele>
        <time>2021-06-13T14:39:52Z</time>
      </trkpt>
      <trkpt lat="48.66816" lon="2.16763">
        <ele>159</ele>
        <time>2021-06-13T14:39:56Z</time>
      </trkpt>
      <trkpt lat="48.66826" lon="2.16766">
        <ele>158</ele>
        <time>2021-06-13T14:40:03Z</time>
      </trkpt>
      <trkpt lat="48.66832" lon="2.16767">
        <ele>158</ele>
        <time>2021-06-13T14:40:07Z</time>
      </trkpt>
      <trkpt lat="48.66873" lon="2.1678">
        <ele>157</ele>
        <time>2021-06-13T14:40:40Z</time>
      </trkpt>
      <trkpt lat="48.66883" lon="2.16784">
        <ele>157</ele>
        <time>2021-06-13T14:40:48Z</time>
      </trkpt>
      <trkpt lat="48.66887" lon="2.16786">
        <ele>157</ele>
        <time>2021-06-13T14:40:52Z</time>
      </trkpt>
      <trkpt lat="48.66912" lon="2.16794">
        <ele>156</ele>
        <time>2021-06-13T14:41:13Z</time>
      </trkpt>
      <trkpt lat="48.66917" lon="2.16794">
        <ele>156</ele>
        <time>2021-06-13T14:41:17Z</time>
      </trkpt>
      <trkpt lat="48.66922" lon="2.16794">
        <ele>156</ele>
        <time>2021-06-13T14:41:21Z</time>
      </trkpt>
      <trkpt lat="48.66926" lon="2.16794">
        <ele>156</ele>
        <time>2021-06-13T14:41:24Z</time>
      </trkpt>
      <trkpt lat="48.66951" lon="2.16786">
        <ele>156</ele>
        <time>2021-06-13T14:41:43Z</time>
      </trkpt>
      <trkpt lat="48.66956" lon="2.16785">
        <ele>156</ele>
        <time>2021-06-13T14:41:47Z</time>
      </trkpt>
      <trkpt lat="48.66963" lon="2.16781">
        <ele>156</ele>
        <time>2021-06-13T14:41:55Z</time>
      </trkpt>
      <trkpt lat="48.66968" lon="2.16779">
        <ele>156</ele>
        <time>2021-06-13T14:41:59Z</time>
      </trkpt>
      <trkpt lat="48.66978" lon="2.16773">
        <ele>156</ele>
        <time>2021-06-13T14:42:08Z</time>
      </trkpt>
      <trkpt lat="48.66983" lon="2.16772">
        <ele>156</ele>
        <time>2021-06-13T14:42:11Z</time>
      </trkpt>
      <trkpt lat="48.66988" lon="2.1677">
        <ele>156</ele>
        <time>2021-06-13T14:42:14Z</time>
      </trkpt>
      <trkpt lat="48.66997" lon="2.16766">
        <ele>156</ele>
        <time>2021-06-13T14:42:21Z</time>
      </trkpt>
      <trkpt lat="48.67002" lon="2.16765">
        <ele>156</ele>
        <time>2021-06-13T14:42:25Z</time>
      </trkpt>
      <trkpt lat="48.67007" lon="2.16765">
        <ele>156</ele>
        <time>2021-06-13T14:42:29Z</time>
      </trkpt>
      <trkpt lat="48.67012" lon="2.16768">
        <ele>156</ele>
        <time>2021-06-13T14:42:33Z</time>
      </trkpt>
      <trkpt lat="48.67016" lon="2.16774">
        <ele>156</ele>
        <time>2021-06-13T14:42:36Z</time>
      </trkpt>
      <trkpt lat="48.67019" lon="2.16778">
        <ele>156</ele>
        <time>2021-06-13T14:42:39Z</time>
      </trkpt>
      <trkpt lat="48.67023" lon="2.16786">
        <ele>156</ele>
        <time>2021-06-13T14:42:43Z</time>
      </trkpt>
      <trkpt lat="48.6703" lon="2.16798">
        <ele>155</ele>
        <time>2021-06-13T14:42:51Z</time>
      </trkpt>
      <trkpt lat="48.67033" lon="2.16804">
        <ele>155</ele>
        <time>2021-06-13T14:42:55Z</time>
      </trkpt>
      <trkpt lat="48.67036" lon="2.1681">
        <ele>156</ele>
        <time>2021-06-13T14:42:59Z</time>
      </trkpt>
      <trkpt lat="48.67058" lon="2.16845">
        <ele>155</ele>
        <time>2021-06-13T14:43:23Z</time>
      </trkpt>
      <trkpt lat="48.67061" lon="2.16851">
        <ele>155</ele>
        <time>2021-06-13T14:43:27Z</time>
      </trkpt>
      <trkpt lat="48.67065" lon="2.16857">
        <ele>155</ele>
        <time>2021-06-13T14:43:31Z</time>
      </trkpt>
      <trkpt lat="48.67068" lon="2.16865">
        <ele>155</ele>
        <time>2021-06-13T14:43:36Z</time>
      </trkpt>
      <trkpt lat="48.67071" lon="2.1687">
        <ele>155</ele>
        <time>2021-06-13T14:43:41Z</time>
      </trkpt>
      <trkpt lat="48.67075" lon="2.16875">
        <ele>155</ele>
        <time>2021-06-13T14:43:45Z</time>
      </trkpt>
      <trkpt lat="48.67079" lon="2.16882">
        <ele>155</ele>
        <time>2021-06-13T14:43:49Z</time>
      </trkpt>
      <trkpt lat="48.67108" lon="2.16917">
        <ele>154</ele>
        <time>2021-06-13T14:44:21Z</time>
      </trkpt>
      <trkpt lat="48.67117" lon="2.16928">
        <ele>154</ele>
        <time>2021-06-13T14:44:29Z</time>
      </trkpt>
      <trkpt lat="48.6712" lon="2.16934">
        <ele>154</ele>
        <time>2021-06-13T14:44:34Z</time>
      </trkpt>
      <trkpt lat="48.67124" lon="2.16938">
        <ele>154</ele>
        <time>2021-06-13T14:44:37Z</time>
      </trkpt>
      <trkpt lat="48.67134" lon="2.1695">
        <ele>154</ele>
        <time>2021-06-13T14:44:46Z</time>
      </trkpt>
      <trkpt lat="48.67139" lon="2.16956">
        <ele>154</ele>
        <time>2021-06-13T14:44:50Z</time>
      </trkpt>
      <trkpt lat="48.67142" lon="2.16962">
        <ele>154</ele>
        <time>2021-06-13T14:44:54Z</time>
      </trkpt>
      <trkpt lat="48.67146" lon="2.16967">
        <ele>154</ele>
        <time>2021-06-13T14:44:58Z</time>
      </trkpt>
      <trkpt lat="48.6715" lon="2.16972">
        <ele>153</ele>
        <time>2021-06-13T14:45:02Z</time>
      </trkpt>
      <trkpt lat="48.67154" lon="2.16976">
        <ele>154</ele>
        <time>2021-06-13T14:45:06Z</time>
      </trkpt>
      <trkpt lat="48.6716" lon="2.16978">
        <ele>153</ele>
        <time>2021-06-13T14:45:10Z</time>
      </trkpt>
      <trkpt lat="48.67173" lon="2.16997">
        <ele>153</ele>
        <time>2021-06-13T14:45:24Z</time>
      </trkpt>
      <trkpt lat="48.67186" lon="2.17007">
        <ele>152</ele>
        <time>2021-06-13T14:45:36Z</time>
      </trkpt>
      <trkpt lat="48.67191" lon="2.17012">
        <ele>153</ele>
        <time>2021-06-13T14:45:40Z</time>
      </trkpt>
      <trkpt lat="48.67201" lon="2.17023">
        <ele>152</ele>
        <time>2021-06-13T14:45:50Z</time>
      </trkpt>
      <trkpt lat="48.67205" lon="2.17024">
        <ele>152</ele>
        <time>2021-06-13T14:45:53Z</time>
      </trkpt>
      <trkpt lat="48.6721" lon="2.17029">
        <ele>152</ele>
        <time>2021-06-13T14:45:57Z</time>
      </trkpt>
      <trkpt lat="48.67214" lon="2.17031">
        <ele>152</ele>
        <time>2021-06-13T14:46:01Z</time>
      </trkpt>
      <trkpt lat="48.67221" lon="2.17036">
        <ele>152</ele>
        <time>2021-06-13T14:46:07Z</time>
      </trkpt>
      <trkpt lat="48.67225" lon="2.17041">
        <ele>152</ele>
        <time>2021-06-13T14:46:11Z</time>
      </trkpt>
      <trkpt lat="48.67229" lon="2.17043">
        <ele>152</ele>
        <time>2021-06-13T14:46:15Z</time>
      </trkpt>
      <trkpt lat="48.67239" lon="2.17049">
        <ele>151</ele>
        <time>2021-06-13T14:46:23Z</time>
      </trkpt>
      <trkpt lat="48.67249" lon="2.17055">
        <ele>152</ele>
        <time>2021-06-13T14:46:31Z</time>
      </trkpt>
      <trkpt lat="48.67254" lon="2.17059">
        <ele>152</ele>
        <time>2021-06-13T14:46:35Z</time>
      </trkpt>
      <trkpt lat="48.67259" lon="2.17062">
        <ele>151</ele>
        <time>2021-06-13T14:46:39Z</time>
      </trkpt>
      <trkpt lat="48.67266" lon="2.1707">
        <ele>152</ele>
        <time>2021-06-13T14:46:47Z</time>
      </trkpt>
      <trkpt lat="48.67276" lon="2.17074">
        <ele>152</ele>
        <time>2021-06-13T14:46:54Z</time>
      </trkpt>
      <trkpt lat="48.67282" lon="2.17074">
        <ele>152</ele>
        <time>2021-06-13T14:46:58Z</time>
      </trkpt>
      <trkpt lat="48.67287" lon="2.17077">
        <ele>152</ele>
        <time>2021-06-13T14:47:03Z</time>
      </trkpt>
      <trkpt lat="48.67292" lon="2.1708">
        <ele>152</ele>
        <time>2021-06-13T14:47:07Z</time>
      </trkpt>
      <trkpt lat="48.67297" lon="2.17081">
        <ele>152</ele>
        <time>2021-06-13T14:47:11Z</time>
      </trkpt>
      <trkpt lat="48.67302" lon="2.17083">
        <ele>152</ele>
        <time>2021-06-13T14:47:15Z</time>
      </trkpt>
      <trkpt lat="48.67307" lon="2.17084">
        <ele>152</ele>
        <time>2021-06-13T14:47:19Z</time>
      </trkpt>
      <trkpt lat="48.67312" lon="2.17087">
        <ele>152</ele>
        <time>2021-06-13T14:47:23Z</time>
      </trkpt>
      <trkpt lat="48.67317" lon="2.17088">
        <ele>152</ele>
        <time>2021-06-13T14:47:27Z</time>
      </trkpt>
      <trkpt lat="48.67322" lon="2.17089">
        <ele>152</ele>
        <time>2021-06-13T14:47:31Z</time>
      </trkpt>
      <trkpt lat="48.67327" lon="2.1709">
        <ele>152</ele>
        <time>2021-06-13T14:47:35Z</time>
      </trkpt>
      <trkpt lat="48.67332" lon="2.17091">
        <ele>152</ele>
        <time>2021-06-13T14:47:39Z</time>
      </trkpt>
      <trkpt lat="48.67337" lon="2.17093">
        <ele>152</ele>
        <time>2021-06-13T14:47:43Z</time>
      </trkpt>
      <trkpt lat="48.67342" lon="2.17094">
        <ele>152</ele>
        <time>2021-06-13T14:47:48Z</time>
      </trkpt>
      <trkpt lat="48.6735" lon="2.17094">
        <ele>152</ele>
        <time>2021-06-13T14:47:54Z</time>
      </trkpt>
      <trkpt lat="48.67358" lon="2.17089">
        <ele>152</ele>
        <time>2021-06-13T14:48:01Z</time>
      </trkpt>
      <trkpt lat="48.67365" lon="2.17086">
        <ele>153</ele>
        <time>2021-06-13T14:48:07Z</time>
      </trkpt>
      <trkpt lat="48.67371" lon="2.17083">
        <ele>152</ele>
        <time>2021-06-13T14:48:11Z</time>
      </trkpt>
      <trkpt lat="48.67375" lon="2.1708">
        <ele>153</ele>
        <time>2021-06-13T14:48:15Z</time>
      </trkpt>
      <trkpt lat="48.67386" lon="2.17081">
        <ele>153</ele>
        <time>2021-06-13T14:48:24Z</time>
      </trkpt>
      <trkpt lat="48.6739" lon="2.17085">
        <ele>153</ele>
        <time>2021-06-13T14:48:27Z</time>
      </trkpt>
      <trkpt lat="48.67395" lon="2.17088">
        <ele>154</ele>
        <time>2021-06-13T14:48:31Z</time>
      </trkpt>
      <trkpt lat="48.67399" lon="2.17091">
        <ele>154</ele>
        <time>2021-06-13T14:48:34Z</time>
      </trkpt>
      <trkpt lat="48.67411" lon="2.17093">
        <ele>154</ele>
        <time>2021-06-13T14:48:43Z</time>
      </trkpt>
      <trkpt lat="48.67417" lon="2.17092">
        <ele>154</ele>
        <time>2021-06-13T14:48:47Z</time>
      </trkpt>
      <trkpt lat="48.67422" lon="2.17092">
        <ele>153</ele>
        <time>2021-06-13T14:48:51Z</time>
      </trkpt>
      <trkpt lat="48.67455" lon="2.17097">
        <ele>154</ele>
        <time>2021-06-13T14:49:18Z</time>
      </trkpt>
      <trkpt lat="48.67461" lon="2.17097">
        <ele>155</ele>
        <time>2021-06-13T14:49:22Z</time>
      </trkpt>
      <trkpt lat="48.67475" lon="2.17099">
        <ele>155</ele>
        <time>2021-06-13T14:49:34Z</time>
      </trkpt>
      <trkpt lat="48.6749" lon="2.17113">
        <ele>157</ele>
        <time>2021-06-13T14:49:51Z</time>
      </trkpt>
      <trkpt lat="48.67495" lon="2.17122">
        <ele>159</ele>
        <time>2021-06-13T14:50:03Z</time>
      </trkpt>
      <trkpt lat="48.675" lon="2.17117">
        <ele>159</ele>
        <time>2021-06-13T14:50:09Z</time>
      </trkpt>
      <trkpt lat="48.67503" lon="2.17113">
        <ele>159</ele>
        <time>2021-06-13T14:50:14Z</time>
      </trkpt>
      <trkpt lat="48.67509" lon="2.17105">
        <ele>158</ele>
        <time>2021-06-13T14:50:25Z</time>
      </trkpt>
      <trkpt lat="48.67513" lon="2.17102">
        <ele>159</ele>
        <time>2021-06-13T14:50:28Z</time>
      </trkpt>
      <trkpt lat="48.67521" lon="2.17091">
        <ele>158</ele>
        <time>2021-06-13T14:50:36Z</time>
      </trkpt>
      <trkpt lat="48.67525" lon="2.17086">
        <ele>159</ele>
        <time>2021-06-13T14:50:40Z</time>
      </trkpt>
      <trkpt lat="48.6753" lon="2.17082">
        <ele>158</ele>
        <time>2021-06-13T14:50:44Z</time>
      </trkpt>
      <trkpt lat="48.67533" lon="2.17079">
        <ele>159</ele>
        <time>2021-06-13T14:50:48Z</time>
      </trkpt>
      <trkpt lat="48.67537" lon="2.17073">
        <ele>159</ele>
        <time>2021-06-13T14:50:52Z</time>
      </trkpt>
      <trkpt lat="48.67541" lon="2.17067">
        <ele>159</ele>
        <time>2021-06-13T14:50:56Z</time>
      </trkpt>
      <trkpt lat="48.67545" lon="2.17062">
        <ele>158</ele>
        <time>2021-06-13T14:51:00Z</time>
      </trkpt>
      <trkpt lat="48.67548" lon="2.17056">
        <ele>158</ele>
        <time>2021-06-13T14:51:04Z</time>
      </trkpt>
      <trkpt lat="48.67552" lon="2.17051">
        <ele>159</ele>
        <time>2021-06-13T14:51:08Z</time>
      </trkpt>
      <trkpt lat="48.67556" lon="2.17046">
        <ele>158</ele>
        <time>2021-06-13T14:51:12Z</time>
      </trkpt>
      <trkpt lat="48.67563" lon="2.17037">
        <ele>158</ele>
        <time>2021-06-13T14:51:19Z</time>
      </trkpt>
      <trkpt lat="48.67565" lon="2.1703">
        <ele>158</ele>
        <time>2021-06-13T14:51:23Z</time>
      </trkpt>
      <trkpt lat="48.67567" lon="2.17022">
        <ele>158</ele>
        <time>2021-06-13T14:51:27Z</time>
      </trkpt>
      <trkpt lat="48.6757" lon="2.17016">
        <ele>158</ele>
        <time>2021-06-13T14:51:31Z</time>
      </trkpt>
      <trkpt lat="48.67572" lon="2.17009">
        <ele>158</ele>
        <time>2021-06-13T14:51:35Z</time>
      </trkpt>
      <trkpt lat="48.67575" lon="2.17003">
        <ele>158</ele>
        <time>2021-06-13T14:51:39Z</time>
      </trkpt>
      <trkpt lat="48.67578" lon="2.16995">
        <ele>158</ele>
        <time>2021-06-13T14:51:43Z</time>
      </trkpt>
      <trkpt lat="48.67585" lon="2.16983">
        <ele>158</ele>
        <time>2021-06-13T14:51:51Z</time>
      </trkpt>
      <trkpt lat="48.67588" lon="2.16979">
        <ele>159</ele>
        <time>2021-06-13T14:51:54Z</time>
      </trkpt>
      <trkpt lat="48.67591" lon="2.16974">
        <ele>158</ele>
        <time>2021-06-13T14:51:58Z</time>
      </trkpt>
      <trkpt lat="48.67593" lon="2.16968">
        <ele>159</ele>
        <time>2021-06-13T14:52:01Z</time>
      </trkpt>
      <trkpt lat="48.67598" lon="2.16963">
        <ele>159</ele>
        <time>2021-06-13T14:52:05Z</time>
      </trkpt>
      <trkpt lat="48.67611" lon="2.16931">
        <ele>158</ele>
        <time>2021-06-13T14:52:24Z</time>
      </trkpt>
      <trkpt lat="48.67615" lon="2.16926">
        <ele>159</ele>
        <time>2021-06-13T14:52:28Z</time>
      </trkpt>
      <trkpt lat="48.67618" lon="2.16921">
        <ele>158</ele>
        <time>2021-06-13T14:52:31Z</time>
      </trkpt>
      <trkpt lat="48.67635" lon="2.16895">
        <ele>159</ele>
        <time>2021-06-13T14:52:50Z</time>
      </trkpt>
      <trkpt lat="48.67648" lon="2.16884">
        <ele>158</ele>
        <time>2021-06-13T14:53:01Z</time>
      </trkpt>
      <trkpt lat="48.67652" lon="2.1688">
        <ele>159</ele>
        <time>2021-06-13T14:53:05Z</time>
      </trkpt>
      <trkpt lat="48.67656" lon="2.16875">
        <ele>159</ele>
        <time>2021-06-13T14:53:09Z</time>
      </trkpt>
      <trkpt lat="48.67663" lon="2.16863">
        <ele>159</ele>
        <time>2021-06-13T14:53:17Z</time>
      </trkpt>
      <trkpt lat="48.67668" lon="2.16859">
        <ele>158</ele>
        <time>2021-06-13T14:53:21Z</time>
      </trkpt>
      <trkpt lat="48.67682" lon="2.16849">
        <ele>158</ele>
        <time>2021-06-13T14:53:32Z</time>
      </trkpt>
      <trkpt lat="48.67686" lon="2.16844">
        <ele>158</ele>
        <time>2021-06-13T14:53:36Z</time>
      </trkpt>
      <trkpt lat="48.6769" lon="2.16841">
        <ele>158</ele>
        <time>2021-06-13T14:53:40Z</time>
      </trkpt>
      <trkpt lat="48.67693" lon="2.16836">
        <ele>158</ele>
        <time>2021-06-13T14:53:43Z</time>
      </trkpt>
      <trkpt lat="48.67697" lon="2.16832">
        <ele>158</ele>
        <time>2021-06-13T14:53:47Z</time>
      </trkpt>
      <trkpt lat="48.67701" lon="2.16828">
        <ele>158</ele>
        <time>2021-06-13T14:53:50Z</time>
      </trkpt>
      <trkpt lat="48.67738" lon="2.16804">
        <ele>159</ele>
        <time>2021-06-13T14:54:21Z</time>
      </trkpt>
      <trkpt lat="48.67753" lon="2.16792">
        <ele>158</ele>
        <time>2021-06-13T14:54:39Z</time>
      </trkpt>
      <trkpt lat="48.67757" lon="2.16789">
        <ele>158</ele>
        <time>2021-06-13T14:54:43Z</time>
      </trkpt>
      <trkpt lat="48.67776" lon="2.16784">
        <ele>158</ele>
        <time>2021-06-13T14:55:04Z</time>
      </trkpt>
      <trkpt lat="48.67781" lon="2.16784">
        <ele>158</ele>
        <time>2021-06-13T14:55:08Z</time>
      </trkpt>
      <trkpt lat="48.67791" lon="2.16787">
        <ele>158</ele>
        <time>2021-06-13T14:55:15Z</time>
      </trkpt>
      <trkpt lat="48.67806" lon="2.16786">
        <ele>159</ele>
        <time>2021-06-13T14:55:28Z</time>
      </trkpt>
      <trkpt lat="48.67811" lon="2.16788">
        <ele>159</ele>
        <time>2021-06-13T14:55:32Z</time>
      </trkpt>
      <trkpt lat="48.67821" lon="2.16792">
        <ele>159</ele>
        <time>2021-06-13T14:55:40Z</time>
      </trkpt>
      <trkpt lat="48.67833" lon="2.1678">
        <ele>161</ele>
        <time>2021-06-13T14:55:55Z</time>
      </trkpt>
      <trkpt lat="48.67838" lon="2.16777">
        <ele>161</ele>
        <time>2021-06-13T14:55:59Z</time>
      </trkpt>
      <trkpt lat="48.67839" lon="2.16786">
        <ele>161</ele>
        <time>2021-06-13T14:56:16Z</time>
      </trkpt>
      <trkpt lat="48.67839" lon="2.16798">
        <ele>160</ele>
        <time>2021-06-13T14:56:30Z</time>
      </trkpt>
      <trkpt lat="48.67839" lon="2.16796">
        <ele>160</ele>
        <time>2021-06-13T14:56:41Z</time>
      </trkpt>
      <trkpt lat="48.67836" lon="2.16808">
        <ele>160</ele>
        <time>2021-06-13T14:57:04Z</time>
      </trkpt>
      <trkpt lat="48.67837" lon="2.16823">
        <ele>160</ele>
        <time>2021-06-13T14:57:12Z</time>
      </trkpt>
      <trkpt lat="48.67834" lon="2.16835">
        <ele>160</ele>
        <time>2021-06-13T14:57:36Z</time>
      </trkpt>
      <trkpt lat="48.67832" lon="2.16849">
        <ele>160</ele>
        <time>2021-06-13T14:57:43Z</time>
      </trkpt>
      <trkpt lat="48.67832" lon="2.16861">
        <ele>160</ele>
        <time>2021-06-13T14:57:51Z</time>
      </trkpt>
      <trkpt lat="48.67838" lon="2.16872">
        <ele>160</ele>
        <time>2021-06-13T14:58:00Z</time>
      </trkpt>
      <trkpt lat="48.67848" lon="2.1688">
        <ele>161</ele>
        <time>2021-06-13T14:58:10Z</time>
      </trkpt>
      <trkpt lat="48.67839" lon="2.16879">
        <ele>161</ele>
        <time>2021-06-13T14:58:39Z</time>
      </trkpt>
      <trkpt lat="48.67829" lon="2.16877">
        <ele>160</ele>
        <time>2021-06-13T14:58:48Z</time>
      </trkpt>
      <trkpt lat="48.67826" lon="2.16885">
        <ele>159</ele>
        <time>2021-06-13T14:58:53Z</time>
      </trkpt>
      <trkpt lat="48.67823" lon="2.16908">
        <ele>160</ele>
        <time>2021-06-13T14:59:05Z</time>
      </trkpt>
      <trkpt lat="48.67821" lon="2.16918">
        <ele>160</ele>
        <time>2021-06-13T14:59:11Z</time>
      </trkpt>
      <trkpt lat="48.67819" lon="2.16932">
        <ele>160</ele>
        <time>2021-06-13T14:59:19Z</time>
      </trkpt>
      <trkpt lat="48.67819" lon="2.1694">
        <ele>160</ele>
        <time>2021-06-13T14:59:22Z</time>
      </trkpt>
      <trkpt lat="48.6782" lon="2.16947">
        <ele>160</ele>
        <time>2021-06-13T14:59:27Z</time>
      </trkpt>
      <trkpt lat="48.67831" lon="2.16953">
        <ele>161</ele>
        <time>2021-06-13T14:59:36Z</time>
      </trkpt>
      <trkpt lat="48.67835" lon="2.16954">
        <ele>161</ele>
        <time>2021-06-13T14:59:40Z</time>
      </trkpt>
      <trkpt lat="48.67845" lon="2.16957">
        <ele>162</ele>
        <time>2021-06-13T14:59:48Z</time>
      </trkpt>
      <trkpt lat="48.6785" lon="2.1696">
        <ele>162</ele>
        <time>2021-06-13T14:59:52Z</time>
      </trkpt>
      <trkpt lat="48.6786" lon="2.16962">
        <ele>162</ele>
        <time>2021-06-13T15:00:00Z</time>
      </trkpt>
      <trkpt lat="48.67864" lon="2.16967">
        <ele>163</ele>
        <time>2021-06-13T15:00:04Z</time>
      </trkpt>
      <trkpt lat="48.67881" lon="2.16976">
        <ele>162</ele>
        <time>2021-06-13T15:00:18Z</time>
      </trkpt>
      <trkpt lat="48.67887" lon="2.16977">
        <ele>163</ele>
        <time>2021-06-13T15:00:22Z</time>
      </trkpt>
      <trkpt lat="48.679" lon="2.16986">
        <ele>163</ele>
        <time>2021-06-13T15:00:33Z</time>
      </trkpt>
      <trkpt lat="48.6792" lon="2.17011">
        <ele>163</ele>
        <time>2021-06-13T15:00:54Z</time>
      </trkpt>
      <trkpt lat="48.67935" lon="2.17016">
        <ele>163</ele>
        <time>2021-06-13T15:01:06Z</time>
      </trkpt>
      <trkpt lat="48.67946" lon="2.17016">
        <ele>163</ele>
        <time>2021-06-13T15:01:13Z</time>
      </trkpt>
      <trkpt lat="48.6795" lon="2.17021">
        <ele>163</ele>
        <time>2021-06-13T15:01:17Z</time>
      </trkpt>
      <trkpt lat="48.67955" lon="2.17023">
        <ele>163</ele>
        <time>2021-06-13T15:01:22Z</time>
      </trkpt>
      <trkpt lat="48.67961" lon="2.17024">
        <ele>163</ele>
        <time>2021-06-13T15:01:25Z</time>
      </trkpt>
      <trkpt lat="48.67965" lon="2.17026">
        <ele>163</ele>
        <time>2021-06-13T15:01:28Z</time>
      </trkpt>
      <trkpt lat="48.6797" lon="2.17026">
        <ele>162</ele>
        <time>2021-06-13T15:01:32Z</time>
      </trkpt>
      <trkpt lat="48.67975" lon="2.17026">
        <ele>163</ele>
        <time>2021-06-13T15:01:36Z</time>
      </trkpt>
      <trkpt lat="48.6798" lon="2.17028">
        <ele>163</ele>
        <time>2021-06-13T15:01:40Z</time>
      </trkpt>
      <trkpt lat="48.6799" lon="2.17029">
        <ele>163</ele>
        <time>2021-06-13T15:01:49Z</time>
      </trkpt>
      <trkpt lat="48.68001" lon="2.17032">
        <ele>163</ele>
        <time>2021-06-13T15:02:08Z</time>
      </trkpt>
      <trkpt lat="48.68041" lon="2.1704">
        <ele>162</ele>
        <time>2021-06-13T15:02:39Z</time>
      </trkpt>
      <trkpt lat="48.68083" lon="2.17042">
        <ele>161</ele>
        <time>2021-06-13T15:03:11Z</time>
      </trkpt>
      <trkpt lat="48.68087" lon="2.17042">
        <ele>161</ele>
        <time>2021-06-13T15:03:15Z</time>
      </trkpt>
      <trkpt lat="48.68097" lon="2.17042">
        <ele>160</ele>
        <time>2021-06-13T15:03:24Z</time>
      </trkpt>
      <trkpt lat="48.68103" lon="2.17042">
        <ele>159</ele>
        <time>2021-06-13T15:03:28Z</time>
      </trkpt>
      <trkpt lat="48.68113" lon="2.17037">
        <ele>160</ele>
        <time>2021-06-13T15:03:37Z</time>
      </trkpt>
      <trkpt lat="48.68124" lon="2.17036">
        <ele>160</ele>
        <time>2021-06-13T15:03:45Z</time>
      </trkpt>
      <trkpt lat="48.68129" lon="2.17035">
        <ele>160</ele>
        <time>2021-06-13T15:03:49Z</time>
      </trkpt>
      <trkpt lat="48.68135" lon="2.17035">
        <ele>160</ele>
        <time>2021-06-13T15:03:54Z</time>
      </trkpt>
      <trkpt lat="48.68147" lon="2.17039">
        <ele>163</ele>
        <time>2021-06-13T15:04:11Z</time>
      </trkpt>
      <trkpt lat="48.68152" lon="2.17037">
        <ele>163</ele>
        <time>2021-06-13T15:04:15Z</time>
      </trkpt>
      <trkpt lat="48.68157" lon="2.17034">
        <ele>163</ele>
        <time>2021-06-13T15:04:22Z</time>
      </trkpt>
      <trkpt lat="48.68161" lon="2.17041">
        <ele>163</ele>
        <time>2021-06-13T15:04:32Z</time>
      </trkpt>
      <trkpt lat="48.68165" lon="2.17047">
        <ele>163</ele>
        <time>2021-06-13T15:04:37Z</time>
      </trkpt>
      <trkpt lat="48.6817" lon="2.1706">
        <ele>163</ele>
        <time>2021-06-13T15:04:44Z</time>
      </trkpt>
      <trkpt lat="48.68171" lon="2.17067">
        <ele>163</ele>
        <time>2021-06-13T15:04:48Z</time>
      </trkpt>
      <trkpt lat="48.68171" lon="2.17075">
        <ele>163</ele>
        <time>2021-06-13T15:04:52Z</time>
      </trkpt>
      <trkpt lat="48.68176" lon="2.17077">
        <ele>162</ele>
        <time>2021-06-13T15:05:25Z</time>
      </trkpt>
      <trkpt lat="48.68177" lon="2.17055">
        <ele>162</ele>
        <time>2021-06-13T15:05:37Z</time>
      </trkpt>
      <trkpt lat="48.68178" lon="2.17047">
        <ele>162</ele>
        <time>2021-06-13T15:05:41Z</time>
      </trkpt>
      <trkpt lat="48.68178" lon="2.1704">
        <ele>162</ele>
        <time>2021-06-13T15:05:45Z</time>
      </trkpt>
      <trkpt lat="48.6818" lon="2.17032">
        <ele>162</ele>
        <time>2021-06-13T15:05:50Z</time>
      </trkpt>
      <trkpt lat="48.68186" lon="2.17031">
        <ele>162</ele>
        <time>2021-06-13T15:05:54Z</time>
      </trkpt>
      <trkpt lat="48.68195" lon="2.17026">
        <ele>162</ele>
        <time>2021-06-13T15:06:01Z</time>
      </trkpt>
      <trkpt lat="48.68205" lon="2.17022">
        <ele>163</ele>
        <time>2021-06-13T15:06:09Z</time>
      </trkpt>
      <trkpt lat="48.6821" lon="2.17019">
        <ele>162</ele>
        <time>2021-06-13T15:06:13Z</time>
      </trkpt>
      <trkpt lat="48.68215" lon="2.17018">
        <ele>162</ele>
        <time>2021-06-13T15:06:17Z</time>
      </trkpt>
      <trkpt lat="48.6822" lon="2.17018">
        <ele>162</ele>
        <time>2021-06-13T15:06:20Z</time>
      </trkpt>
      <trkpt lat="48.68224" lon="2.17015">
        <ele>162</ele>
        <time>2021-06-13T15:06:24Z</time>
      </trkpt>
      <trkpt lat="48.68229" lon="2.17015">
        <ele>161</ele>
        <time>2021-06-13T15:06:28Z</time>
      </trkpt>
      <trkpt lat="48.68233" lon="2.17016">
        <ele>161</ele>
        <time>2021-06-13T15:06:31Z</time>
      </trkpt>
      <trkpt lat="48.68238" lon="2.17017">
        <ele>161</ele>
        <time>2021-06-13T15:06:35Z</time>
      </trkpt>
      <trkpt lat="48.68242" lon="2.17019">
        <ele>160</ele>
        <time>2021-06-13T15:06:40Z</time>
      </trkpt>
      <trkpt lat="48.68249" lon="2.17013">
        <ele>158</ele>
        <time>2021-06-13T15:06:50Z</time>
      </trkpt>
      <trkpt lat="48.68255" lon="2.17013">
        <ele>158</ele>
        <time>2021-06-13T15:06:54Z</time>
      </trkpt>
      <trkpt lat="48.68259" lon="2.17009">
        <ele>158</ele>
        <time>2021-06-13T15:06:58Z</time>
      </trkpt>
      <trkpt lat="48.68264" lon="2.17013">
        <ele>158</ele>
        <time>2021-06-13T15:07:02Z</time>
      </trkpt>
      <trkpt lat="48.68268" lon="2.17018">
        <ele>158</ele>
        <time>2021-06-13T15:07:05Z</time>
      </trkpt>
      <trkpt lat="48.68273" lon="2.1702">
        <ele>158</ele>
        <time>2021-06-13T15:07:09Z</time>
      </trkpt>
      <trkpt lat="48.68278" lon="2.1702">
        <ele>158</ele>
        <time>2021-06-13T15:07:14Z</time>
      </trkpt>
      <trkpt lat="48.68282" lon="2.17018">
        <ele>158</ele>
        <time>2021-06-13T15:07:18Z</time>
      </trkpt>
      <trkpt lat="48.68288" lon="2.17018">
        <ele>158</ele>
        <time>2021-06-13T15:07:22Z</time>
      </trkpt>
      <trkpt lat="48.68292" lon="2.17021">
        <ele>158</ele>
        <time>2021-06-13T15:07:25Z</time>
      </trkpt>
      <trkpt lat="48.68296" lon="2.17014">
        <ele>158</ele>
        <time>2021-06-13T15:07:33Z</time>
      </trkpt>
      <trkpt lat="48.68304" lon="2.17007">
        <ele>158</ele>
        <time>2021-06-13T15:07:57Z</time>
      </trkpt>
      <trkpt lat="48.68304" lon="2.16999">
        <ele>158</ele>
        <time>2021-06-13T15:08:00Z</time>
      </trkpt>
      <trkpt lat="48.68306" lon="2.16992">
        <ele>159</ele>
        <time>2021-06-13T15:08:03Z</time>
      </trkpt>
      <trkpt lat="48.68308" lon="2.16984">
        <ele>159</ele>
        <time>2021-06-13T15:08:06Z</time>
      </trkpt>
      <trkpt lat="48.68312" lon="2.16978">
        <ele>159</ele>
        <time>2021-06-13T15:08:10Z</time>
      </trkpt>
      <trkpt lat="48.68315" lon="2.16973">
        <ele>159</ele>
        <time>2021-06-13T15:08:13Z</time>
      </trkpt>
      <trkpt lat="48.68325" lon="2.16949">
        <ele>159</ele>
        <time>2021-06-13T15:08:23Z</time>
      </trkpt>
      <trkpt lat="48.6833" lon="2.16942">
        <ele>159</ele>
        <time>2021-06-13T15:08:26Z</time>
      </trkpt>
      <trkpt lat="48.68335" lon="2.16938">
        <ele>159</ele>
        <time>2021-06-13T15:08:29Z</time>
      </trkpt>
      <trkpt lat="48.68339" lon="2.16935">
        <ele>159</ele>
        <time>2021-06-13T15:08:32Z</time>
      </trkpt>
      <trkpt lat="48.68345" lon="2.16932">
        <ele>159</ele>
        <time>2021-06-13T15:08:36Z</time>
      </trkpt>
      <trkpt lat="48.68355" lon="2.16931">
        <ele>158</ele>
        <time>2021-06-13T15:08:44Z</time>
      </trkpt>
      <trkpt lat="48.68366" lon="2.1693">
        <ele>159</ele>
        <time>2021-06-13T15:08:49Z</time>
      </trkpt>
      <trkpt lat="48.6837" lon="2.16927">
        <ele>159</ele>
        <time>2021-06-13T15:08:54Z</time>
      </trkpt>
      <trkpt lat="48.68375" lon="2.16919">
        <ele>159</ele>
        <time>2021-06-13T15:09:00Z</time>
      </trkpt>
      <trkpt lat="48.68382" lon="2.16919">
        <ele>159</ele>
        <time>2021-06-13T15:09:05Z</time>
      </trkpt>
      <trkpt lat="48.68387" lon="2.16921">
        <ele>159</ele>
        <time>2021-06-13T15:09:09Z</time>
      </trkpt>
      <trkpt lat="48.68391" lon="2.1692">
        <ele>159</ele>
        <time>2021-06-13T15:09:14Z</time>
      </trkpt>
      <trkpt lat="48.68397" lon="2.16914">
        <ele>159</ele>
        <time>2021-06-13T15:09:23Z</time>
      </trkpt>
      <trkpt lat="48.68406" lon="2.16919">
        <ele>159</ele>
        <time>2021-06-13T15:09:36Z</time>
      </trkpt>
      <trkpt lat="48.68416" lon="2.16934">
        <ele>159</ele>
        <time>2021-06-13T15:09:42Z</time>
      </trkpt>
      <trkpt lat="48.68422" lon="2.16937">
        <ele>159</ele>
        <time>2021-06-13T15:09:44Z</time>
      </trkpt>
      <trkpt lat="48.68439" lon="2.16938">
        <ele>160</ele>
        <time>2021-06-13T15:09:51Z</time>
      </trkpt>
      <trkpt lat="48.68444" lon="2.16941">
        <ele>159</ele>
        <time>2021-06-13T15:09:54Z</time>
      </trkpt>
      <trkpt lat="48.68449" lon="2.16945">
        <ele>159</ele>
        <time>2021-06-13T15:09:57Z</time>
      </trkpt>
      <trkpt lat="48.68455" lon="2.16948">
        <ele>159</ele>
        <time>2021-06-13T15:10:01Z</time>
      </trkpt>
      <trkpt lat="48.68461" lon="2.16947">
        <ele>159</ele>
        <time>2021-06-13T15:10:04Z</time>
      </trkpt>
      <trkpt lat="48.68461" lon="2.16937">
        <ele>159</ele>
        <time>2021-06-13T15:10:06Z</time>
      </trkpt>
      <trkpt lat="48.68466" lon="2.16934">
        <ele>159</ele>
        <time>2021-06-13T15:10:09Z</time>
      </trkpt>
      <trkpt lat="48.6847" lon="2.16937">
        <ele>159</ele>
        <time>2021-06-13T15:10:12Z</time>
      </trkpt>
      <trkpt lat="48.68476" lon="2.16943">
        <ele>159</ele>
        <time>2021-06-13T15:10:15Z</time>
      </trkpt>
      <trkpt lat="48.68481" lon="2.16944">
        <ele>158</ele>
        <time>2021-06-13T15:10:18Z</time>
      </trkpt>
      <trkpt lat="48.68486" lon="2.16946">
        <ele>159</ele>
        <time>2021-06-13T15:10:22Z</time>
      </trkpt>
      <trkpt lat="48.68491" lon="2.16948">
        <ele>158</ele>
        <time>2021-06-13T15:10:26Z</time>
      </trkpt>
      <trkpt lat="48.68496" lon="2.16953">
        <ele>159</ele>
        <time>2021-06-13T15:10:29Z</time>
      </trkpt>
      <trkpt lat="48.68501" lon="2.16956">
        <ele>159</ele>
        <time>2021-06-13T15:10:33Z</time>
      </trkpt>
      <trkpt lat="48.68506" lon="2.1696">
        <ele>159</ele>
        <time>2021-06-13T15:10:35Z</time>
      </trkpt>
      <trkpt lat="48.6851" lon="2.16964">
        <ele>158</ele>
        <time>2021-06-13T15:10:37Z</time>
      </trkpt>
      <trkpt lat="48.68514" lon="2.1697">
        <ele>158</ele>
        <time>2021-06-13T15:10:40Z</time>
      </trkpt>
      <trkpt lat="48.68519" lon="2.16964">
        <ele>158</ele>
        <time>2021-06-13T15:10:47Z</time>
      </trkpt>
      <trkpt lat="48.68526" lon="2.16961">
        <ele>158</ele>
        <time>2021-06-13T15:10:54Z</time>
      </trkpt>
      <trkpt lat="48.68533" lon="2.16964">
        <ele>158</ele>
        <time>2021-06-13T15:11:00Z</time>
      </trkpt>
      <trkpt lat="48.68538" lon="2.16966">
        <ele>158</ele>
        <time>2021-06-13T15:11:03Z</time>
      </trkpt>
      <trkpt lat="48.68546" lon="2.16972">
        <ele>158</ele>
        <time>2021-06-13T15:11:10Z</time>
      </trkpt>
      <trkpt lat="48.68555" lon="2.16968">
        <ele>158</ele>
        <time>2021-06-13T15:11:19Z</time>
      </trkpt>
      <trkpt lat="48.68567" lon="2.16967">
        <ele>158</ele>
        <time>2021-06-13T15:11:27Z</time>
      </trkpt>
      <trkpt lat="48.68572" lon="2.16966">
        <ele>158</ele>
        <time>2021-06-13T15:11:30Z</time>
      </trkpt>
      <trkpt lat="48.68577" lon="2.1696">
        <ele>158</ele>
        <time>2021-06-13T15:11:33Z</time>
      </trkpt>
      <trkpt lat="48.68585" lon="2.16956">
        <ele>157</ele>
        <time>2021-06-13T15:11:46Z</time>
      </trkpt>
      <trkpt lat="48.6859" lon="2.16957">
        <ele>158</ele>
        <time>2021-06-13T15:11:49Z</time>
      </trkpt>
      <trkpt lat="48.68601" lon="2.16957">
        <ele>158</ele>
        <time>2021-06-13T15:11:57Z</time>
      </trkpt>
      <trkpt lat="48.68612" lon="2.16961">
        <ele>158</ele>
        <time>2021-06-13T15:12:04Z</time>
      </trkpt>
      <trkpt lat="48.68617" lon="2.1696">
        <ele>158</ele>
        <time>2021-06-13T15:12:08Z</time>
      </trkpt>
      <trkpt lat="48.68622" lon="2.1696">
        <ele>158</ele>
        <time>2021-06-13T15:12:12Z</time>
      </trkpt>
      <trkpt lat="48.68627" lon="2.16963">
        <ele>157</ele>
        <time>2021-06-13T15:12:15Z</time>
      </trkpt>
      <trkpt lat="48.68631" lon="2.16962">
        <ele>158</ele>
        <time>2021-06-13T15:12:19Z</time>
      </trkpt>
      <trkpt lat="48.68674" lon="2.16984">
        <ele>157</ele>
        <time>2021-06-13T15:12:50Z</time>
      </trkpt>
      <trkpt lat="48.6868" lon="2.16983">
        <ele>158</ele>
        <time>2021-06-13T15:12:55Z</time>
      </trkpt>
      <trkpt lat="48.68684" lon="2.16979">
        <ele>158</ele>
        <time>2021-06-13T15:12:59Z</time>
      </trkpt>
      <trkpt lat="48.68699" lon="2.16971">
        <ele>158</ele>
        <time>2021-06-13T15:13:15Z</time>
      </trkpt>
      <trkpt lat="48.687" lon="2.16962">
        <ele>158</ele>
        <time>2021-06-13T15:13:19Z</time>
      </trkpt>
      <trkpt lat="48.68699" lon="2.16956">
        <ele>158</ele>
        <time>2021-06-13T15:13:22Z</time>
      </trkpt>
      <trkpt lat="48.68699" lon="2.16949">
        <ele>158</ele>
        <time>2021-06-13T15:13:25Z</time>
      </trkpt>
      <trkpt lat="48.68699" lon="2.1693">
        <ele>158</ele>
        <time>2021-06-13T15:13:37Z</time>
      </trkpt>
      <trkpt lat="48.68699" lon="2.16921">
        <ele>158</ele>
        <time>2021-06-13T15:13:41Z</time>
      </trkpt>
      <trkpt lat="48.687" lon="2.16907">
        <ele>158</ele>
        <time>2021-06-13T15:13:48Z</time>
      </trkpt>
      <trkpt lat="48.68697" lon="2.16899">
        <ele>158</ele>
        <time>2021-06-13T15:13:52Z</time>
      </trkpt>
      <trkpt lat="48.68698" lon="2.16891">
        <ele>159</ele>
        <time>2021-06-13T15:13:55Z</time>
      </trkpt>
      <trkpt lat="48.687" lon="2.16885">
        <ele>160</ele>
        <time>2021-06-13T15:13:58Z</time>
      </trkpt>
      <trkpt lat="48.68707" lon="2.16892">
        <ele>161</ele>
        <time>2021-06-13T15:14:04Z</time>
      </trkpt>
      <trkpt lat="48.68712" lon="2.16896">
        <ele>161</ele>
        <time>2021-06-13T15:14:09Z</time>
      </trkpt>
      <trkpt lat="48.68715" lon="2.16902">
        <ele>161</ele>
        <time>2021-06-13T15:14:12Z</time>
      </trkpt>
      <trkpt lat="48.68725" lon="2.16912">
        <ele>160</ele>
        <time>2021-06-13T15:14:20Z</time>
      </trkpt>
      <trkpt lat="48.68747" lon="2.1692">
        <ele>159</ele>
        <time>2021-06-13T15:14:36Z</time>
      </trkpt>
      <trkpt lat="48.68754" lon="2.16915">
        <ele>159</ele>
        <time>2021-06-13T15:14:42Z</time>
      </trkpt>
      <trkpt lat="48.68776" lon="2.16874">
        <ele>160</ele>
        <time>2021-06-13T15:15:13Z</time>
      </trkpt>
      <trkpt lat="48.68779" lon="2.16868">
        <ele>160</ele>
        <time>2021-06-13T15:15:17Z</time>
      </trkpt>
      <trkpt lat="48.68792" lon="2.16843">
        <ele>160</ele>
        <time>2021-06-13T15:15:33Z</time>
      </trkpt>
      <trkpt lat="48.68796" lon="2.16822">
        <ele>160</ele>
        <time>2021-06-13T15:15:45Z</time>
      </trkpt>
      <trkpt lat="48.68784" lon="2.16761">
        <ele>155</ele>
        <time>2021-06-13T15:16:17Z</time>
      </trkpt>
      <trkpt lat="48.68782" lon="2.16755">
        <ele>156</ele>
        <time>2021-06-13T15:16:20Z</time>
      </trkpt>
      <trkpt lat="48.6878" lon="2.16748">
        <ele>155</ele>
        <time>2021-06-13T15:16:24Z</time>
      </trkpt>
      <trkpt lat="48.68778" lon="2.16742">
        <ele>156</ele>
        <time>2021-06-13T15:16:27Z</time>
      </trkpt>
      <trkpt lat="48.68776" lon="2.16735">
        <ele>155</ele>
        <time>2021-06-13T15:16:31Z</time>
      </trkpt>
      <trkpt lat="48.68776" lon="2.16726">
        <ele>156</ele>
        <time>2021-06-13T15:16:35Z</time>
      </trkpt>
      <trkpt lat="48.68779" lon="2.16719">
        <ele>156</ele>
        <time>2021-06-13T15:16:39Z</time>
      </trkpt>
      <trkpt lat="48.68783" lon="2.16714">
        <ele>155</ele>
        <time>2021-06-13T15:16:43Z</time>
      </trkpt>
      <trkpt lat="48.68787" lon="2.16707">
        <ele>155</ele>
        <time>2021-06-13T15:16:46Z</time>
      </trkpt>
      <trkpt lat="48.68789" lon="2.16701">
        <ele>155</ele>
        <time>2021-06-13T15:16:49Z</time>
      </trkpt>
      <trkpt lat="48.688" lon="2.16683">
        <ele>155</ele>
        <time>2021-06-13T15:17:00Z</time>
      </trkpt>
      <trkpt lat="48.68803" lon="2.16676">
        <ele>155</ele>
        <time>2021-06-13T15:17:04Z</time>
      </trkpt>
      <trkpt lat="48.68805" lon="2.16669">
        <ele>155</ele>
        <time>2021-06-13T15:17:09Z</time>
      </trkpt>
      <trkpt lat="48.6881" lon="2.16661">
        <ele>155</ele>
        <time>2021-06-13T15:17:15Z</time>
      </trkpt>
      <trkpt lat="48.68812" lon="2.16652">
        <ele>155</ele>
        <time>2021-06-13T15:17:21Z</time>
      </trkpt>
      <trkpt lat="48.68817" lon="2.16644">
        <ele>155</ele>
        <time>2021-06-13T15:17:26Z</time>
      </trkpt>
      <trkpt lat="48.68821" lon="2.16639">
        <ele>156</ele>
        <time>2021-06-13T15:17:31Z</time>
      </trkpt>
      <trkpt lat="48.68842" lon="2.16627">
        <ele>155</ele>
        <time>2021-06-13T15:17:49Z</time>
      </trkpt>
      <trkpt lat="48.68848" lon="2.16625">
        <ele>155</ele>
        <time>2021-06-13T15:17:52Z</time>
      </trkpt>
      <trkpt lat="48.68858" lon="2.16623">
        <ele>155</ele>
        <time>2021-06-13T15:18:00Z</time>
      </trkpt>
      <trkpt lat="48.68864" lon="2.16621">
        <ele>155</ele>
        <time>2021-06-13T15:18:04Z</time>
      </trkpt>
      <trkpt lat="48.68875" lon="2.16616">
        <ele>155</ele>
        <time>2021-06-13T15:18:14Z</time>
      </trkpt>
      <trkpt lat="48.6888" lon="2.16611">
        <ele>155</ele>
        <time>2021-06-13T15:18:17Z</time>
      </trkpt>
      <trkpt lat="48.68886" lon="2.1661">
        <ele>155</ele>
        <time>2021-06-13T15:18:21Z</time>
      </trkpt>
      <trkpt lat="48.68895" lon="2.16604">
        <ele>155</ele>
        <time>2021-06-13T15:18:29Z</time>
      </trkpt>
      <trkpt lat="48.68901" lon="2.16602">
        <ele>156</ele>
        <time>2021-06-13T15:18:33Z</time>
      </trkpt>
      <trkpt lat="48.68923" lon="2.16597">
        <ele>155</ele>
        <time>2021-06-13T15:18:49Z</time>
      </trkpt>
      <trkpt lat="48.68932" lon="2.16589">
        <ele>155</ele>
        <time>2021-06-13T15:18:57Z</time>
      </trkpt>
      <trkpt lat="48.68935" lon="2.16581">
        <ele>154</ele>
        <time>2021-06-13T15:19:02Z</time>
      </trkpt>
      <trkpt lat="48.68939" lon="2.16575">
        <ele>154</ele>
        <time>2021-06-13T15:19:07Z</time>
      </trkpt>
      <trkpt lat="48.6894" lon="2.16568">
        <ele>154</ele>
        <time>2021-06-13T15:19:11Z</time>
      </trkpt>
      <trkpt lat="48.68939" lon="2.1656">
        <ele>155</ele>
        <time>2021-06-13T15:19:16Z</time>
      </trkpt>
      <trkpt lat="48.68937" lon="2.16551">
        <ele>154</ele>
        <time>2021-06-13T15:19:24Z</time>
      </trkpt>
      <trkpt lat="48.68938" lon="2.16543">
        <ele>155</ele>
        <time>2021-06-13T15:19:28Z</time>
      </trkpt>
      <trkpt lat="48.68941" lon="2.16537">
        <ele>154</ele>
        <time>2021-06-13T15:19:32Z</time>
      </trkpt>
      <trkpt lat="48.68951" lon="2.16528">
        <ele>154</ele>
        <time>2021-06-13T15:19:42Z</time>
      </trkpt>
      <trkpt lat="48.68956" lon="2.16525">
        <ele>154</ele>
        <time>2021-06-13T15:19:46Z</time>
      </trkpt>
      <trkpt lat="48.68962" lon="2.16523">
        <ele>154</ele>
        <time>2021-06-13T15:19:51Z</time>
      </trkpt>
      <trkpt lat="48.6898" lon="2.16553">
        <ele>154</ele>
        <time>2021-06-13T15:20:07Z</time>
      </trkpt>
      <trkpt lat="48.68983" lon="2.1656">
        <ele>154</ele>
        <time>2021-06-13T15:20:11Z</time>
      </trkpt>
      <trkpt lat="48.68994" lon="2.16577">
        <ele>155</ele>
        <time>2021-06-13T15:20:23Z</time>
      </trkpt>
      <trkpt lat="48.69" lon="2.16579">
        <ele>155</ele>
        <time>2021-06-13T15:20:30Z</time>
      </trkpt>
      <trkpt lat="48.69007" lon="2.16594">
        <ele>155</ele>
        <time>2021-06-13T15:20:40Z</time>
      </trkpt>
      <trkpt lat="48.69013" lon="2.16612">
        <ele>155</ele>
        <time>2021-06-13T15:20:50Z</time>
      </trkpt>
      <trkpt lat="48.69026" lon="2.16638">
        <ele>155</ele>
        <time>2021-06-13T15:21:06Z</time>
      </trkpt>
      <trkpt lat="48.69033" lon="2.16644">
        <ele>155</ele>
        <time>2021-06-13T15:21:14Z</time>
      </trkpt>
      <trkpt lat="48.6904" lon="2.16653">
        <ele>154</ele>
        <time>2021-06-13T15:21:27Z</time>
      </trkpt>
      <trkpt lat="48.69043" lon="2.16645">
        <ele>154</ele>
        <time>2021-06-13T15:21:45Z</time>
      </trkpt>
      <trkpt lat="48.69049" lon="2.16643">
        <ele>154</ele>
        <time>2021-06-13T15:21:57Z</time>
      </trkpt>
      <trkpt lat="48.69055" lon="2.16653">
        <ele>153</ele>
        <time>2021-06-13T15:22:08Z</time>
      </trkpt>
      <trkpt lat="48.69053" lon="2.16657">
        <ele>153</ele>
        <time>2021-06-13T15:22:33Z</time>
      </trkpt>
      <trkpt lat="48.69046" lon="2.16649">
        <ele>153</ele>
        <time>2021-06-13T15:22:58Z</time>
      </trkpt>
      <trkpt lat="48.69042" lon="2.16658">
        <ele>154</ele>
        <time>2021-06-13T15:23:18Z</time>
      </trkpt>
      <trkpt lat="48.69042" lon="2.16654">
        <ele>153</ele>
        <time>2021-06-13T15:24:44Z</time>
      </trkpt>
      <trkpt lat="48.69048" lon="2.16653">
        <ele>153</ele>
        <time>2021-06-13T15:25:14Z</time>
      </trkpt>
      <trkpt lat="48.69046" lon="2.16649">
        <ele>152</ele>
        <time>2021-06-13T15:26:06Z</time>
      </trkpt>
      <trkpt lat="48.69048" lon="2.16655">
        <ele>153</ele>
        <time>2021-06-13T15:28:15Z</time>
      </trkpt>
      <trkpt lat="48.6905" lon="2.16674">
        <ele>153</ele>
        <time>2021-06-13T15:28:25Z</time>
      </trkpt>
      <trkpt lat="48.69053" lon="2.16683">
        <ele>153</ele>
        <time>2021-06-13T15:28:30Z</time>
      </trkpt>
      <trkpt lat="48.69052" lon="2.16692">
        <ele>153</ele>
        <time>2021-06-13T15:28:34Z</time>
      </trkpt>
      <trkpt lat="48.69059" lon="2.16721">
        <ele>152</ele>
        <time>2021-06-13T15:28:49Z</time>
      </trkpt>
      <trkpt lat="48.69075" lon="2.1673">
        <ele>151</ele>
        <time>2021-06-13T15:29:05Z</time>
      </trkpt>
      <trkpt lat="48.69089" lon="2.1673">
        <ele>149</ele>
        <time>2021-06-13T15:29:17Z</time>
      </trkpt>
      <trkpt lat="48.69097" lon="2.16724">
        <ele>148</ele>
        <time>2021-06-13T15:29:25Z</time>
      </trkpt>
      <trkpt lat="48.69107" lon="2.16707">
        <ele>147</ele>
        <time>2021-06-13T15:29:38Z</time>
      </trkpt>
      <trkpt lat="48.69111" lon="2.16698">
        <ele>147</ele>
        <time>2021-06-13T15:29:44Z</time>
      </trkpt>
      <trkpt lat="48.69115" lon="2.16692">
        <ele>146</ele>
        <time>2021-06-13T15:29:49Z</time>
      </trkpt>
      <trkpt lat="48.69121" lon="2.16689">
        <ele>145</ele>
        <time>2021-06-13T15:29:54Z</time>
      </trkpt>
      <trkpt lat="48.69127" lon="2.16691">
        <ele>145</ele>
        <time>2021-06-13T15:29:58Z</time>
      </trkpt>
      <trkpt lat="48.69133" lon="2.16709">
        <ele>143</ele>
        <time>2021-06-13T15:30:06Z</time>
      </trkpt>
      <trkpt lat="48.69136" lon="2.16726">
        <ele>142</ele>
        <time>2021-06-13T15:30:14Z</time>
      </trkpt>
      <trkpt lat="48.69146" lon="2.16741">
        <ele>139</ele>
        <time>2021-06-13T15:30:27Z</time>
      </trkpt>
      <trkpt lat="48.69152" lon="2.16728">
        <ele>136</ele>
        <time>2021-06-13T15:30:56Z</time>
      </trkpt>
      <trkpt lat="48.69152" lon="2.16717">
        <ele>136</ele>
        <time>2021-06-13T15:31:02Z</time>
      </trkpt>
      <trkpt lat="48.69155" lon="2.16707">
        <ele>135</ele>
        <time>2021-06-13T15:31:08Z</time>
      </trkpt>
      <trkpt lat="48.6916" lon="2.16697">
        <ele>134</ele>
        <time>2021-06-13T15:31:14Z</time>
      </trkpt>
      <trkpt lat="48.69162" lon="2.16686">
        <ele>133</ele>
        <time>2021-06-13T15:31:20Z</time>
      </trkpt>
      <trkpt lat="48.69167" lon="2.16675">
        <ele>133</ele>
        <time>2021-06-13T15:31:25Z</time>
      </trkpt>
      <trkpt lat="48.69188" lon="2.16656">
        <ele>128</ele>
        <time>2021-06-13T15:31:46Z</time>
      </trkpt>
      <trkpt lat="48.69212" lon="2.16654">
        <ele>125</ele>
        <time>2021-06-13T15:32:03Z</time>
      </trkpt>
      <trkpt lat="48.69222" lon="2.16656">
        <ele>124</ele>
        <time>2021-06-13T15:32:10Z</time>
      </trkpt>
      <trkpt lat="48.69241" lon="2.16664">
        <ele>122</ele>
        <time>2021-06-13T15:32:26Z</time>
      </trkpt>
      <trkpt lat="48.69279" lon="2.16671">
        <ele>117</ele>
        <time>2021-06-13T15:32:59Z</time>
      </trkpt>
      <trkpt lat="48.69284" lon="2.16665">
        <ele>116</ele>
        <time>2021-06-13T15:33:03Z</time>
      </trkpt>
      <trkpt lat="48.69288" lon="2.16661">
        <ele>116</ele>
        <time>2021-06-13T15:33:07Z</time>
      </trkpt>
      <trkpt lat="48.69302" lon="2.16642">
        <ele>115</ele>
        <time>2021-06-13T15:33:23Z</time>
      </trkpt>
      <trkpt lat="48.69309" lon="2.16627">
        <ele>113</ele>
        <time>2021-06-13T15:33:33Z</time>
      </trkpt>
      <trkpt lat="48.69322" lon="2.1661">
        <ele>111</ele>
        <time>2021-06-13T15:33:47Z</time>
      </trkpt>
      <trkpt lat="48.6933" lon="2.16597">
        <ele>109</ele>
        <time>2021-06-13T15:33:57Z</time>
      </trkpt>
      <trkpt lat="48.69335" lon="2.16591">
        <ele>109</ele>
        <time>2021-06-13T15:34:01Z</time>
      </trkpt>
      <trkpt lat="48.69343" lon="2.16578">
        <ele>107</ele>
        <time>2021-06-13T15:34:11Z</time>
      </trkpt>
      <trkpt lat="48.69346" lon="2.16571">
        <ele>107</ele>
        <time>2021-06-13T15:34:15Z</time>
      </trkpt>
      <trkpt lat="48.6935" lon="2.16566">
        <ele>106</ele>
        <time>2021-06-13T15:34:19Z</time>
      </trkpt>
      <trkpt lat="48.69354" lon="2.1656">
        <ele>106</ele>
        <time>2021-06-13T15:34:23Z</time>
      </trkpt>
      <trkpt lat="48.69361" lon="2.16547">
        <ele>105</ele>
        <time>2021-06-13T15:34:32Z</time>
      </trkpt>
      <trkpt lat="48.69364" lon="2.16538">
        <ele>104</ele>
        <time>2021-06-13T15:34:37Z</time>
      </trkpt>
      <trkpt lat="48.69368" lon="2.16531">
        <ele>104</ele>
        <time>2021-06-13T15:34:43Z</time>
      </trkpt>
      <trkpt lat="48.69378" lon="2.16519">
        <ele>103</ele>
        <time>2021-06-13T15:34:54Z</time>
      </trkpt>
      <trkpt lat="48.69384" lon="2.16514">
        <ele>103</ele>
        <time>2021-06-13T15:34:58Z</time>
      </trkpt>
      <trkpt lat="48.69387" lon="2.16508">
        <ele>102</ele>
        <time>2021-06-13T15:35:03Z</time>
      </trkpt>
      <trkpt lat="48.69391" lon="2.16502">
        <ele>102</ele>
        <time>2021-06-13T15:35:07Z</time>
      </trkpt>
      <trkpt lat="48.69396" lon="2.16498">
        <ele>101</ele>
        <time>2021-06-13T15:35:12Z</time>
      </trkpt>
      <trkpt lat="48.69407" lon="2.1649">
        <ele>100</ele>
        <time>2021-06-13T15:35:20Z</time>
      </trkpt>
      <trkpt lat="48.69411" lon="2.16484">
        <ele>99</ele>
        <time>2021-06-13T15:35:25Z</time>
      </trkpt>
      <trkpt lat="48.69415" lon="2.16481">
        <ele>99</ele>
        <time>2021-06-13T15:35:29Z</time>
      </trkpt>
      <trkpt lat="48.69424" lon="2.16461">
        <ele>97</ele>
        <time>2021-06-13T15:35:41Z</time>
      </trkpt>
      <trkpt lat="48.69427" lon="2.16455">
        <ele>97</ele>
        <time>2021-06-13T15:35:45Z</time>
      </trkpt>
      <trkpt lat="48.69437" lon="2.1645">
        <ele>96</ele>
        <time>2021-06-13T15:35:53Z</time>
      </trkpt>
      <trkpt lat="48.69437" lon="2.16439">
        <ele>96</ele>
        <time>2021-06-13T15:36:06Z</time>
      </trkpt>
      <trkpt lat="48.69448" lon="2.16427">
        <ele>95</ele>
        <time>2021-06-13T15:36:23Z</time>
      </trkpt>
      <trkpt lat="48.69452" lon="2.16421">
        <ele>95</ele>
        <time>2021-06-13T15:36:27Z</time>
      </trkpt>
      <trkpt lat="48.69454" lon="2.16415">
        <ele>94</ele>
        <time>2021-06-13T15:36:31Z</time>
      </trkpt>
      <trkpt lat="48.69458" lon="2.16411">
        <ele>94</ele>
        <time>2021-06-13T15:36:35Z</time>
      </trkpt>
      <trkpt lat="48.69461" lon="2.16406">
        <ele>94</ele>
        <time>2021-06-13T15:36:38Z</time>
      </trkpt>
      <trkpt lat="48.69466" lon="2.16403">
        <ele>94</ele>
        <time>2021-06-13T15:36:42Z</time>
      </trkpt>
      <trkpt lat="48.6947" lon="2.16397">
        <ele>93</ele>
        <time>2021-06-13T15:36:46Z</time>
      </trkpt>
      <trkpt lat="48.69473" lon="2.1639">
        <ele>93</ele>
        <time>2021-06-13T15:36:50Z</time>
      </trkpt>
      <trkpt lat="48.69477" lon="2.16384">
        <ele>92</ele>
        <time>2021-06-13T15:36:54Z</time>
      </trkpt>
      <trkpt lat="48.69481" lon="2.1638">
        <ele>92</ele>
        <time>2021-06-13T15:36:58Z</time>
      </trkpt>
      <trkpt lat="48.69485" lon="2.16375">
        <ele>92</ele>
        <time>2021-06-13T15:37:02Z</time>
      </trkpt>
      <trkpt lat="48.6949" lon="2.1637">
        <ele>91</ele>
        <time>2021-06-13T15:37:06Z</time>
      </trkpt>
      <trkpt lat="48.69493" lon="2.16365">
        <ele>91</ele>
        <time>2021-06-13T15:37:10Z</time>
      </trkpt>
      <trkpt lat="48.69497" lon="2.16361">
        <ele>91</ele>
        <time>2021-06-13T15:37:13Z</time>
      </trkpt>
      <trkpt lat="48.695" lon="2.16355">
        <ele>91</ele>
        <time>2021-06-13T15:37:17Z</time>
      </trkpt>
      <trkpt lat="48.69513" lon="2.16344">
        <ele>89</ele>
        <time>2021-06-13T15:37:27Z</time>
      </trkpt>
      <trkpt lat="48.69516" lon="2.16339">
        <ele>88</ele>
        <time>2021-06-13T15:37:31Z</time>
      </trkpt>
      <trkpt lat="48.69521" lon="2.16338">
        <ele>88</ele>
        <time>2021-06-13T15:37:34Z</time>
      </trkpt>
      <trkpt lat="48.69525" lon="2.16333">
        <ele>88</ele>
        <time>2021-06-13T15:37:38Z</time>
      </trkpt>
      <trkpt lat="48.69528" lon="2.16329">
        <ele>87</ele>
        <time>2021-06-13T15:37:42Z</time>
      </trkpt>
      <trkpt lat="48.6953" lon="2.1632">
        <ele>88</ele>
        <time>2021-06-13T15:37:45Z</time>
      </trkpt>
    </trkseg>
  </trk>
</gpx>